[[{"header":{"parameterUnit":"m.s-1","parameterCategory":1,"la1":30.6,"la2":29.2853,"lo1":-89.7004,"lo2":-87.6739,"dy":0.0162,"dx":0.0183,"nx":112,"ny":82,"refTime":"2023-05-08T12:00:00:Z","depth":0,"parameterNumber":2,"parameterNumberName":"U-component_of_WINDS"},"data":[0.0,0.0,0.0,0.0,0.0,0.0,0.0,0.0,0.0,0.0,0.0,0.0,0.0,0.0,0.0,0.0,0.0,0.0,0.0,0.0,0.0,0.0,0.0,0.0,0.0,0.0,0.0,0.0,0.0,0.0,0.0,0.0,0.0,0.0,0.0,0.0,0.0,0.0,0.0,0.0,0.0,0.0,0.0,0.0,0.0,0.0,0.0,0.0,0.0,0.0,0.0,0.0,0.0,0.0,0.0,0.0,0.0,0.0,0.0,0.0,0.0,0.0,0.0,0.0,0.0,0.0,0.0,0.0,0.0,0.0,0.0,0.0,0.0,0.0,0.0,0.0,0.0,0.0,0.0,0.0,0.0,0.0,0.0,0.0,0.0,0.0,0.0,0.0,0.0,0.0,-4.0739,-4.2404,-4.7201,-5.0429,-5.0713,-4.9928,-4.6587,-3.9919,0.0,0.0,0.0,0.0,0.0,0.0,0.0,0.0,0.0,0.0,0.0,0.0,0.0,0.0,0.0,0.0,0.0,0.0,0.0,0.0,0.0,0.0,0.0,0.0,0.0,0.0,0.0,0.0,0.0,0.0,0.0,0.0,0.0,0.0,0.0,0.0,0.0,0.0,0.0,0.0,0.0,0.0,0.0,0.0,0.0,0.0,0.0,0.0,0.0,0.0,0.0,0.0,0.0,0.0,0.0,0.0,0.0,0.0,0.0,0.0,0.0,0.0,0.0,0.0,0.0,0.0,0.0,0.0,0.0,0.0,0.0,0.0,0.0,0.0,0.0,0.0,0.0,0.0,0.0,0.0,0.0,0.0,0.0,0.0,0.0,0.0,0.0,0.0,0.0,0.0,0.0,0.0,0.0,0.0,0.0,0.0,0.0,0.0,0.0,0.0,0.0,0.0,0.0,0.0,-4.0373,-4.5558,-4.7548,-4.8394,-4.8186,-4.7112,-4.4704,-4.0576,0.0,0.0,0.0,0.0,0.0,0.0,0.0,0.0,0.0,0.0,0.0,0.0,0.0,0.0,0.0,0.0,0.0,0.0,0.0,0.0,0.0,0.0,0.0,0.0,0.0,0.0,0.0,0.0,0.0,0.0,0.0,0.0,0.0,0.0,0.0,0.0,0.0,0.0,0.0,0.0,0.0,0.0,0.0,0.0,0.0,0.0,0.0,0.0,0.0,0.0,0.0,0.0,0.0,0.0,0.0,0.0,0.0,0.0,0.0,0.0,0.0,0.0,0.0,0.0,0.0,0.0,0.0,0.0,0.0,0.0,0.0,0.0,0.0,0.0,0.0,0.0,0.0,0.0,0.0,0.0,0.0,0.0,0.0,0.0,0.0,0.0,0.0,0.0,0.0,0.0,0.0,0.0,0.0,0.0,0.0,0.0,0.0,0.0,0.0,0.0,0.0,0.0,0.0,-3.863,-4.1296,-4.6346,-4.7021,-4.7169,-4.7264,-4.6204,-4.3824,-3.9785,-3.8771,0.0,0.0,0.0,0.0,0.0,0.0,0.0,0.0,0.0,0.0,0.0,0.0,0.0,0.0,0.0,0.0,0.0,0.0,0.0,0.0,0.0,0.0,0.0,0.0,0.0,0.0,0.0,0.0,0.0,0.0,0.0,0.0,0.0,0.0,0.0,0.0,0.0,0.0,0.0,0.0,0.0,0.0,0.0,0.0,0.0,0.0,0.0,0.0,0.0,0.0,0.0,0.0,0.0,0.0,0.0,0.0,0.0,0.0,0.0,0.0,0.0,0.0,0.0,0.0,0.0,0.0,0.0,0.0,0.0,0.0,0.0,0.0,0.0,0.0,0.0,0.0,0.0,0.0,0.0,0.0,0.0,0.0,0.0,0.0,0.0,0.0,0.0,0.0,0.0,0.0,0.0,0.0,0.0,0.0,0.0,0.0,0.0,0.0,0.0,0.0,0.0,0.0,-4.0612,-4.2492,-4.6081,-4.6209,-4.609,-4.629,-4.5159,-4.2797,-3.894,-3.7771,0.0,0.0,0.0,0.0,0.0,0.0,0.0,0.0,0.0,0.0,0.0,0.0,0.0,0.0,0.0,0.0,0.0,0.0,0.0,0.0,0.0,0.0,0.0,0.0,0.0,0.0,0.0,0.0,0.0,0.0,0.0,0.0,0.0,0.0,0.0,0.0,0.0,0.0,0.0,0.0,0.0,0.0,0.0,0.0,0.0,0.0,0.0,0.0,0.0,0.0,0.0,0.0,0.0,0.0,0.0,0.0,0.0,0.0,0.0,0.0,0.0,0.0,0.0,0.0,0.0,0.0,0.0,0.0,0.0,0.0,0.0,0.0,0.0,0.0,0.0,0.0,0.0,0.0,0.0,0.0,0.0,0.0,0.0,0.0,0.0,0.0,0.0,0.0,0.0,0.0,0.0,0.0,0.0,0.0,0.0,0.0,0.0,0.0,0.0,0.0,0.0,0.0,-4.095,-4.3518,-4.5055,-4.5203,-4.4912,-4.427,-4.276,-4.0963,-3.883,-3.7239,0.0,0.0,0.0,0.0,0.0,0.0,0.0,0.0,0.0,0.0,0.0,0.0,0.0,0.0,0.0,0.0,0.0,0.0,0.0,0.0,0.0,0.0,0.0,0.0,0.0,0.0,0.0,0.0,0.0,0.0,0.0,0.0,0.0,0.0,0.0,0.0,0.0,0.0,0.0,0.0,0.0,0.0,0.0,0.0,0.0,0.0,0.0,0.0,0.0,0.0,0.0,0.0,0.0,0.0,0.0,0.0,0.0,0.0,0.0,0.0,0.0,0.0,0.0,0.0,0.0,0.0,0.0,0.0,0.0,0.0,0.0,0.0,0.0,0.0,0.0,0.0,0.0,0.0,0.0,0.0,0.0,0.0,0.0,0.0,0.0,0.0,0.0,0.0,0.0,0.0,0.0,0.0,0.0,0.0,0.0,0.0,0.0,0.0,0.0,0.0,0.0,0.0,-4.0508,-4.301,-4.49,-4.4908,-4.4561,-4.4043,-4.3246,-4.162,-3.8872,0.0,0.0,0.0,0.0,0.0,0.0,0.0,0.0,0.0,0.0,0.0,0.0,0.0,0.0,0.0,0.0,0.0,0.0,0.0,0.0,0.0,0.0,0.0,0.0,0.0,0.0,0.0,0.0,0.0,0.0,0.0,0.0,0.0,0.0,0.0,0.0,0.0,0.0,0.0,0.0,0.0,0.0,0.0,0.0,0.0,0.0,0.0,0.0,0.0,0.0,0.0,0.0,0.0,0.0,0.0,0.0,0.0,0.0,0.0,0.0,0.0,0.0,0.0,0.0,0.0,0.0,0.0,0.0,0.0,0.0,0.0,0.0,0.0,0.0,0.0,0.0,0.0,0.0,0.0,0.0,0.0,0.0,0.0,0.0,0.0,0.0,0.0,0.0,0.0,0.0,0.0,0.0,0.0,0.0,0.0,0.0,0.0,0.0,0.0,0.0,0.0,0.0,-3.7334,-4.0296,-4.2802,-4.4357,-4.4568,-4.4392,-4.3881,-4.2929,-4.1201,-3.8487,0.0,0.0,0.0,0.0,0.0,0.0,0.0,0.0,0.0,0.0,0.0,0.0,0.0,0.0,0.0,0.0,0.0,0.0,0.0,0.0,0.0,0.0,0.0,0.0,0.0,0.0,0.0,0.0,0.0,0.0,0.0,0.0,0.0,0.0,0.0,0.0,0.0,0.0,0.0,0.0,0.0,0.0,0.0,0.0,0.0,0.0,0.0,0.0,0.0,0.0,0.0,0.0,0.0,0.0,0.0,0.0,0.0,0.0,0.0,0.0,0.0,0.0,0.0,0.0,0.0,0.0,0.0,0.0,0.0,0.0,0.0,0.0,0.0,0.0,0.0,0.0,0.0,0.0,0.0,0.0,0.0,0.0,0.0,0.0,0.0,0.0,0.0,0.0,0.0,0.0,0.0,0.0,0.0,0.0,0.0,0.0,0.0,0.0,0.0,0.0,0.0,0.0,-3.6596,-4.0431,-4.313,-4.3271,-4.407,-4.4294,-4.3546,-4.1295,-3.9237,0.0,0.0,0.0,0.0,0.0,0.0,0.0,0.0,0.0,0.0,0.0,0.0,0.0,0.0,0.0,0.0,0.0,0.0,0.0,0.0,0.0,0.0,0.0,0.0,0.0,0.0,0.0,0.0,0.0,0.0,0.0,0.0,0.0,0.0,0.0,0.0,0.0,0.0,0.0,0.0,0.0,0.0,0.0,0.0,0.0,0.0,0.0,0.0,0.0,0.0,0.0,0.0,0.0,0.0,0.0,0.0,0.0,0.0,0.0,0.0,0.0,0.0,0.0,0.0,0.0,0.0,0.0,0.0,0.0,0.0,0.0,0.0,0.0,0.0,0.0,0.0,0.0,0.0,0.0,0.0,0.0,0.0,0.0,0.0,0.0,0.0,0.0,0.0,0.0,0.0,0.0,0.0,0.0,0.0,0.0,0.0,0.0,0.0,0.0,0.0,0.0,0.0,0.0,-3.6519,-3.9373,-4.1578,-4.2377,-4.319,-4.3386,-4.2719,-4.1992,-4.0653,-3.8487,0.0,0.0,0.0,0.0,0.0,0.0,0.0,0.0,0.0,0.0,0.0,0.0,0.0,0.0,0.0,0.0,0.0,0.0,0.0,0.0,0.0,0.0,0.0,0.0,0.0,0.0,0.0,0.0,0.0,0.0,0.0,0.0,0.0,0.0,0.0,0.0,0.0,0.0,0.0,0.0,0.0,0.0,0.0,0.0,0.0,0.0,0.0,0.0,0.0,0.0,0.0,0.0,0.0,0.0,0.0,0.0,0.0,0.0,0.0,0.0,0.0,0.0,0.0,0.0,0.0,0.0,0.0,0.0,0.0,0.0,0.0,0.0,0.0,0.0,0.0,0.0,0.0,0.0,0.0,0.0,0.0,0.0,0.0,0.0,0.0,0.0,0.0,0.0,0.0,0.0,0.0,0.0,0.0,0.0,0.0,0.0,0.0,0.0,0.0,0.0,0.0,0.0,-3.6481,-3.8834,-4.0664,-4.1484,-4.2478,-4.2743,-4.1895,-4.1827,-4.0508,-3.7408,0.0,0.0,0.0,0.0,0.0,0.0,0.0,0.0,0.0,0.0,0.0,0.0,0.0,0.0,0.0,0.0,0.0,0.0,0.0,0.0,0.0,0.0,0.0,0.0,0.0,0.0,0.0,0.0,0.0,0.0,0.0,0.0,0.0,0.0,0.0,0.0,0.0,0.0,0.0,0.0,0.0,0.0,0.0,0.0,0.0,0.0,0.0,0.0,0.0,0.0,0.0,0.0,0.0,0.0,0.0,0.0,0.0,0.0,0.0,0.0,0.0,0.0,0.0,0.0,0.0,0.0,0.0,0.0,0.0,0.0,0.0,0.0,0.0,0.0,0.0,0.0,0.0,0.0,0.0,0.0,0.0,0.0,0.0,0.0,0.0,0.0,0.0,0.0,0.0,0.0,0.0,0.0,0.0,0.0,0.0,0.0,0.0,0.0,0.0,0.0,0.0,0.0,-3.6481,-3.8557,-4.0076,-4.0637,-4.1822,-4.2136,-4.1089,-4.0985,-3.9334,-3.5481,0.0,0.0,0.0,0.0,0.0,0.0,0.0,0.0,0.0,0.0,0.0,0.0,0.0,0.0,0.0,0.0,0.0,0.0,0.0,0.0,0.0,0.0,0.0,0.0,0.0,0.0,0.0,0.0,0.0,0.0,0.0,0.0,0.0,0.0,0.0,0.0,0.0,0.0,0.0,0.0,0.0,0.0,0.0,0.0,0.0,0.0,0.0,0.0,0.0,0.0,0.0,0.0,0.0,0.0,0.0,0.0,0.0,0.0,0.0,0.0,-4.2826,-4.1885,0.0,0.0,0.0,0.0,0.0,0.0,0.0,0.0,0.0,0.0,0.0,0.0,0.0,0.0,0.0,0.0,0.0,0.0,0.0,0.0,0.0,0.0,0.0,0.0,0.0,0.0,0.0,0.0,0.0,0.0,0.0,0.0,0.0,0.0,0.0,0.0,0.0,0.0,0.0,0.0,-3.6481,-3.7485,-3.8517,-3.9735,-4.0437,-4.064,-4.0189,-4.0157,-3.9239,-3.7107,-3.5147,0.0,0.0,0.0,0.0,0.0,0.0,0.0,0.0,0.0,0.0,0.0,0.0,0.0,0.0,0.0,0.0,0.0,0.0,0.0,0.0,0.0,0.0,0.0,0.0,0.0,0.0,0.0,0.0,0.0,0.0,0.0,0.0,0.0,0.0,0.0,0.0,0.0,0.0,0.0,0.0,0.0,0.0,0.0,0.0,0.0,0.0,0.0,0.0,0.0,0.0,0.0,0.0,0.0,0.0,0.0,0.0,0.0,0.0,0.0,-4.455,-4.3602,0.0,0.0,0.0,0.0,0.0,0.0,0.0,0.0,0.0,0.0,0.0,0.0,0.0,0.0,0.0,0.0,0.0,0.0,0.0,0.0,0.0,0.0,0.0,0.0,0.0,0.0,0.0,0.0,0.0,0.0,0.0,0.0,0.0,0.0,0.0,0.0,0.0,0.0,0.0,0.0,-3.6845,-3.7224,-3.7826,-3.922,-3.9807,-3.9892,-3.9365,-3.968,-3.9038,-3.7052,-3.533,0.0,0.0,0.0,0.0,0.0,0.0,0.0,0.0,0.0,0.0,0.0,0.0,0.0,0.0,0.0,0.0,0.0,0.0,0.0,0.0,0.0,0.0,0.0,0.0,0.0,0.0,0.0,0.0,0.0,0.0,0.0,0.0,0.0,0.0,0.0,0.0,0.0,0.0,0.0,0.0,0.0,0.0,0.0,0.0,0.0,0.0,0.0,0.0,0.0,0.0,0.0,0.0,0.0,-4.8317,-4.8759,-4.8798,-4.951,-4.9837,-4.9673,-4.682,-4.6213,-4.7074,-4.5009,0.0,0.0,0.0,0.0,0.0,0.0,0.0,0.0,0.0,0.0,0.0,0.0,0.0,0.0,0.0,0.0,0.0,0.0,0.0,0.0,0.0,0.0,-4.1152,-4.02,-4.1048,-4.1462,-3.9243,0.0,0.0,0.0,0.0,0.0,0.0,0.0,0.0,0.0,0.0,0.0,-3.723,-3.7151,-3.7392,-3.8747,-3.9113,-3.9056,-3.8542,-3.9093,-3.8615,-3.6633,-3.5701,-3.4564,0.0,0.0,0.0,0.0,0.0,0.0,0.0,0.0,0.0,0.0,0.0,0.0,0.0,0.0,0.0,0.0,0.0,0.0,0.0,0.0,0.0,0.0,0.0,0.0,0.0,0.0,0.0,0.0,0.0,0.0,0.0,0.0,-4.4617,-4.4545,0.0,0.0,0.0,0.0,0.0,0.0,0.0,0.0,0.0,0.0,0.0,0.0,0.0,-4.5341,-4.6385,-4.7952,-4.8836,-4.9086,-5.0654,-5.1404,-5.1404,-5.1519,-5.1558,-5.151,-5.0365,0.0,-4.8053,-4.709,0.0,0.0,0.0,0.0,0.0,0.0,0.0,0.0,0.0,0.0,0.0,0.0,0.0,0.0,0.0,0.0,0.0,0.0,0.0,0.0,0.0,0.0,-4.2031,-4.1191,-4.1081,-4.1074,-4.0715,-3.9828,-3.9032,-3.8916,-3.761,-3.6462,0.0,0.0,0.0,0.0,0.0,0.0,-3.7306,-3.666,-3.6581,-3.7908,-3.7299,-3.7,-3.7621,-3.7768,-3.7676,-3.7364,-3.6578,-3.5697,-3.4729,-3.2577,0.0,0.0,0.0,0.0,0.0,0.0,0.0,0.0,0.0,0.0,0.0,0.0,0.0,0.0,0.0,0.0,0.0,0.0,0.0,0.0,0.0,0.0,0.0,0.0,0.0,0.0,0.0,0.0,0.0,-4.2258,-4.4205,-4.4322,-4.4599,-4.4105,0.0,0.0,0.0,0.0,0.0,0.0,0.0,0.0,0.0,-4.5199,-4.6511,-4.7896,-4.9368,-5.0334,-5.1298,-5.226,-5.251,-5.2895,-5.3337,-5.2856,-5.2635,-5.2596,-5.226,-5.1174,-4.9519,-4.7797,-4.6206,-4.4731,0.0,0.0,0.0,0.0,-4.2617,-4.2676,-4.3164,-4.3086,-4.2676,-4.207,0.0,0.0,0.0,0.0,0.0,0.0,0.0,-4.0488,-4.0605,-4.1504,-4.2304,-4.1905,-4.2144,-4.2319,-4.1741,-4.0831,-4.0001,-3.9506,-3.8318,-3.7276,-3.6769,-3.6038,0.0,0.0,0.0,-3.5768,-3.6511,-3.619,-3.6175,-3.6919,-3.6583,-3.6431,-3.6813,-3.7235,-3.7492,-3.7492,-3.718,-3.6597,-3.5771,-3.4252,-3.3151,0.0,0.0,0.0,0.0,0.0,0.0,0.0,0.0,0.0,0.0,0.0,0.0,0.0,0.0,0.0,0.0,0.0,0.0,0.0,0.0,0.0,0.0,0.0,0.0,0.0,0.0,0.0,0.0,-4.3272,-4.4649,-4.4545,-4.5587,-4.5606,0.0,0.0,0.0,0.0,0.0,0.0,-4.4378,-4.5243,-4.6203,-4.7301,-4.8715,-5.0257,-5.1917,-5.2457,-5.3321,-5.4491,-5.3837,-5.376,-5.4145,-5.351,-5.3087,-5.2856,-5.2645,-5.1722,-5.0221,-4.8415,-4.6965,-4.5731,-4.4429,-4.3806,-4.3689,-4.3691,-4.3848,-4.4121,-4.4785,-4.5,-4.4785,-4.3496,-4.2617,-4.1738,-3.9844,0.0,0.0,0.0,0.0,-4.0371,-4.1035,-4.1445,-4.1694,-4.1651,-4.1935,-4.2016,-4.1253,-4.0339,-3.9615,-3.9437,-3.8453,-3.7469,-3.6808,-3.6038,0.0,-3.55,-3.55,-3.5603,-3.5878,-3.5711,-3.5698,-3.5933,-3.5771,-3.5734,-3.5954,-3.6721,-3.729,-3.7492,-3.7694,-3.7364,-3.634,-3.5463,-3.4344,-3.2931,0.0,0.0,0.0,0.0,0.0,0.0,0.0,0.0,0.0,0.0,0.0,0.0,0.0,0.0,0.0,0.0,0.0,0.0,0.0,0.0,0.0,0.0,0.0,0.0,0.0,0.0,0.0,0.0,0.0,-4.6472,-4.8756,0.0,0.0,0.0,0.0,-4.5718,-4.5718,-4.6067,-4.6874,-4.6966,-4.7905,-4.9851,-5.0811,-5.203,-5.3651,-5.451,-5.4783,-5.4491,-5.4453,-5.403,-5.326,-5.3222,-5.275,-5.1923,-5.1164,-5.0298,-4.9471,-4.9475,-4.8021,-4.5732,-4.5011,-4.4272,-4.3617,-4.3689,-4.4219,-4.4941,-4.498,-4.5,-4.498,-4.4902,-4.3223,-4.123,-4.1113,-4.0488,0.0,0.0,-4.0508,-4.1133,-4.1191,-4.052,-3.9834,-3.9831,-3.9126,-3.8456,-3.8412,-3.7603,-3.7391,-3.9063,-3.7964,-3.675,-3.6712,0.0,-3.55,-3.55,-3.55,-3.5603,-3.5878,-3.5231,-3.4836,-3.5037,-3.438,-3.4247,-3.5004,-3.5862,-3.6703,-3.7456,-3.8212,-3.7936,-3.6358,-3.5463,-3.4601,-3.3752,-3.2228,0.0,0.0,0.0,0.0,0.0,0.0,0.0,0.0,0.0,0.0,0.0,0.0,0.0,0.0,0.0,0.0,0.0,0.0,0.0,0.0,0.0,0.0,0.0,0.0,0.0,0.0,0.0,0.0,-4.6621,-4.9535,0.0,-4.8182,-4.8145,-4.8251,-4.8214,-4.8251,-4.8618,-4.9444,-4.9976,-5.0331,-5.0543,-5.1621,-5.258,-5.3413,-5.347,-5.3826,-5.4491,-5.3356,-5.2654,-5.2327,-5.126,-5.0587,-5.024,-4.9394,-4.8567,-4.7778,-4.784,-4.7349,-4.6506,-4.5742,-4.5352,-4.5209,-4.515,-4.5073,-4.498,-4.4892,-4.4564,-4.4062,-4.3516,-4.2363,-4.1191,-4.1191,-4.0976,-4.0742,-4.0742,-4.0566,-4.0351,-4.0351,-3.9621,-3.8846,-3.8806,-3.8481,-3.802,-3.7366,-3.696,-3.674,-3.6878,-3.6363,-3.6096,-3.6615,-3.6038,-3.55,-3.55,-3.55,-3.5465,-3.5408,-3.4983,-3.4642,-3.4513,-3.4068,-3.3917,-3.4197,-3.4986,-3.5591,-3.5866,-3.6688,-3.6652,-3.55,-3.5169,-3.4124,-3.2296,-3.2192,-3.1549,0.0,0.0,0.0,0.0,0.0,0.0,0.0,0.0,0.0,0.0,0.0,0.0,0.0,0.0,0.0,0.0,0.0,0.0,0.0,0.0,0.0,0.0,0.0,0.0,0.0,-4.6075,-4.792,-4.6993,-5.022,-5.1758,-4.979,-5.0598,-5.1237,-5.1149,-5.1187,-5.1316,-5.161,-5.2123,-5.2032,-5.1224,-5.1987,-5.2454,-5.2597,-5.2461,-5.2749,-5.3401,-5.2104,-5.1337,-5.101,-4.9606,-4.8952,-4.8913,-4.8067,-4.7394,-4.6885,-4.6586,-4.6499,-4.6479,-4.5989,-4.5869,-4.5986,-4.5916,-4.5478,-4.4844,-4.4514,-4.3892,-4.3164,-4.2598,-4.1855,-4.1191,-4.1191,-4.1191,-4.1191,-4.1191,-4.0566,-3.9902,-3.9902,-3.8911,-3.792,-3.7864,-3.7565,-3.703,-3.6054,-3.5853,-3.5603,-3.4769,-3.4865,-3.5238,-3.5757,-3.5411,-3.5064,-3.5064,-3.5308,-3.5391,-3.513,-3.4944,-3.4675,-3.4253,-3.4043,-3.3902,-3.382,-3.4546,-3.5004,-3.5004,-3.5826,-3.5789,-3.4637,-3.4857,-3.3995,-3.1843,-3.2063,-3.1274,-2.9409,0.0,0.0,0.0,0.0,0.0,0.0,0.0,0.0,0.0,0.0,0.0,0.0,0.0,0.0,0.0,0.0,0.0,0.0,0.0,0.0,0.0,0.0,0.0,-4.4818,-4.7208,-4.8753,-4.7851,-5.1099,-5.3067,-5.2131,-5.3513,-5.446,-5.4371,-5.4341,-5.4014,-5.3243,-5.3185,-5.2821,-5.1977,-5.1958,-5.176,-5.1354,-5.1716,-5.1694,-5.1261,-5.0839,-5.0202,-4.9336,-4.8471,-4.8067,-4.8029,-4.7221,-4.6846,-4.6797,-4.5951,-4.5594,-4.5612,-4.574,-4.5796,-4.5803,-4.5847,-4.533,-4.4518,-4.3765,-4.3014,-4.2344,-4.2324,-4.1816,-4.1191,-4.1133,-4.1133,-4.1152,-4.1133,-4.0488,-3.9824,-3.9824,-3.8408,-3.6962,-3.6923,-3.6177,-3.5218,-3.4359,-3.4167,-3.3917,-3.3064,-3.3564,-3.4129,-3.4167,-3.4167,-3.4167,-3.4205,-3.493,0.0,-3.513,-3.5096,-3.4851,-3.4258,-3.4188,-3.4074,-3.3815,-3.4509,-3.4949,-3.4931,-3.5734,-3.544,-3.3788,-3.4491,-3.4197,-3.2619,-3.1751,-3.0962,-3.0222,0.0,0.0,0.0,0.0,0.0,0.0,0.0,0.0,0.0,0.0,0.0,0.0,0.0,0.0,0.0,0.0,0.0,0.0,0.0,0.0,0.0,-4.535,-4.7212,-4.7022,-4.9086,-5.0706,-5.098,-5.2943,-5.3931,-5.3113,-5.393,-5.423,-5.359,-5.3533,-5.3424,-5.3203,-5.3185,-5.2564,-5.1169,-5.1132,-5.093,-5.0533,-5.0,-4.9977,-5.0416,-4.9679,-4.9031,-4.8432,-4.7605,-4.7231,-4.7182,-4.6336,-4.5951,-4.5932,-4.571,-4.5594,-4.5603,-4.5643,-4.5723,-4.5712,-4.4991,-4.3879,-4.2629,-4.184,-4.1498,-4.1288,-4.0644,-4.0794,-4.0957,-3.9707,-3.9766,-4.0137,-3.9492,-3.8691,-3.8008,-3.8008,-3.7115,-3.6029,-3.5356,-3.4906,-3.4384,-3.3461,-3.3256,-3.3179,-3.2949,-3.2622,-3.2564,-3.316,-3.3256,-3.3468,-3.4109,-3.4391,-3.4688,-3.5054,-3.4935,-3.4655,-3.4235,-3.4018,-3.3876,-3.382,-3.4009,-3.388,-3.3298,-3.3482,-3.3146,-3.2113,-3.2821,-3.3041,-3.2601,-3.0656,-2.9984,0.0,0.0,0.0,0.0,0.0,0.0,0.0,0.0,0.0,0.0,0.0,0.0,0.0,0.0,0.0,0.0,0.0,0.0,0.0,0.0,0.0,0.0,-4.7094,-4.9407,-4.9712,-5.0862,-5.1944,-5.2706,-5.3591,-5.394,-5.3506,-5.4083,-5.4143,-5.3309,-5.3517,-5.3573,-5.3203,-5.3185,-5.2472,-5.0857,-5.0802,-5.0354,-4.9398,-4.8737,-4.8634,-4.9088,-4.8029,-4.7464,-4.7317,-4.6502,-4.6215,-4.6336,-4.5825,-4.5594,-4.5594,-4.5594,-4.5594,-4.5594,0.0,0.0,0.0,0.0,-4.2729,-4.1891,-4.1048,-4.061,-4.032,-3.9854,-3.9842,-3.9859,-3.8886,-3.8945,-3.9258,-3.873,-3.7969,-3.7226,-3.6855,-3.6066,-3.5133,-3.4204,-3.3868,-3.3514,-3.2624,-3.242,-3.2295,-3.1929,-3.1481,0.0,-3.1295,-3.191,-3.2564,-3.3083,-3.343,-3.3774,-3.414,-3.3959,-3.3828,-3.3861,-3.3621,-3.3559,-3.3784,-3.3807,0.0,0.0,0.0,-3.2247,-3.1433,-3.1531,0.0,0.0,0.0,-2.9862,-3.0539,-3.0067,0.0,0.0,-3.2047,-3.2138,0.0,0.0,0.0,0.0,0.0,0.0,0.0,0.0,0.0,0.0,0.0,0.0,0.0,0.0,0.0,0.0,-4.866,-5.1409,-5.2134,-5.2352,-5.2672,-5.3298,-5.3365,-5.3325,-5.3263,-5.3766,-5.3841,-5.3113,-5.3731,-5.3814,-5.3118,-5.3072,0.0,0.0,0.0,-4.9774,-4.8196,-4.7731,-4.7467,-4.7404,-4.6275,-4.5855,-4.6092,-4.541,-4.5243,-4.5495,-4.5568,-4.5577,-4.555,-4.5586,-4.5537,-4.546,-4.546,-4.4883,-4.3835,-4.2354,-4.175,-4.1577,-4.0809,0.0,0.0,-3.9396,-3.8937,-3.8391,-3.8317,-3.8379,-3.8418,-3.8223,-3.7598,-3.6816,-3.5937,-3.5091,-3.4246,-3.3363,-3.3018,-3.2666,-3.1839,-3.1606,-3.1332,-3.0544,-3.0404,-3.0154,-2.9371,-3.0525,-3.1545,-3.1545,-3.2237,-3.2788,-3.2846,-3.269,-3.2784,-3.3305,-3.3058,0.0,-3.3613,-3.3587,-3.3495,-3.3403,-3.2651,-3.1916,-3.1292,-3.0485,-3.0118,-3.021,-3.0118,-3.0063,-3.0063,-3.0063,-3.0485,-3.1262,-3.1249,-3.1595,0.0,0.0,0.0,0.0,0.0,0.0,0.0,0.0,0.0,0.0,0.0,0.0,0.0,0.0,0.0,-4.5625,-4.8661,-5.1129,-5.1858,-5.2721,-5.3078,-5.2587,-5.2536,-5.2298,-5.1696,-5.174,-5.1766,-5.1623,-5.2183,-5.2498,-5.2312,-5.2254,-5.1793,-5.0839,-4.9499,-4.8324,-4.7333,-4.6599,-4.6055,-4.5693,-4.5435,0.0,-4.4934,-4.5042,-4.4977,-4.4818,-4.5362,-4.5438,-4.5222,-4.5495,-4.519,-4.4547,-4.4547,-4.3624,-4.2239,-4.1923,-4.0954,-3.9798,-3.9625,-3.9097,-3.8365,-3.7676,-3.7884,-3.8152,-3.6811,-3.6947,0.0,-3.5859,-3.5332,-3.5,-3.4121,-3.3769,-3.3395,-3.2478,-3.2223,-3.1929,-3.0967,-3.0732,-3.0665,-3.0446,-3.0404,-3.0346,-3.0173,-3.0423,-3.0654,-3.0654,-3.1385,-3.2084,-3.2523,-3.2546,-3.266,-3.3041,-3.2449,-3.2256,-3.2787,-3.2247,-3.1586,-3.0944,-3.0143,-2.9922,-3.0411,-2.9647,-2.9537,-3.0191,-2.9555,-2.9225,-2.9225,-2.9225,-2.9647,-3.0436,-3.0749,-3.0808,0.0,0.0,0.0,0.0,0.0,0.0,0.0,0.0,0.0,0.0,0.0,-4.1474,-4.1818,0.0,-4.5671,-4.6679,-4.9389,-5.1493,-5.1872,-5.2818,-5.3348,-5.2959,-5.2553,-5.2012,-5.1252,-5.1188,-5.1026,-5.0628,-5.0884,-5.1167,-5.147,-5.1125,-5.048,-4.9571,-4.8746,-4.7719,-4.6526,-4.57,-4.5182,-4.4944,-4.4535,-4.4333,-4.4323,-4.4482,-4.4561,-4.4587,-4.449,-4.4345,-4.4182,-4.4123,-4.3682,-4.3047,-4.3047,-4.2547,-4.1692,-4.0854,-4.0027,-3.9246,-3.8796,-3.811,-3.7391,-3.7016,-3.6938,-3.6855,-3.612,-3.6229,-3.6322,-3.5058,-3.4707,-3.4414,-3.3125,-3.2793,-3.2578,-3.1655,-3.139,-3.1212,-3.0703,-3.0559,-3.0365,-2.9892,-3.0128,-3.0135,-2.9294,-2.9846,-3.0404,-3.0404,-3.041,-3.0649,-3.1351,-3.1336,-3.1485,-3.2081,-3.158,-3.1478,-3.2132,-3.171,-3.1054,-3.0246,-2.9824,-2.9592,-2.9592,-2.8833,-2.8778,-2.9574,-2.8815,-2.8601,-2.9005,-2.8601,-2.8815,-2.9574,-2.8992,-2.9238,0.0,0.0,0.0,0.0,0.0,0.0,0.0,-3.9828,-4.0068,-4.1953,-4.2447,-4.2821,-4.3708,-4.5154,-4.6528,-4.7527,-4.9744,-5.1377,-5.1578,-5.2522,-5.3213,-5.3247,-5.257,-5.1809,-5.1065,-5.0861,-5.0442,-4.9637,-4.973,-4.9958,-5.0289,-4.969,-4.8959,-4.8149,-4.7772,-4.6985,-4.5681,-4.4874,-4.447,-4.447,-4.3809,-4.3646,-4.3912,-4.3971,-4.415,-4.4354,-4.3551,-4.3145,-4.3026,-4.2542,-4.2087,-4.1692,-4.1588,-4.145,-4.1162,-3.9796,-3.9092,-3.8681,-3.7988,-3.7199,-3.6489,-3.6586,-3.6165,-3.5631,-3.5797,-3.575,-3.5518,-3.4859,-3.4453,-3.3906,-3.2559,-3.207,-3.1777,-3.1074,-3.0816,-3.0722,-3.0716,-3.0489,-3.0091,-2.9354,-2.9617,-2.9558,-2.835,-2.9138,-2.9962,-3.0115,-2.9698,-2.9602,-3.0308,-3.0209,-3.0386,-3.1203,-3.0808,-3.0698,-3.1283,-3.0939,-3.0411,-2.9769,-2.9586,-2.9207,-2.8565,-2.7915,-2.7879,-2.8528,-2.7897,-2.7897,-2.8528,-2.7879,-2.7897,-2.8491,-2.7189,-2.778,-3.3278,-3.4844,-3.7411,-3.9233,-3.994,-4.125,0.0,-4.493,-4.4047,-4.5484,-4.6232,-4.6501,-4.6067,-4.6601,-4.7182,-4.7317,-4.8357,-4.9496,-5.0435,-5.1431,-5.2169,-5.2403,-5.1792,-5.1048,-5.0287,-4.9636,-4.8938,-4.8192,-4.8695,-4.8769,-4.8189,-4.7843,-4.7626,-4.7509,-4.5934,-4.5021,-4.4838,-4.403,-4.3626,-4.3626,-4.3551,-4.3513,-4.3582,-4.3865,-4.3849,-4.3592,-4.3066,-4.2621,-4.2188,-4.1667,-4.1408,-4.1304,-4.082,-4.0208,-3.9573,-3.9381,-3.8315,-3.6981,-3.6885,-3.6308,-3.5641,-3.5662,-3.5635,-3.5596,-3.5626,-3.5217,-3.4729,-3.4638,-3.3586,-3.2441,-3.2246,-3.1621,-3.1016,-3.0918,-3.0898,-3.0857,-3.0721,-3.0121,-2.9552,-2.9332,-2.8741,-2.8431,-2.8949,-2.856,-2.8409,-2.9146,-2.9813,-3.0288,-3.0385,-3.0367,-3.0599,-3.1238,-3.0563,-2.995,-2.9685,-2.8772,-2.8165,-2.8062,-2.7402,-2.695,-2.6859,-2.6767,-2.6778,-2.6859,-2.6767,-2.6778,-2.6859,-2.6778,-2.6767,-2.6859,-2.6675,-2.731,-3.5335,-3.6045,-3.7245,-3.9759,-4.0945,-4.2265,-4.4944,-4.4915,-4.4811,-4.6546,-4.7115,-4.7339,-4.7444,-4.7369,-4.7429,-4.7818,-4.8401,-4.8948,-4.9416,-5.0013,-5.07,-5.1338,-5.0443,-4.984,-5.0086,-4.9424,-4.8697,-4.7939,-4.7741,-4.7511,-4.7113,-4.6172,-4.5609,-4.5485,-4.4666,-4.3844,-4.3026,-4.3342,-4.3339,-4.3032,-4.3357,-4.3515,-4.3496,-4.3646,-4.3131,-4.2066,-4.1412,-4.0806,-4.0333,-4.0114,-4.0136,-4.0257,-3.9719,-3.9006,-3.8276,-3.8462,-3.7757,-3.6635,-3.6154,-3.5788,-3.55,-3.55,-3.5515,-3.5552,-3.5585,-3.5042,-3.4347,-3.391,-3.295,-3.1963,-3.1456,-3.1111,-3.0898,-3.0898,-3.0898,-3.0742,-3.0172,-2.9751,-2.9185,-2.8111,-2.7993,-2.8147,-2.8457,-2.8588,-2.8762,-2.9061,-2.941,-2.964,-2.964,-3.0096,-3.0433,-3.0528,-3.0228,-2.9885,-2.9598,-2.8583,-2.7968,-2.7968,-2.7111,-2.6602,-2.6602,-2.6153,-2.6117,-2.6583,-2.6135,-2.6135,-2.6602,-2.6135,-2.6135,-2.6583,-2.564,-2.5989,-3.5556,-3.6209,-3.7153,-3.9591,-4.134,-4.2796,-4.4284,-4.4596,-4.5137,-4.6909,-4.7309,-4.7459,-4.7923,-4.7623,-4.7459,-4.7938,-4.8238,-4.8486,-4.8743,-4.8883,-4.9358,-5.0361,-4.9434,-4.8995,-4.9734,-4.9137,-4.8392,-4.7665,-4.6921,-4.6255,-4.5765,-4.4664,-4.3913,-4.3575,-4.339,-4.2836,-4.181,-4.262,-4.2847,-4.246,-4.2995,-4.3268,-4.3286,-4.3207,-4.2415,-4.1058,-4.0249,-3.9555,-3.898,-3.8816,-3.8901,-3.9072,-3.8559,-3.7861,-3.7192,-3.7447,-3.704,-3.625,-3.5423,-3.5308,-3.5462,-3.5212,-3.5135,-3.5142,-3.5209,-3.4457,-3.3558,-3.3258,-3.2422,-3.1517,-3.1125,-3.094,-3.0798,-3.0564,-3.0527,-3.0293,-2.9434,-2.9019,-2.8443,-2.7175,-2.7201,-2.747,-2.767,-2.8159,-2.8666,-2.9061,-2.9137,-2.9049,-2.8805,-2.9313,-2.9651,-2.9448,-2.9348,-2.9232,-2.9024,-2.8034,-2.7419,-2.7361,-2.646,-2.5952,-2.5952,-2.5393,-2.5338,-2.5933,-2.5374,-2.5356,-2.5952,-2.5356,-2.5374,-2.5915,-2.474,-2.4774,-3.2344,-3.4379,-3.6919,-3.8719,-4.0814,-4.3027,-4.4932,-4.5362,-4.5751,-4.7047,-4.7309,-4.7309,-4.7339,-4.7309,-4.7309,-4.7339,-4.7352,-4.7679,-4.8677,-4.8236,-4.8324,-4.9583,-4.9137,-4.8796,-4.8993,-4.8376,-4.7631,-4.6887,-4.616,-4.5077,-4.3582,-4.3323,-4.2923,-4.2185,-4.1965,-4.1849,-4.181,-4.1814,-4.1835,-4.1814,-4.244,-4.2713,-4.2714,-4.2446,-4.1882,-4.1058,-4.0249,-3.9457,-3.8661,-3.8145,-3.7951,-3.7896,-3.7431,-3.6871,-3.6334,-3.6342,-3.6017,-3.5404,-3.4545,-3.4795,-3.5365,-3.4507,-3.4244,-3.4244,-3.425,-3.3139,-3.2048,-3.286,-3.1907,-3.0823,-3.1646,-3.1287,-3.0501,-2.9739,-2.9583,-2.9394,-2.8535,-2.7676,-2.7051,-2.7012,-2.6281,-2.5949,-2.6783,-2.6896,-2.7408,-2.896,-2.9195,-2.8888,-2.8046,-2.7953,-2.7967,-2.7962,-2.7739,-2.7483,-2.7296,-2.635,-2.5681,-2.5496,-2.4713,-2.4263,-2.4263,-2.4245,-2.4245,-2.4263,-2.4245,-2.4245,-2.4263,-2.4245,-2.4245,-2.4263,-2.4226,-2.4052,-3.3131,-3.5104,-3.7505,-3.9667,-4.1058,-4.2315,-4.3793,-4.478,-4.5539,-4.5973,-4.5633,-4.5454,-4.5888,-4.5618,-4.5469,-4.5903,-4.6726,-4.7424,-4.7764,-4.7231,-4.7038,-4.7653,-4.713,-4.7084,-4.7984,-4.797,-4.7597,-4.6853,-4.5652,-4.4502,-4.3443,-4.243,-4.1759,-4.152,-4.1312,-4.1036,-4.0689,-4.142,-4.1599,-4.1223,-4.1793,-4.1998,-4.1827,-4.1198,-4.0682,-4.0267,-3.9441,-3.8652,-3.7878,-3.7712,-3.7312,-3.6782,-3.6273,-3.5946,-3.5727,-3.5369,-3.4865,-3.4355,-3.4236,-3.4398,-3.4584,-3.4302,-3.4205,-3.4205,-3.4205,-3.341,-3.2488,-3.2249,-3.1376,-3.0595,-3.089,-3.0416,-2.9771,-2.9496,-2.9048,-2.8428,-2.7569,-2.7185,-2.6836,-2.625,-2.5878,-2.5931,-2.6751,-2.736,-2.7885,-2.8334,-2.8376,-2.8424,-2.867,-2.7736,-2.7255,-2.7838,-2.7827,-2.7737,-2.7663,-2.6699,-2.6012,-2.5814,-2.4925,-2.4348,-2.4218,-2.419,-2.419,-2.419,-2.419,-2.419,-2.419,-2.419,-2.419,-2.419,-2.419,-2.4141,-3.4424,-3.5956,-3.7731,-3.9866,-4.0672,-4.1269,-4.2558,-4.3291,-4.3979,-4.4877,-4.4121,-4.3601,-4.443,-4.4257,-4.4047,-4.4212,-4.5364,-4.6322,-4.6561,-4.5828,-4.5705,-4.6923,-4.6036,-4.6055,-4.7783,-4.738,-4.6945,-4.679,-4.5444,-4.4113,-4.3064,-4.1863,-4.1085,-4.0815,-4.0681,-4.0449,-4.0096,-4.0838,-4.1105,-4.0903,-4.1033,-4.112,-4.1127,-4.022,-3.9749,-3.9562,-3.8664,-3.7988,-3.7456,-3.6835,-3.6303,-3.5766,-3.5145,-3.4959,-3.4969,-3.4322,-3.3912,-3.3657,-3.3616,-3.3665,-3.3686,-3.3391,-3.3314,-3.3314,-3.3314,-3.2699,-3.191,-3.1385,-3.0863,-3.0453,-3.0453,-3.0136,-2.9632,-2.9046,-2.8523,-2.7849,-2.6693,-2.6474,-2.6346,-2.5801,-2.5703,-2.5859,-2.6376,-2.7165,-2.7706,-2.7629,-2.7551,-2.7566,-2.7708,-2.6794,-2.6346,-2.6909,-2.6967,-2.6951,-2.6864,-2.6235,-2.5754,-2.5574,-2.4959,-2.4561,-2.4428,-2.4358,-2.4312,-2.4312,-2.4237,-2.419,-2.419,-2.419,-2.419,-2.419,-2.419,-2.419,-3.6028,-3.6895,-3.7701,-3.9295,-3.9697,-4.0019,-4.118,-4.1129,-4.1415,-4.3638,-4.2697,-4.1773,-4.2798,-4.3155,-4.3075,-4.2455,-4.3524,-4.4691,-4.5304,-4.4347,-4.4574,-4.7259,-4.5951,-4.5761,-4.8153,-4.6536,-4.5717,-4.6667,-4.5382,-4.3887,-4.2371,-4.1593,-4.0849,-4.013,-4.0096,-4.0096,-4.0096,-4.0096,-4.036,-4.0856,-4.0112,-4.0049,-4.0554,-3.9495,-3.8995,-3.894,-3.7885,-3.7411,-3.7279,-3.5636,-3.4972,-3.4857,-3.4064,-3.3924,-3.4083,-3.3227,-3.3101,-3.3233,-3.2626,-3.2591,-3.2686,-3.1924,-3.168,-3.1686,-3.1686,-3.1103,-3.043,-3.0398,-3.0404,-3.0404,-3.0404,-3.0413,-3.0025,-2.8386,-2.8002,-2.7578,-2.5938,-2.5599,-2.5629,-2.5683,-2.5703,-2.5703,-2.5762,-2.6358,-2.6845,-2.6883,-2.6805,-2.6401,-2.5485,-2.5337,-2.5293,-2.5308,-2.5308,-2.5219,-2.5028,-2.5016,-2.4968,-2.4825,-2.4818,-2.4811,-2.4804,-2.4615,-2.452,-2.452,-2.4321,-2.4209,-2.4209,-2.4218,-2.419,-2.419,-2.419,-2.419,-3.686,-3.799,-3.9157,-3.9584,-3.9697,-3.9674,-3.9601,-4.0242,-4.059,-3.9983,-3.962,-3.9289,-3.8708,-4.0408,-4.1833,-4.1692,-4.4392,-4.6591,-4.677,-4.6516,-4.6196,-4.5947,-4.5475,-4.5343,-4.574,-4.4811,-4.4653,-4.5686,-4.4481,-4.3301,-4.2337,-4.1593,-4.0849,-4.013,-4.0096,-4.0096,-4.0096,-4.0096,-4.0171,-4.0311,-3.9562,-3.9186,-3.9112,-3.8262,-3.7829,-3.7646,-3.6756,-3.6227,-3.5926,-3.4963,-3.4379,-3.4027,-3.322,-3.3309,-3.3718,-3.233,-3.1978,-3.2102,-3.134,-3.1359,-3.1656,-3.1301,-3.1272,-3.1391,-3.1391,-3.1257,-3.0972,-3.0522,-3.0404,-3.0404,-3.0404,-2.9938,-2.92,-2.8173,-2.7471,-2.6759,-2.5686,-2.5537,-2.5604,-2.561,-2.5661,-2.5918,-2.6562,-2.6308,-2.6206,-2.6815,-2.6334,-2.6015,-2.6312,-2.577,-2.5354,-2.5317,-2.5308,-2.5274,-2.5224,-2.5219,-2.5141,-2.4955,-2.4943,-2.4904,-2.4804,-2.4753,-2.4723,-2.4723,-2.4528,-2.4409,-2.4409,-2.4266,-2.419,-2.419,-2.419,-2.419,-3.7852,-3.8793,-3.9697,-3.9697,-3.9509,-3.912,-3.8366,-3.8299,-3.8202,-3.7307,-3.6592,-3.6207,-3.6517,-3.8647,-4.0402,-4.0487,-4.3599,-4.6097,-4.6381,-4.6172,-4.5933,-4.5768,-4.5229,-4.4841,-4.4807,-4.3898,-4.3603,-4.4334,-4.3449,-4.2707,-4.232,-4.1288,-4.0536,-4.0113,-4.0096,-4.0096,-4.0096,-4.0096,-3.9943,-3.9622,-3.887,-3.8258,-3.7785,-3.7275,-3.6942,-3.6792,-3.5878,-3.5367,-3.5109,-3.4033,-3.3352,-3.2994,-3.2903,-3.283,-3.2632,-3.1727,-3.1274,-3.0972,-3.0176,-3.0147,-3.0455,-3.0429,-3.0507,-3.0606,-3.0606,-3.067,-3.0665,-3.0323,-3.0311,-3.0404,-3.0404,-3.0038,-2.9371,-2.8184,-2.7562,-2.6889,-2.5666,-2.5462,-2.5535,-2.5595,-2.5633,-2.5818,-2.6348,-2.6016,-2.5859,-2.6303,-2.5969,-2.5779,-2.6164,-2.5748,-2.5387,-2.5357,-2.5322,-2.5308,-2.5308,-2.5308,-2.5259,-2.5146,-2.5122,-2.5101,-2.5012,-2.4923,-2.4884,-2.4884,-2.4628,-2.4503,-2.4503,-2.4303,-2.419,-2.419,-2.419,-2.419,-3.8843,-3.9333,-3.9672,-3.9597,-3.922,-3.858,-3.7262,-3.6232,-3.5413,-3.5103,-3.387,-3.3348,-3.5056,-3.7224,-3.8906,-3.9416,-4.2204,-4.4601,-4.5454,-4.5065,-4.508,-4.6067,-4.5155,-4.4453,-4.4464,-4.3306,-4.2587,-4.2777,-4.213,-4.1803,-4.1963,-4.0785,-4.0096,-4.0113,-4.0096,-4.0096,-4.0096,-4.0011,-3.969,-3.9123,-3.8193,-3.7466,-3.6914,-3.6487,-3.6291,-3.6226,-3.5103,-3.4658,-3.4588,-3.3035,-3.2273,-3.2139,-3.279,-3.2478,-3.1609,-3.1335,-3.087,-3.0228,-2.9317,-2.9156,-2.9392,-2.9561,-2.9634,-2.9661,-2.9661,-2.978,-2.9931,-2.9954,-3.0122,-3.0286,-3.0214,-3.0182,-2.9765,-2.8115,-2.7741,-2.7305,-2.5727,-2.5391,-2.5434,-2.5559,-2.5594,-2.5605,-2.5682,-2.5683,-2.5683,-2.5703,-2.5703,-2.5683,-2.563,-2.5496,-2.5418,-2.5402,-2.5357,-2.5303,-2.5308,-2.5308,-2.5308,-2.5308,-2.5308,-2.5308,-2.5308,-2.5122,-2.5034,-2.5034,-2.473,-2.4559,-2.4545,-2.4348,-2.4228,-2.419,-2.419,-2.419,-3.9521,-3.9622,-3.9584,-3.9132,-3.8994,-3.8329,-3.6248,-3.5633,-3.4884,-3.2608,-3.2497,-3.2644,-3.2115,-3.4938,-3.7901,-3.961,-4.2361,-4.493,-4.6711,-4.686,-4.6456,-4.5574,-4.5274,-4.4518,-4.2958,-4.2085,-4.148,-4.1143,-3.9935,-3.9534,-4.0278,-4.0179,-4.0114,-4.0087,-4.0096,-4.0096,-4.0096,-3.9503,-3.9411,-3.9893,-3.7929,-3.7229,-3.7669,-3.6339,-3.5739,-3.5654,-3.4248,-3.3851,-3.4085,-3.2576,-3.2126,-3.24,-3.226,-3.2488,-3.2679,-3.1015,-3.0742,-3.098,-2.95,-2.904,-2.9078,-2.9104,-2.927,-2.9454,-2.9454,-2.9483,-2.9542,-2.9713,-2.979,-2.9712,-2.922,-2.9089,-2.8702,-2.7185,-2.6832,-2.6549,-2.5548,-2.5363,-2.5421,-2.5493,-2.5526,-2.5543,-2.5604,-2.5628,-2.5635,-2.5683,-2.5703,-2.5703,-2.5683,-2.5607,-2.5511,-2.5408,-2.5387,-2.5354,-2.5293,-2.5308,-2.5308,-2.5308,-2.5308,-2.5308,-2.5308,-2.5269,-2.5253,-2.5253,-2.5036,-2.4871,-2.4746,-2.4553,-2.4357,-2.419,-2.419,-2.419,-3.9697,-3.9697,-3.9559,-3.9007,-3.8429,-3.7412,-3.5203,-3.4191,-3.3151,-3.1009,-3.0927,-3.1229,-3.1211,-3.3987,-3.6769,-3.8216,-4.1189,-4.3868,-4.5514,-4.6037,-4.6022,-4.5364,-4.5289,-4.4392,-4.2111,-4.1602,-4.0889,-3.9614,-3.8564,-3.8376,-3.9328,-3.9066,-3.9067,-3.9463,-3.9489,-3.9662,-4.0113,-3.9757,-3.9343,-3.8937,-3.7872,-3.7144,-3.6664,-3.5938,-3.56,-3.5515,-3.4027,-3.3535,-3.3624,-3.2102,-3.1509,-3.1532,-3.1785,-3.166,-3.1253,-3.0712,-3.0348,-3.0044,-2.9262,-2.9005,-2.9005,-2.9005,-2.9078,-2.9181,-2.9181,-2.9289,-2.9414,-2.9523,-2.9315,-2.9011,-2.8726,-2.8406,-2.7892,-2.6724,-2.6184,-2.5808,-2.5385,-2.5336,-2.5375,-2.5431,-2.545,-2.5474,-2.5541,-2.559,-2.5606,-2.5637,-2.5682,-2.5703,-2.5703,-2.5662,-2.5607,-2.5505,-2.546,-2.5421,-2.5359,-2.535,-2.5344,-2.5293,-2.5308,-2.5308,-2.5308,-2.5308,-2.5308,-2.5308,-2.5099,-2.4968,-2.4904,-2.4734,-2.4543,-2.4348,-2.4348,-2.4303,-3.9659,-3.9697,-3.9534,-3.8856,-3.7927,-3.6571,-3.4248,-3.2943,-3.175,-3.0131,-2.9792,-3.0037,-3.0758,-3.2936,-3.5113,-3.6473,-3.9241,-4.1909,-4.3813,-4.4661,-4.5095,-4.5095,-4.5214,-4.4257,-4.1624,-4.1422,-4.0583,-3.8542,-3.7659,-3.7565,-3.837,-3.7859,-3.7876,-3.8635,-3.8827,-3.9193,-3.9833,-3.9699,-3.9123,-3.8142,-3.7652,-3.685,-3.5836,-3.5667,-3.56,-3.5515,-3.4027,-3.3406,-3.3288,-3.1799,-3.1013,-3.0798,-3.151,-3.1091,-3.0144,-3.0697,-3.0274,-2.9363,-2.918,-2.9063,-2.9005,-2.9005,-2.9005,-2.9005,-2.9005,-2.9156,-2.931,-2.931,-2.8848,-2.832,-2.8183,-2.768,-2.6989,-2.6167,-2.5604,-2.5248,-2.5248,-2.5269,-2.5317,-2.5371,-2.5387,-2.5402,-2.5477,-2.5511,-2.5561,-2.5588,-2.5635,-2.5683,-2.5683,-2.5683,-2.5683,-2.5632,-2.5559,-2.5486,-2.5428,-2.5421,-2.5398,-2.534,-2.5312,-2.5317,-2.5308,-2.5308,-2.5308,-2.5308,-2.5146,-2.504,-2.5004,-2.4891,-2.4741,-2.4559,-2.4559,-2.4452,-3.9559,-3.9697,-3.9433,-3.8354,-3.7626,-3.6471,-3.3771,-3.2667,-3.175,-3.0131,-2.9792,-2.983,-2.9895,-3.0863,-3.2522,-3.527,-3.673,-3.8888,-4.2827,-4.3947,-4.4407,-4.4407,-4.493,-4.4257,-4.1624,-4.1422,-4.0583,-3.8542,-3.7255,-3.665,-3.68,-3.6768,-3.7084,-3.7863,-3.8553,-3.8935,-3.9016,-3.8396,-3.8379,-3.887,-3.6806,-3.6129,-3.666,-3.5943,-3.56,-3.5515,-3.4027,-3.3406,-3.3288,-3.1799,-3.1196,-3.1189,-3.1642,-3.1722,-3.1568,-3.1344,-3.099,-3.0531,-2.9791,-2.9306,-2.9005,-2.9005,-2.9005,-2.9005,-2.9005,-2.9028,-2.9051,-2.9051,-2.8467,-2.7743,-2.7186,-2.6459,-2.5716,-2.5084,-2.498,-2.5028,-2.5028,-2.5168,-2.5308,-2.5303,-2.5303,-2.5326,-2.5406,-2.5411,-2.5444,-2.5491,-2.5563,-2.5605,-2.5605,-2.5661,-2.5703,-2.5683,-2.5633,-2.5561,-2.5508,-2.5481,-2.5451,-2.5402,-2.5398,-2.5352,-2.5293,-2.5308,-2.5308,-2.5308,-2.5274,-2.5173,-2.5004,-2.4992,-2.4917,-2.4775,-2.4775,-2.4662,-3.8956,-3.9433,-3.9421,-3.8278,-3.7098,-3.5655,-3.3545,-3.2127,-3.0972,-2.9993,-2.9792,-2.9792,-2.9792,-3.0558,-3.1763,-3.35,-3.493,-3.6859,-3.9906,-4.0935,-4.1803,-4.3,-4.3374,-4.3159,-4.2111,-4.1647,-4.0382,-3.7973,-3.6985,-3.6343,-3.5957,-3.5943,-3.629,-3.7054,-3.7365,-3.7958,-3.8881,-3.8645,-3.8447,-3.8328,-3.7432,-3.6671,-3.6079,-3.5735,-3.5346,-3.4878,-3.3863,-3.3152,-3.2666,-3.1613,-3.119,-3.121,-3.1389,-3.1273,-3.1062,-3.0941,-3.0379,-2.9679,-2.9344,-2.8832,-2.8352,-2.8352,-2.8464,-2.8682,-2.8929,-2.9005,-2.8895,-2.84,-2.8044,-2.7526,-2.6304,-2.5495,-2.4955,-2.4828,-2.4842,-2.4871,-2.4871,-2.5005,-2.5111,-2.5111,-2.5214,-2.5303,-2.5339,-2.5364,-2.5417,-2.5434,-2.5506,-2.5556,-2.5599,-2.5611,-2.5659,-2.5703,-2.5682,-2.5634,-2.5563,-2.5559,-2.5539,-2.5454,-2.5468,-2.5431,-2.5371,-2.5363,-2.5348,-2.5308,-2.5308,-2.5264,-2.5173,-2.5173,-2.5082,-2.493,-2.493,-2.483,-3.7877,-3.8655,-3.8969,-3.8002,-3.6521,-3.4868,-3.342,-3.18,-3.0457,-2.9905,-2.9792,-2.9792,-2.9792,-3.0343,-3.1082,-3.2033,-3.3145,-3.4754,-3.7343,-3.8269,-3.9387,-4.1294,-4.1707,-4.1826,-4.1826,-4.119,-3.9858,-3.7584,-3.6836,-3.6207,-3.5549,-3.5504,-3.5718,-3.6244,-3.6508,-3.7034,-3.7906,-3.7932,-3.762,-3.6945,-3.6939,-3.6357,-3.5299,-3.5279,-3.4996,-3.4438,-3.3491,-3.278,-3.2242,-3.1495,-3.119,-3.119,-3.119,-3.1028,-3.0742,-3.0536,-2.9901,-2.9119,-2.8908,-2.8417,-2.7897,-2.7897,-2.8061,-2.8267,-2.8324,-2.8645,-2.8822,-2.8026,-2.7467,-2.677,-2.5393,-2.4737,-2.4444,-2.4583,-2.467,-2.4716,-2.4716,-2.483,-2.4949,-2.4998,-2.5111,-2.5224,-2.5279,-2.5339,-2.5371,-2.5371,-2.5425,-2.5498,-2.5522,-2.5558,-2.5599,-2.5661,-2.5662,-2.5664,-2.5635,-2.5633,-2.5602,-2.552,-2.5537,-2.5491,-2.5434,-2.5431,-2.5406,-2.5326,-2.5321,-2.5322,-2.5308,-2.5308,-2.5224,-2.5094,-2.5094,-2.5005,-3.6282,-3.7211,-3.7889,-3.7324,-3.5956,-3.4449,-3.3332,-3.18,-3.0457,-2.9905,-2.9792,-2.9792,-2.9792,-2.9792,-3.0101,-3.1082,-3.1217,-3.2343,-3.5583,-3.6599,-3.7609,-3.9256,-4.0023,-4.0427,-4.0427,-3.9828,-3.8871,-3.7509,-3.6836,-3.6207,-3.5549,-3.5504,-3.5504,-3.5504,-3.6228,-3.629,-3.5638,-3.57,-3.5401,-3.4733,-3.4685,-3.4616,-3.4607,-3.4544,-3.4506,-3.4404,-3.2953,-3.231,-3.2242,-3.1495,-3.119,-3.119,-3.119,-3.121,-3.1108,-3.0362,-2.9842,-2.9384,-2.8657,-2.8176,-2.7897,-2.7897,-2.7911,-2.777,-2.7036,-2.783,-2.8822,-2.8026,-2.666,-2.5246,-2.441,-2.4218,-2.4199,-2.4218,-2.4357,-2.4503,-2.4503,-2.4662,-2.4842,-2.4974,-2.501,-2.5077,-2.5264,-2.5308,-2.5308,-2.5308,-2.5363,-2.5394,-2.5394,-2.5468,-2.5535,-2.5598,-2.5602,-2.5633,-2.5683,-2.5703,-2.5662,-2.5603,-2.5601,-2.5564,-2.5493,-2.5491,-2.5474,-2.5398,-2.5398,-2.5367,-2.5308,-2.5308,-2.5303,-2.5303,-2.5303,-2.5198,-3.4437,-3.5215,-3.5629,-3.5077,-3.396,-3.2817,-3.2089,-3.0947,-3.0005,-2.9829,-2.9792,-2.9792,-2.9792,-2.9792,-3.0101,-3.1044,-3.1217,-3.1767,-3.3441,-3.5203,-3.6852,-3.8251,-4.0766,-4.2058,-4.116,-4.0472,-3.9349,-3.7539,-3.6836,-3.6207,-3.5549,-3.5504,-3.5504,-3.5504,-3.5733,-3.5766,-3.5592,-3.5611,-3.5322,-3.4707,-3.4691,-3.4147,-3.3234,-3.3201,-3.2892,-3.2369,-3.1903,-3.1625,-3.1532,-3.1292,-3.0903,-3.0446,-3.0446,-3.0446,-3.0429,-3.0192,-2.971,-2.9123,-2.8884,-2.8049,-2.7083,-2.7083,-2.7272,-2.7345,-2.6609,-2.7037,-2.7658,-2.7116,-2.5823,-2.4658,-2.4934,-2.4622,-2.419,-2.419,-2.4256,-2.4294,-2.4294,-2.4444,-2.4607,-2.4659,-2.4759,-2.4904,-2.5071,-2.5094,-2.5146,-2.5274,-2.5322,-2.5342,-2.5383,-2.5418,-2.5465,-2.5513,-2.5567,-2.5632,-2.5683,-2.5703,-2.5683,-2.5662,-2.5662,-2.5636,-2.5566,-2.5564,-2.5541,-2.5477,-2.5474,-2.5434,-2.5371,-2.5371,-2.5348,-2.5308,-2.5308,-2.5264,-3.2654,-3.3508,-3.4022,-3.3671,-3.2742,-3.1813,-3.1474,-3.0557,-2.9792,-2.9792,-2.9792,-2.9792,-2.9792,-2.9792,-2.9998,-3.0595,-3.0658,-3.1127,-3.2496,-3.3882,-3.555,-3.7633,-4.0261,-4.1577,-4.0733,-4.0277,-3.9305,-3.7539,-3.6611,-3.5938,-3.5534,-3.5504,-3.5504,-3.5504,-3.5504,-3.5401,-3.5187,-3.4927,-3.4503,-3.3869,-3.3891,-3.3314,-3.2216,-3.2196,-3.1781,-3.105,-3.1002,-3.0767,0.0,-3.0977,-3.0598,-2.9702,-2.9989,-2.9939,-2.9651,-2.9328,-2.8941,-2.8501,-2.8231,-2.7503,-2.6691,-2.6691,-2.6499,-2.6186,-2.5856,-2.5936,-2.6086,-2.5837,-2.4917,-2.4125,-2.4618,-2.4469,-2.419,-2.419,-2.419,-2.419,-2.419,-2.4303,-2.4419,-2.4486,-2.4599,-2.4734,-2.4904,-2.4911,-2.4987,-2.5157,-2.5198,-2.5225,-2.5354,-2.5367,-2.5387,-2.5459,-2.5508,-2.5552,-2.5629,-2.5662,-2.5703,-2.5703,-2.5703,-2.5683,-2.5636,-2.5636,-2.5604,-2.5545,-2.5543,-2.5493,-2.5434,-2.5434,-2.5409,-2.5344,-2.5344,-2.5317,0.0,-3.2039,-3.2885,-3.2885,-3.2051,-3.1273,-3.1273,-3.0507,0.0,-2.9792,-2.9792,-2.9792,-2.9792,-2.9792,-2.9792,-2.9792,-2.9792,-3.0482,-3.2398,-3.287,-3.42,-3.7343,-3.8789,-3.9479,-3.9311,-3.9256,-3.8725,-3.7509,-3.6222,-3.5504,-3.5504,-3.5504,-3.5504,-3.5504,-3.5459,-3.513,-3.4518,-3.3784,-3.3125,-3.2512,-3.2509,-3.216,-3.146,-3.1397,-3.0999,-3.0341,-3.0185,-2.9748,-2.9255,-3.0439,-3.0099,-2.8921,-2.9612,-2.9497,-2.8824,-2.8077,-2.7807,-2.7705,-2.7012,-2.6742,-2.6691,-2.664,-2.5659,-2.4535,-2.4809,-2.4597,-2.4286,-2.4311,-2.3997,-2.3671,-2.3671,-2.3907,-2.4161,-2.4161,-2.418,-2.419,-2.419,-2.419,-2.4266,-2.4435,-2.4478,-2.4534,-2.4746,-2.4782,-2.4828,-2.4968,-2.4979,-2.5077,-2.5259,-2.5284,-2.5312,-2.5399,-2.5395,-2.5437,-2.5498,-2.5628,-2.5683,-2.5683,-2.5703,-2.5703,-2.5703,-2.5703,-2.5662,-2.5605,-2.5603,-2.5566,-2.5517,-2.5493,-2.5477,-2.5401,-2.5401,-2.5368,-3.0105,0.0,-3.057,-3.057,-3.0369,-3.0168,0.0,-2.9967,-2.9792,-2.9792,-2.9792,-2.9792,-2.9792,-2.9792,-2.9792,-2.9792,-2.9792,-3.0108,-3.1001,-3.3307,-3.5707,-3.7823,-3.8698,-3.8912,-3.8393,-3.7768,-3.7396,-3.7396,-3.6222,-3.5504,-3.5504,-3.5504,-3.5504,-3.5504,-3.4996,-3.4668,-3.4503,-3.332,-3.2662,-3.2497,-3.2013,-3.1164,-3.0087,-3.0065,-2.9638,-2.8936,-2.84,-2.8325,-2.8564,-2.8359,-2.8004,-2.7551,-2.7734,-2.7923,-2.806,-2.7874,-2.7807,-2.7773,-2.7604,-2.7182,-2.6607,-2.6048,-2.5236,-2.4404,-2.3935,-2.345,-2.3147,-2.3412,-2.3389,-2.3323,-2.3323,-2.3566,-2.3816,-2.3816,-2.4006,-2.419,-2.419,-2.419,-2.4209,-2.4257,-2.4266,-2.4321,-2.4545,-2.4559,-2.4639,-2.4821,-2.4924,-2.5022,-2.5052,-2.5208,-2.5317,-2.5327,-2.5379,-2.5417,-2.5421,-2.5549,-2.5611,-2.5611,-2.5662,-2.5703,-2.5703,-2.5703,-2.5683,-2.5682,-2.5632,-2.5598,-2.5588,-2.5533,-2.5484,-2.5488,-2.5488,-2.5477,-2.9792,-2.998,-3.0168,-3.0168,-3.0168,-3.0168,-3.0168,-2.998,-2.9792,-2.9792,-2.9792,-2.9792,-2.9792,-2.9993,-3.0093,-2.9829,-3.0206,-3.0721,-3.1273,-3.3129,-3.5083,-3.6807,-3.7285,-3.7469,-3.7636,-3.712,-3.6787,-3.6726,-3.5941,-3.5504,-3.5504,-3.5504,-3.5504,-3.5504,-3.4547,-3.4204,-3.4503,-3.317,-3.2512,-3.2497,-3.1496,-3.0552,-2.9592,-2.9265,-2.8755,-2.8085,-2.7674,-2.7498,-2.7478,-2.7422,-2.6933,-2.6271,-2.6613,-2.6831,-2.6969,-2.6969,-2.7109,-2.73,-2.73,-2.681,-2.6065,-2.5338,-2.4609,-2.3915,-2.3511,-2.2994,-2.2537,-2.2734,-2.2883,-2.2972,-2.2972,-2.3212,-2.3459,-2.3459,-2.3724,-2.3976,-2.3976,-2.4094,-2.419,-2.419,-2.419,-2.4237,-2.4339,-2.4357,-2.4418,-2.4631,-2.4715,-2.4797,-2.4904,-2.5006,-2.5084,-2.5152,-2.4865,-2.4705,-2.4799,-2.4896,-2.5124,-2.5535,-2.5595,-2.5605,-2.5605,-2.5636,-2.5662,-2.5703,-2.5661,-2.5657,-2.5657,-2.5605,-2.5588,-2.5549,-2.5549,-2.5503,-2.9792,-3.0319,-3.0809,-3.0557,-3.0557,-3.0595,-3.0507,-3.0131,-2.9792,-2.9792,-2.9792,-2.9817,-2.9905,-3.0231,-3.0369,-2.998,-3.0821,-3.1763,-3.2491,-3.3018,-3.3822,-3.5201,-3.5325,-3.5683,-3.6482,-3.6326,-3.6065,-3.577,-3.5463,-3.5359,-3.5504,-3.5504,-3.5504,-3.5504,-3.4203,-3.3769,-3.4354,-3.3021,-3.2392,-3.2467,-3.115,-3.0178,-2.9592,-2.8906,-2.8173,-2.743,-2.7277,-2.6795,-2.6156,-2.663,-2.6118,-2.5134,-2.5775,-2.596,-2.587,-2.587,-2.6175,-2.6607,-2.6674,-2.6151,-2.5376,-2.4697,-2.4,-2.3376,-2.3274,-2.2801,-2.2296,-2.2296,-2.2463,-2.2634,-2.2634,-2.2873,-2.3129,-2.3129,-2.338,-2.361,-2.361,-2.3855,-2.4064,-2.4103,-2.4113,-2.4151,-2.419,-2.419,-2.4266,-2.4436,-2.4478,-2.4513,-2.4569,-2.4594,-2.4602,-2.4581,-2.3978,-2.3659,-2.3842,-2.3929,-2.4274,-2.503,-2.5345,-2.5491,-2.5491,-2.5439,-2.5492,-2.5683,-2.5566,-2.5566,-2.5703,-2.5703,-2.5662,-2.5628,-2.5628,-2.5554,-2.9792,-3.0859,-3.1637,-3.0256,-3.0269,-3.0495,-3.003,-2.9854,-2.9792,-2.9792,-2.9792,-2.993,-3.0407,-3.0181,-3.0043,-3.0432,-3.1386,-3.2616,-3.4135,-3.4412,-3.4368,-3.4186,-3.4179,-3.4024,-3.3675,-3.3486,-3.3878,-3.5045,-3.4582,-3.461,-3.5457,-3.5504,-3.5504,-3.5504,-3.4203,-3.3544,-3.3649,-3.2303,-3.1929,-3.2467,-3.115,-3.0178,-2.9592,-2.8906,-2.7919,-2.6731,-2.6152,-2.5514,-2.483,-2.4359,-2.4321,-2.4532,-2.4641,-2.495,-2.5316,-2.5316,-2.567,-2.6157,-2.6573,-2.5933,-2.4878,-2.4602,-2.4,-2.3274,-2.2651,-2.2381,-2.2296,-2.2296,-2.2321,-2.236,-2.236,-2.2563,-2.2784,-2.2784,-2.3033,-2.3288,-2.3288,-2.3323,-2.3444,-2.3714,-2.3785,-2.3876,-2.4151,-2.419,-2.4209,-2.4247,-2.4393,-2.4278,-2.3601,-2.3636,-2.3453,-2.2773,-2.2603,-2.2607,-2.2811,-2.2842,-2.2949,-2.3195,-2.4651,-2.5491,-2.5491,-2.4862,-2.4852,-2.5607,-2.4948,-2.4956,-2.5703,-2.5703,-2.5683,-2.5683,-2.5683,-2.5662,-2.9792,-3.0557,-3.1235,-3.0771,-3.1537,-3.224,-3.17,-3.1323,-3.0934,-3.0357,-3.0231,-3.0319,-3.057,-3.0884,-3.1474,-3.2641,-3.2742,-3.3056,-3.4123,-3.3759,-3.3395,-3.3445,-3.3181,-3.2878,-3.2575,-3.271,-3.2954,-3.3363,-3.3296,-3.3463,-3.3905,-3.4394,-3.4691,-3.4691,-3.3921,-3.3499,-3.3499,-3.2168,-3.1645,-3.1929,-3.0642,-2.9864,-2.9577,-2.8543,-2.7735,-2.7091,-2.6048,-2.5435,-2.5053,-2.4029,-2.3745,-2.397,-2.397,-2.4287,-2.4796,-2.5105,-2.5354,-2.5531,-2.5357,-2.4907,-2.4327,-2.3686,-2.3107,-2.2599,-2.237,-2.212,-2.1957,-2.2223,-2.2296,-2.2296,-2.2296,-2.2402,-2.2473,-2.2473,-2.2717,-2.2935,-2.2935,-2.3069,-2.3253,-2.3403,-2.3426,-2.3533,-2.3876,-2.3927,-2.3996,-2.417,-2.4275,-2.4053,-2.3239,-2.3184,-2.2943,-2.2215,-2.1746,-2.1575,-2.1772,-2.1783,-2.2086,-2.2765,-2.3574,-2.4054,-2.41,-2.3734,-2.3961,-2.487,-2.4523,-2.4765,-2.5597,-2.5633,-2.5657,-2.5657,-2.5683,-2.5683,-2.9792,-3.0281,-3.0896,-3.1286,-3.2265,-3.3156,-3.3244,-3.2616,-3.1901,-3.1474,-3.1173,-3.0984,-3.0984,-3.1662,-3.2629,-3.3935,-3.3759,-3.3608,-3.4035,-3.3345,-3.2918,-3.3232,-3.2641,-3.2164,-3.2026,-3.2177,-3.2163,-3.1841,-3.2108,-3.2393,-3.2593,-3.3276,-3.3716,-3.3792,-3.3375,-3.3211,-3.3275,-3.2079,-3.1421,-3.1256,-3.0133,-2.9532,-2.9337,-2.7989,-2.7285,-2.7076,-2.5884,-2.5285,-2.5061,-2.4029,-2.3595,-2.3595,-2.3595,-2.3858,-2.4266,-2.4796,-2.4914,-2.4792,-2.4461,-2.406,-2.3594,-2.3106,-2.2409,-2.1809,-2.2147,-2.1943,-2.1673,-2.2032,-2.2209,-2.2296,-2.2296,-2.2296,-2.2296,-2.2296,-2.245,-2.2612,-2.2612,-2.2802,-2.3002,-2.3069,-2.3081,-2.3189,-2.3533,-2.3649,-2.3795,-2.4036,-2.4151,-2.3841,-2.285,-2.2878,-2.259,-2.1481,-2.099,-2.0721,-2.0747,-2.0777,-2.1164,-2.2034,-2.2513,-2.2795,-2.2865,-2.2675,-2.3108,-2.4248,-2.4076,-2.4472,-2.5491,-2.5552,-2.5588,-2.557,-2.5657,-2.5644,-2.9792,-3.0545,-3.1348,-3.1386,-3.1122,-3.1373,-3.3382,-3.2604,-3.1876,-3.3357,-3.283,-3.2089,-3.2089,-3.2164,-3.2252,-3.2378,-3.3633,-3.4613,-3.4663,-3.4587,-3.4361,-3.3897,-3.288,-3.2014,-3.1499,-3.1012,-3.0905,-3.1248,-3.1267,-3.1669,-3.2558,-3.2664,-3.2849,-3.314,-3.2547,-3.2324,-3.2557,-3.1854,-3.1182,-3.0567,-2.9909,-2.9265,-2.8622,-2.7275,-2.6333,-2.5704,-2.4978,-2.4321,-2.3744,-2.364,-2.3595,-2.3595,-2.3595,-2.3616,-2.3709,-2.4266,-2.4142,-2.3843,-2.4788,-2.3935,-2.2602,-2.3639,-2.2671,-2.1183,-2.1824,-2.181,-2.1613,-2.1643,-2.1957,-2.2296,-2.2296,-2.2296,-2.2296,-2.2296,-2.2307,-2.2321,-2.2321,-2.2349,-2.244,-2.2686,-2.2733,-2.2848,-2.3177,-2.3482,-2.3703,-2.3724,-2.3996,-2.3639,-2.2088,-2.2538,-2.2097,-1.9743,-2.0121,-2.0302,-1.9745,-1.982,-1.9934,-2.0013,-2.1643,-2.2671,-2.2806,-2.2036,-2.2424,-2.4167,-2.3415,-2.3819,-2.5491,-2.5496,-2.5517,-2.552,-2.5588,-2.5605,-2.9792,-3.0344,-3.0984,-3.1311,-3.0997,-3.1185,-3.3395,-3.3407,-3.293,-3.2867,-3.3068,-3.3156,-3.2817,-3.3031,-3.3257,-3.3257,-3.4085,-3.468,-3.468,-3.4135,-3.3621,-3.342,-3.239,-3.1486,-3.0959,-3.0733,-3.0527,-3.0356,-3.0317,-3.0495,-3.0846,-3.1402,-3.1793,-3.19,-3.2032,-3.2168,-3.2251,-3.1753,-3.0972,-2.9924,-2.9726,-2.9235,-2.8562,-2.7634,-2.6866,-2.6183,-2.5501,-2.4829,-2.4186,-2.3774,-2.3595,-2.3595,-2.3595,-2.3595,-2.3616,-2.3837,-2.3773,-2.3659,-2.4053,-2.3717,-2.3168,-2.3483,-2.2905,-2.2046,-2.2016,-2.1721,-2.1402,-2.1263,-2.1538,-2.1928,-2.2223,-2.2296,-2.2296,-2.2296,-2.2296,-2.2296,-2.2296,-2.2296,-2.2321,-2.244,-2.245,-2.2541,-2.2835,-2.2996,-2.3153,-2.3357,-2.35,-2.3002,-2.1448,-2.1648,-2.1407,-2.0008,-2.0235,-2.0213,-1.9475,-1.9455,-1.9545,-1.9669,-2.0497,-2.101,-2.1058,-2.0851,-2.1313,-2.2497,-2.2728,-2.3427,-2.4625,-2.5166,-2.5441,-2.5438,-2.5515,-2.5543,-2.9792,-3.0068,-3.0482,-3.1009,-3.0577,-3.0618,-3.279,-3.3104,-3.3005,-3.3104,-3.3143,-3.3102,-3.3101,-3.2972,-3.2953,-3.3326,-3.3985,-3.4336,-3.3985,-3.3282,-3.2742,-3.2566,-3.1712,-3.0997,-3.0658,-3.0457,-3.0193,-2.9817,-2.9792,-2.9792,-2.9792,-3.0419,-3.0738,-3.0639,-3.1021,-3.1358,-3.1519,-3.1041,-3.0388,-2.9606,-2.9397,-2.8921,-2.8248,-2.76,-2.6926,-2.6243,-2.5585,-2.4889,-2.4246,-2.3789,-2.3595,-2.3595,-2.3595,-2.3595,-2.3595,-2.3595,-2.3595,-2.3595,-2.3595,-2.3475,-2.3299,-2.3163,-2.2652,-2.2014,-2.168,-2.1303,-2.0955,-2.0824,-2.107,-2.1522,-2.1974,-2.2194,-2.2296,-2.2296,-2.2296,-2.2296,-2.2296,-2.2296,-2.2296,-2.2296,-2.2296,-2.2363,-2.2537,-2.2647,-2.2784,-2.3009,-2.3129,-2.2728,-2.1419,-2.1436,-2.1213,-2.0291,-2.0107,-1.9833,-1.9344,-1.9297,-1.9357,-1.9499,-1.9731,-1.9896,-1.9943,-2.0065,-2.055,-2.141,-2.2028,-2.2781,-2.3687,-2.4288,-2.4726,-2.4993,-2.5053,-2.5227,-2.9792,-2.9792,-2.993,-3.0442,-2.9675,-2.9355,-3.1397,-3.14,-3.1788,-3.4601,-3.3136,-3.1745,-3.2853,-3.1724,-3.096,-3.1992,-3.3113,-3.3495,-3.2378,-3.2202,-3.2001,-3.1449,-3.0922,-3.0608,-3.0608,-3.0118,-2.9792,-2.9792,-2.9792,-2.9792,-2.9792,-2.9792,-2.9668,-2.9399,-2.9394,-2.9699,-3.0283,-2.962,-2.9376,-2.9579,-2.8921,-2.8248,-2.757,-2.6926,-2.6243,-2.5561,-2.4903,-2.4231,-2.361,-2.3595,-2.3595,-2.3595,-2.3595,-2.3595,-2.3595,-2.3595,-2.3595,-2.3595,-2.3595,-2.3212,-2.2703,-2.2703,-2.1799,-2.0718,-2.0703,-2.0509,-2.0297,-2.0297,-2.0633,-2.1086,-2.1476,-2.1928,-2.2282,-2.2296,-2.2296,-2.2296,-2.2296,-2.2296,-2.2296,-2.2296,-2.2296,-2.2296,-2.2296,-2.2527,-2.2695,-2.2695,-2.2984,-2.2911,-2.2088,-2.2056,-2.1601,-2.0327,-1.9488,-1.9086,-1.9274,-1.9297,-1.9297,-1.9297,-1.9492,-1.965,-1.9784,-1.979,-2.0261,-2.1261,-2.1285,-2.179,-2.2793,-2.2793,-2.3259,-2.4091,-2.4188,-2.4635,-2.8806,-2.9468,-2.9985,-2.8527,-2.8965,-2.9657,-2.9225,-2.9301,-2.9988,-3.1878,-3.1244,-3.0479,-3.0847,-3.0537,-3.0329,-3.0872,-3.1547,-3.204,-3.2176,-3.1876,-3.1436,-3.0909,-3.0369,-3.0043,-3.0043,-2.9892,-2.9792,-2.9792,-2.9792,-2.9792,-2.9792,-2.9792,-2.9555,-2.9045,-2.9262,-2.9276,-2.9023,-2.9062,-2.8958,-2.8679,-2.849,-2.8106,-2.7585,-2.739,-2.6941,-2.6258,-2.5576,-2.4918,-2.4261,-2.3804,-2.3595,-2.3595,-2.3595,-2.3595,-2.3595,-2.3595,-2.3595,-2.3595,-2.3595,-2.3475,-2.3251,-2.2838,-2.2433,-2.1939,-2.0991,-2.0633,-2.0491,-2.001,-2.0176,-2.0533,-2.065,-2.1023,-2.1462,-2.1749,-2.2046,-2.2209,-2.1884,-2.2077,-2.2296,-2.2296,-2.2296,-2.2296,-2.2296,-2.2377,-2.2426,-2.2426,-2.249,-2.2332,-2.1739,-2.1249,-2.0697,-1.9931,-1.9687,-1.9434,-1.9113,-1.9094,-1.915,-1.9289,-1.935,-1.9467,-1.9643,-1.975,-1.9945,-2.0242,-2.084,-2.1355,-2.1747,-2.2924,-2.3702,-2.411,-2.4696,-2.5094,-2.8426,-2.8984,-2.9508,-2.7819,-2.8263,-2.8741,-2.7383,-2.8258,-2.9631,-3.0543,-3.0084,-2.9722,-3.0236,-2.9631,-2.9283,-2.9913,-3.008,-3.0417,-3.1088,-3.0716,-3.0362,-3.0265,-2.9993,-2.9792,-2.9792,-2.9792,-2.9792,-2.9792,-2.9792,-2.9792,-2.9792,-2.9792,-2.9428,-2.8624,-2.8794,-2.856,-2.7861,-2.7784,-2.7848,-2.798,-2.7413,-2.7312,-2.76,-2.76,-2.7091,-2.6168,-2.5486,-2.4814,-2.4186,-2.4036,-2.3849,-2.3595,-2.3595,-2.3595,-2.3595,-2.3595,-2.3595,-2.3595,-2.3595,-2.3595,-2.349,-2.2897,-2.2523,-2.2104,-2.1036,-2.0494,-2.0228,-1.9813,-1.9874,-2.0089,-2.0263,-2.0516,-2.0829,-2.126,-2.1584,-2.1721,-2.1414,-2.172,-2.2017,-2.2017,-2.2163,-2.2296,-2.2296,-2.2296,-2.2296,-2.2296,-2.2296,-2.1959,-2.102,-2.0551,-1.9993,-1.9188,-1.9145,-1.9088,-1.8869,-1.8834,-1.894,-1.9174,-1.9182,-1.9277,-1.9478,-1.9559,-1.965,-1.9713,-2.0239,-2.0564,-2.0706,-2.1716,-2.265,-2.352,-2.3995,-2.4615,-2.8327,-2.839,-2.8597,-2.7861,-2.7511,-2.7116,-2.6133,-2.8107,-3.0078,-2.9953,-2.942,-2.9285,-3.0376,-2.8887,-2.7909,-2.905,-2.8766,-2.8677,-2.9343,-2.9005,-2.8906,-2.9569,-2.9663,-2.9702,-2.9792,-2.9792,-2.9792,-2.9792,-2.9792,-2.9767,-2.9716,-2.9716,-2.9202,-2.8059,-2.8034,-2.7618,-2.6795,-2.6167,-2.6367,-2.7267,-2.5995,-2.6069,-2.7408,-2.7458,-2.6792,-2.557,-2.4889,-2.4216,-2.3655,-2.4261,-2.4141,-2.3595,-2.3595,-2.3595,-2.3595,-2.3595,-2.3565,-2.352,-2.352,-2.3475,-2.3325,-2.2718,-2.2119,-2.1485,-2.0812,-2.0183,-1.9708,-1.9708,-1.9708,-1.9782,-2.0158,-2.0246,-2.0348,-2.078,-2.0943,-2.0991,-2.0943,-2.126,-2.1536,-2.1536,-2.1884,-2.2194,-2.2223,-2.2237,-2.2237,-2.2296,-2.2296,-2.1772,-2.0302,-2.0052,-1.9554,-1.8383,-1.8191,-1.827,-1.8537,-1.8556,-1.8688,-1.8949,-1.8958,-1.906,-1.9227,-1.9274,-1.9398,-1.9562,-1.9569,-1.9637,-1.9786,-1.9867,-2.0829,-2.2577,-2.2653,-2.3607,-2.7775,-2.8032,-2.8291,-2.62,-2.6393,-2.7209,-2.764,-2.8229,-2.8463,-2.744,-2.7897,-2.8306,-2.7915,-2.7442,-2.733,-2.7883,-2.7597,-2.7525,-2.817,-2.7898,-2.7815,-2.8407,-2.8466,-2.8819,-2.9702,-2.9792,-2.9792,-2.9792,-2.9792,-2.9591,-2.9139,-2.9076,-2.8612,-2.7494,-2.7457,-2.6958,-2.5897,-2.5724,-2.5664,-2.5612,-2.5314,-2.5398,-2.5892,-2.6469,-2.6304,-2.557,-2.4889,-2.4216,-2.361,-2.3759,-2.3729,-2.3595,-2.3595,-2.3595,-2.3595,-2.3595,-2.3295,-2.2897,-2.2897,-2.2553,-2.1994,-2.135,-2.1017,-2.0797,-2.0109,-1.9813,-1.9708,-1.9708,-1.9708,-1.9711,-1.9818,-1.9836,-1.9856,-1.9962,-2.0499,-2.0894,-2.0533,-2.0797,-2.1118,-2.1118,-2.1213,-2.1385,-2.1705,-2.1749,-2.1884,-2.2237,-2.2296,-2.1972,-2.1072,-2.0386,-1.9684,-1.8852,-1.824,-1.7992,-1.8259,-1.829,-1.84,-1.8678,-1.8697,-1.8715,-1.8753,-1.9097,-1.932,-1.9357,-1.9357,-1.9452,-1.9649,-2.0274,-2.1191,-2.2376,-2.3013,-2.3942,-2.79,-2.7934,-2.7871,-2.6164,-2.6211,-2.6826,-2.7275,-2.7539,-2.7432,-2.6572,-2.7246,-2.7793,-2.7139,-2.6846,-2.6694,-2.6683,-2.633,-2.6269,-2.695,-2.6661,-2.6641,-2.7255,-2.7804,-2.8347,-2.8937,-2.9495,-2.9792,-2.9792,-2.9528,-2.9252,-2.8913,-2.865,-2.8034,-2.6952,-2.6927,-2.626,-2.4845,-2.4833,-2.4803,-2.4711,-2.4326,-2.4249,-2.4475,-2.4907,-2.5279,-2.5546,-2.4598,-2.394,-2.3625,-2.3954,-2.3894,-2.3595,-2.3595,-2.3595,-2.3595,-2.3595,-2.3385,-2.3092,-2.2808,-2.2478,-2.2074,-2.1395,-2.0957,-2.0628,-2.0288,-1.9944,-1.9708,-1.9708,-1.9708,-1.9708,-1.9708,-1.9708,-1.9708,-1.9708,-2.005,-2.0311,-2.007,-2.0364,-2.0666,-2.0666,-2.0845,-2.1055,-2.1275,-2.1476,-2.1688,-2.1928,-2.2166,-2.189,-2.0771,-2.0268,-1.9579,-1.8488,-1.8352,-1.8376,-1.8517,-1.8545,-1.8792,-1.9416,-1.8793,-1.8618,-1.9106,-1.9022,-1.8964,-1.8964,-1.9082,-1.9206,-1.9315,-2.0221,-2.1157,-2.2185,-2.301,-2.3945,-2.8203,-2.795,-2.7654,-2.6776,-2.6666,-2.6695,-2.6534,-2.6768,-2.6914,-2.6572,-2.706,-2.7422,-2.6992,-2.6621,-2.625,-2.5762,-2.5293,-2.5189,-2.5725,-2.5344,-2.5282,-2.6102,-2.7157,-2.7884,-2.8084,-2.9145,-2.9792,-2.9792,-2.9252,-2.885,-2.875,-2.826,-2.7457,-2.6386,-2.6348,-2.5594,-2.4017,-2.4004,-2.404,-2.4089,-2.3323,-2.3105,-2.3383,-2.3204,-2.3828,-2.5047,-2.3972,-2.3433,-2.3324,-2.4097,-2.3962,-2.3295,-2.3505,-2.3535,-2.3445,-2.3565,-2.3535,-2.3355,-2.2748,-2.2448,-2.2239,-2.156,-2.0976,-2.0543,-2.0543,-2.0139,-1.9708,-1.9708,-1.9708,-1.9708,-1.9708,-1.9708,-1.9708,-1.9708,-1.9708,-1.9708,-1.9708,-1.9947,-2.021,-2.021,-2.0582,-2.0878,-2.0878,-2.1228,-2.1491,-2.1491,-2.1884,-2.1675,-2.0265,-2.0162,-1.9693,-1.8324,-1.8724,-1.9046,-1.891,-1.8894,-1.9272,-2.0083,-1.8879,-1.8617,-1.9717,-1.8924,-1.8512,-1.8653,-1.8842,-1.8931,-1.8931,-1.9815,-2.0807,-2.1919,-2.2678,-2.3643,-2.8096,-2.8184,-2.8274,-2.7468,-2.7641,-2.7801,-2.7089,-2.6973,-2.6992,-2.6943,-2.7021,-2.6973,-2.6553,-2.6426,-2.625,-2.5762,-2.5039,-2.4529,-2.4598,-2.39,-2.3827,-2.4882,-2.6047,-2.7087,-2.8016,-2.9145,-2.9792,-2.9792,-2.9252,-2.8687,-2.8235,-2.7695,-2.6879,-2.5749,-2.5711,-2.5159,-2.4004,-2.4004,-2.3764,-2.3245,-2.2678,-2.2764,-2.3355,-2.1778,-2.1837,-2.3091,-2.2912,-2.2486,-2.204,-2.3244,-2.3026,-2.2054,-2.3176,-2.3266,-2.2882,-2.34,-2.3266,-2.2733,-2.2074,-2.1455,-2.0872,-2.0202,-1.9917,-1.9842,-1.9842,-1.9768,-1.9708,-1.9708,-1.9708,-1.9708,-1.9708,-1.9708,-1.9708,-1.9708,-1.9708,-1.9708,-1.9708,-1.9729,-1.9782,-1.9782,-2.0106,-2.0399,-2.0399,-2.078,-2.1071,-2.1071,-2.1431,-2.1391,-2.0548,-2.0787,-2.0703,-1.9799,-1.9782,-1.9592,-1.8944,-1.8894,-1.8968,-1.9088,-1.8325,-1.8489,-1.9906,-1.8642,-1.8211,-1.8841,-1.8723,-1.8642,-1.8642,-1.9013,-1.9983,-2.1489,-2.1841,-2.2913,-2.7941,-2.8034,-2.7969,-2.6931,-2.7009,-2.7121,-2.6162,-2.6113,-2.6249,-2.6249,-2.6249,-2.6318,-2.6377,-2.5977,-2.5586,-2.5391,-2.4639,-2.4062,-2.4062,-2.3535,-2.3309,-2.38,-2.484,-2.5964,-2.7087,-2.8187,-2.9106,-2.9753,-2.8963,-2.836,-2.8122,-2.7329,-2.6487,-2.5624,-2.531,-2.4795,-2.4004,-2.3647,-2.3358,-2.3095,-2.2543,-2.2306,-2.23,-2.1207,-2.1433,-2.2643,-2.1631,-2.1204,-2.1268,-2.1527,-2.1481,-2.1336,-2.2283,-2.2452,-2.2269,-2.3227,-2.3221,-2.2614,-2.1938,-2.1515,-2.1096,-2.0052,-1.9708,-1.9708,-1.9708,-1.9708,-1.9708,-1.9708,-1.9708,-1.9708,-1.9708,-1.9708,-1.9708,-1.9708,-1.9708,-1.9708,-1.9708,-1.9708,-1.9708,-1.9708,-1.9839,-1.9965,-1.9965,-2.033,-2.06,-2.06,-2.0975,-2.1001,-2.0259,-2.0541,-2.0514,-1.9741,-2.0269,-2.0534,-2.0226,-2.0192,-2.0378,-2.0788,-1.9693,-1.9524,-2.0636,-1.9625,-1.9186,-1.9507,-1.9158,-1.8989,-1.8989,-2.0137,-2.1143,-2.2024,-2.2603,-2.338,-2.8053,-2.8359,-2.8297,-2.7095,-2.7102,-2.7051,-2.5668,-2.5662,-2.5894,-2.5615,-2.5615,-2.5791,-2.6162,-2.5586,-2.5116,-2.5116,-2.4346,-2.3789,-2.3789,-2.3418,-2.3091,-2.3091,-2.4135,-2.5126,-2.5975,-2.7319,-2.8466,-2.9314,-2.8575,-2.8109,-2.8109,-2.6952,-2.6084,-2.5611,-2.4958,-2.4418,-2.4004,-2.3396,-2.3032,-2.2895,-2.2343,-2.1807,-2.1282,-2.0729,-2.1017,-2.1891,-2.0726,-2.0285,-2.0425,-2.0324,-2.0344,-2.0455,-2.1162,-2.1362,-2.1362,-2.2338,-2.2506,-2.2163,-2.1471,-2.1342,-2.1246,-2.0082,-1.9708,-1.9708,-1.9708,-1.9708,-1.9708,-1.9708,-1.9708,-1.9708,-1.9708,-1.9708,-1.9708,-1.9708,-1.9708,-1.9708,-1.9708,-1.9708,-1.9708,-1.9708,-1.9708,-1.9708,-1.9708,-1.9962,-2.0158,-2.0158,-2.0532,-2.0622,-2.0067,-2.0375,-2.0417,-1.9866,-2.0708,-2.1227,-2.1026,-2.1137,-2.1427,-2.1989,-2.0758,-2.0437,-2.1444,-2.0521,-2.0086,-2.0302,-1.9959,-1.9682,-1.9493,-2.09,-2.1828,-2.2289,-2.2966,-2.3523,-2.8687,-2.9638,-3.0158,-2.8957,-2.9058,-2.8838,-2.6583,-2.6364,-2.6372,-2.5334,-2.5439,-2.5693,-2.5713,-2.5391,-2.5116,-2.5116,-2.4346,-2.3789,-2.3789,-2.3418,-2.3091,-2.3091,-2.4135,-2.483,-2.4872,-2.6849,-2.8124,-2.8176,-2.8124,-2.8109,-2.8109,-2.654,-2.5624,-2.5598,-2.4582,-2.4029,-2.4004,-2.3396,-2.2844,-2.2347,-2.1794,-2.127,-2.0717,-2.0112,-1.9888,-1.999,-2.0534,-2.0136,-1.9182,-2.0375,-2.013,-1.9093,-1.9878,-2.01,-2.0022,-2.0221,-2.0592,-2.0899,-2.022,-2.0333,-2.0628,-1.9929,-1.9708,-1.9708,-1.9708,-1.9708,-1.9708,-1.9708,-1.9708,-1.9708,-1.9708,-1.9708,-1.9708,-1.9708,-1.9708,-1.9708,-1.9708,-1.9708,-1.9708,-1.9708,-1.9708,-1.9708,-1.9708,-1.9711,-1.9729,-1.9729,-2.0087,-2.0316,-2.0285,-2.0684,-2.0959,-2.0927,-2.1302,-2.1297,-2.0605,-2.0938,-2.1207,-2.1241,-2.0471,-2.066,-2.2178,-2.0809,-2.0352,-2.1123,-2.1102,-2.0729,-1.9959,-2.0305,-2.0881,-2.1642,-2.1954,-2.2516,-2.7908,-2.8687,-2.9246,-2.8119,-2.8483,-2.8696,-2.7114,-2.6544,-2.6302,-2.6141,-2.5697,-2.54,-2.5635,-2.5146,-2.4648,-2.4648,-2.3935,-2.3369,-2.3369,-2.3198,-2.3091,-2.3091,-2.3474,-2.4006,-2.4745,-2.616,-2.7232,-2.7581,-2.7889,-2.7946,-2.7595,-2.67,-2.6009,-2.5598,-2.4895,-2.4148,-2.3421,-2.3208,-2.3007,-2.2794,-2.192,-2.1408,-2.1182,-2.0225,-1.9798,-1.9798,-2.0055,-1.9735,-1.8982,-1.8747,-1.8557,-1.8489,-1.882,-1.8879,-1.8911,-1.9783,-1.995,-1.9702,-1.9474,-1.9738,-2.0094,-1.9412,-1.9415,-1.9695,-1.9689,-1.9693,-1.9708,-1.9708,-1.9708,-1.9708,-1.9708,-1.9708,-1.9708,-1.9708,-1.9708,-1.9708,-1.9708,-1.9708,-1.9708,-1.9708,-1.9708,-1.9708,-1.9708,-1.9708,-1.9708,-1.9708,-1.9836,-1.9909,-1.9909,-2.0296,-2.055,-2.055,-2.0959,-2.1116,-2.0825,-2.1203,-2.147,-2.147,-2.119,-2.1406,-2.2262,-2.1485,-2.1303,-2.1887,-2.1904,-2.1532,-2.0771,-2.1338,-2.1863,-2.2309,-2.2409,-2.2721,-2.7381,-2.7946,-2.85,-2.7954,-2.8331,-2.8578,-2.7658,-2.7195,-2.6954,-2.6879,-2.6094,-2.5531,-2.5794,-2.5039,-2.4414,-2.4414,-2.3656,-2.3091,-2.3091,-2.3091,-2.3091,-2.3091,-2.3091,-2.3387,-2.4168,-2.5263,-2.6244,-2.6964,-2.7348,-2.7569,-2.7582,-2.6549,-2.5561,-2.4795,-2.4619,-2.4061,-2.3108,-2.3108,-2.3007,-2.2819,-2.1933,-2.1421,-2.1207,-2.0238,-1.9798,-1.9798,-1.9623,-1.9321,-1.8945,-1.8242,-1.8045,-1.8189,-1.8035,-1.8087,-1.8247,-1.8727,-1.8954,-1.9002,-1.8634,-1.8975,-1.9454,-1.883,-1.8982,-1.9406,-1.9225,-1.9407,-1.9616,-1.9265,-1.9424,-1.9657,-1.9479,-1.9566,-1.9708,-1.9708,-1.9708,-1.9708,-1.9708,-1.9708,-1.9708,-1.9708,-1.9708,-1.9708,-1.9708,-1.9708,-1.9708,-1.9708,-1.9708,-1.9708,-1.9708,-1.9929,-2.0089,-2.0089,-2.0515,-2.078,-2.078,-2.1149,-2.1399,-2.1399,-2.1399,-2.1538,-2.1857,-2.1688,-2.1749,-2.2046,-2.2223,-2.2073,-2.1566,-2.2073,-2.2402,-2.2577,-2.2577,-2.2725,0.0,0.0,0.0,-2.8712,-2.885,-2.8723,-2.8242,-2.8464,-2.8463,-2.7358,-2.6595,-2.6138,-2.6159,-2.5209,-2.4441,-2.446,-2.3711,-2.311,-2.311,-2.3101,-2.3091,-2.3091,-2.3091,-2.3091,-2.3091,-2.4125,-2.5252,-2.6378,-2.6484,-2.695,-2.7999,-2.5979,-2.4274,-2.3158,-2.369,-2.3703,-2.3108,-2.3108,-2.2832,-2.2297,-2.1757,-2.1232,-2.0679,-2.0075,-1.9798,-1.9773,-1.9246,-1.902,-1.902,-1.8995,-1.8669,-1.8179,-1.7614,-1.7739,-1.8078,-1.6951,-1.7571,-1.8831,-1.7718,-1.8014,-1.881,-1.8308,-1.848,-1.8838,-1.8314,-1.8863,-1.9461,-1.8452,-1.8884,-1.9548,-1.9024,-1.9281,-1.969,-1.969,-1.969,-1.9708,-1.969,-1.969,-1.9708,-1.9708,-1.9708,-1.9708,-1.9708,-1.9708,-1.9708,-1.9708,-1.9708,-1.9708,-1.9708,-1.9708,-1.9708,-1.9708,-2.0052,-2.028,-2.028,-2.0699,-2.0975,-2.0975,-2.0975,-2.0991,-2.0991,-2.1368,-2.1567,-2.1582,-2.2032,-2.2268,-2.2268,-2.2282,-2.2296,-2.2296,-2.2296,-2.244,-2.7249,0.0,0.0,0.0,0.0,0.0,-2.8622,-2.8176,-2.7834,-2.8222,-2.7513,-2.691,-2.7195,-2.6077,-2.5238,-2.5567,-2.4486,-2.3613,-2.3613,-2.3296,-2.3091,-2.3091,-2.3091,-2.3091,-2.3091,-2.4125,-2.5102,-2.5795,-2.6236,-2.6793,-2.7496,-2.5799,-2.4462,-2.3778,-2.3471,-2.3271,-2.3108,-2.3108,-2.2832,-2.2297,-2.1757,-2.1232,-2.0679,-2.0075,-1.9798,-1.9798,-1.9648,-1.9585,-1.9522,-1.8732,-1.8556,-1.8719,-1.8191,-1.8078,-1.8166,-1.7852,-1.8021,-1.8376,-1.8058,-1.8397,-1.8959,-1.8802,-1.9095,-1.9519,-1.9369,-1.9239,-1.9245,-1.9814,-1.9288,-1.8593,-1.8836,-1.9006,-1.9132,-1.9132,-1.9424,-1.9584,-1.9207,-1.9424,-1.9708,-1.9708,-1.9708,-1.9708,-1.9708,-1.9708,-1.9708,-1.9708,-1.9708,-1.9708,-1.9708,-1.9708,-1.9708,-1.9708,-1.98,-1.9874,-1.9874,-2.0244,-2.05,-2.05,-2.05,-2.0649,-2.0991,-2.0781,-2.083,-2.115,-2.1291,-2.1354,-2.1354,-2.1991,-2.2296,-2.2296,-2.2296,-2.2335,-2.7399,-2.7424,-2.7795,-2.7394,0.0,0.0,-2.8461,-2.8249,-2.8135,-2.8727,-2.8162,-2.7591,-2.7836,-2.6904,-2.6184,-2.6464,-2.5756,-2.4914,-2.4159,-2.3682,-2.3408,-2.3408,-2.3408,-2.334,-2.311,-2.4125,-2.5135,-2.5935,-2.631,-2.6528,-2.6593,-2.546,-2.4537,-2.4017,-2.3409,-2.3108,-2.3108,-2.3108,-2.2832,-2.2297,-2.1757,-2.1232,-2.0679,-2.0075,-1.9798,-1.9798,-1.9572,-1.9472,-1.9384,-1.8555,-1.8506,-1.897,-1.8657,-1.8519,-1.8518,-1.8292,-1.8493,-1.8807,-1.8355,-1.8556,-1.896,-1.8753,-1.9025,-1.9426,-1.9193,-1.9038,-1.899,-1.9257,-1.8582,-1.7942,-1.8689,-1.8719,-1.8574,-1.8574,-1.8817,-1.8949,-1.8631,-1.8987,-1.9424,-1.9657,-1.9708,-1.9708,-1.9708,-1.9708,-1.9708,-1.9708,-1.9708,-1.9708,-1.9708,-1.9708,-1.9708,-1.9708,-1.9708,-1.9708,-1.9708,-1.9909,-2.0052,-2.0052,-2.0052,-2.0158,-2.0447,-2.0364,-2.0433,-2.0699,-2.0894,-2.0991,-2.0991,-2.1508,-2.184,-2.2017,-2.2209,-2.2296,-2.7796,-2.7248,-2.6826,-2.7115,-2.7228,0.0,-2.7896,-2.8398,-2.8725,-2.8787,-2.8499,-2.8171,-2.8171,-2.7643,-2.7217,-2.7262,-2.7144,-2.6433,-2.477,-2.4195,-2.3914,-2.3789,-2.3789,-2.3677,-2.3374,-2.4241,-2.5336,-2.6595,-2.6691,-2.6372,-2.5653,-2.5159,-2.4632,-2.4017,-2.3471,-2.317,-2.3108,-2.3108,-2.2794,-2.2221,-2.1719,-2.1194,-2.0578,-2.0037,-1.9798,-1.9773,-1.9284,-1.9096,-1.9045,-1.8556,-1.8607,-1.9008,-1.9008,-1.9045,-1.9033,-1.8555,-1.8982,-1.966,-1.8706,-1.8682,-1.9008,-1.8543,-1.8706,-1.8995,-1.853,-1.8672,-1.878,-1.771,-1.7492,-1.78,-1.8616,-1.8515,-1.8185,-1.813,-1.8143,-1.8169,-1.804,-1.8438,-1.8949,-1.9424,-1.9621,-1.9708,-1.9708,-1.9708,-1.9708,-1.9708,-1.9708,-1.9708,-1.9708,-1.9708,-1.9708,-1.9708,-1.9708,-1.9708,-1.9708,-1.9708,-1.9708,-1.9708,-1.9708,-1.9708,-1.9708,-2.0037,-2.0229,-2.0229,-2.0633,-2.0861,-2.0861,-2.0943,-2.1181,-2.1536,-2.2003,-2.2223,-2.8338,-2.7945,-2.7949,-2.6898,-2.6663,0.0,-2.7318,-2.7532,-2.772,-2.8172,-2.8512,-2.8722,-2.8722,-2.8261,-2.8005,-2.8398,-2.7417,-2.6282,-2.5355,-2.5135,-2.4774,-2.3924,-2.3789,-2.4098,-2.4861,-2.4846,-2.5619,-2.7643,-2.7782,-2.7155,-2.5686,-2.5498,-2.4996,-2.4029,-2.3891,-2.3572,-2.3108,-2.3108,-2.2606,-2.1644,-2.1543,-2.0953,-1.9962,-1.9849,-1.9798,-1.9798,-1.9698,-1.9648,-1.9648,-1.9535,-1.9309,-1.9008,-1.9008,-1.9259,-1.9635,-1.9535,-1.9623,-1.9773,-1.956,-1.956,-1.9635,-1.9522,-1.956,-1.9623,-1.9522,-1.927,-1.8777,-1.771,-1.8387,-1.9307,-1.853,-1.8583,-1.8729,-1.8272,-1.8478,-1.8515,-1.7651,-1.7887,-1.8302,-1.84,-1.9114,-1.9708,-1.9708,-1.9708,-1.9708,-1.9708,-1.9708,-1.9708,-1.9708,-1.9708,-1.9708,-1.9708,-1.9708,-1.9708,-1.9708,-1.9708,-1.9708,-1.9708,-1.9708,-1.9708,-1.9708,-1.9782,-1.9836,-1.9836,-1.9925,-1.9945,-1.996,-2.0649,-2.1039,-2.1118,-2.1538,-2.1733,-2.9491,-2.8579,-2.7971,-2.7261,-2.6985,0.0,0.0,-2.7293,-2.7695,-2.7695,-2.8348,-2.8888,-2.8888,-2.8943,-2.9022,-2.9264,-2.8631,-2.78,-2.6869,-2.645,-2.6141,-2.5904,-2.5593,-2.5665,-2.6271,-2.6406,-2.7042,-2.8417,-2.8251,-2.762,-2.6502,-2.59,-2.5347,-2.4808,-2.428,-2.3853,-2.3534,-2.3246,-2.2556,-2.1493,-2.1493,-2.0891,-1.9798,-1.9798,-1.9798,-1.9798,-1.9798,-1.966,-1.9384,-1.9384,-1.9233,-1.9033,-1.9284,-1.9572,-1.9798,-1.9798,-1.9798,-1.9798,-1.9798,-1.9798,-1.9798,-1.9798,-1.9798,-1.9798,-1.9798,-1.9447,-1.8895,-1.8355,-1.8618,-1.9018,-1.8701,-1.8601,-1.8524,-1.8264,-1.8377,-1.8397,-1.7858,-1.8174,-1.8453,-1.8199,-1.8763,-1.9306,-1.9302,-1.953,-1.9708,-1.9708,-1.9708,-1.9708,-1.9708,-1.9708,-1.9708,-1.9708,-1.9708,-1.9708,-1.9708,-1.9708,-1.9708,-1.9708,-1.9708,-1.9708,-1.9708,-1.9708,-1.9708,-1.9708,-1.9708,-1.9708,-1.9708,-2.0139,-2.0448,-2.0666,-2.1102,-2.1399,-3.0518,-2.9286,-2.8149,-2.7986,-2.7746,-2.7399,0.0,0.0,0.0,-2.7278,-2.7921,-2.8612,-2.8612,-2.9164,-2.9591,-2.949,-2.9654,-2.9457,-2.8412,-2.7906,-2.7656,-2.7727,-2.735,-2.7242,-2.7549,-2.8081,-2.8575,-2.89,-2.8411,-2.7871,-2.7318,-2.6314,-2.5711,-2.5598,-2.4657,-2.4104,-2.4004,-2.3396,-2.2556,-2.1493,-2.1594,-2.0991,-1.9798,-1.9911,-1.9911,-1.9798,-1.9798,-1.956,-1.9146,-1.9146,-1.9146,-1.9183,-1.9522,-1.971,-1.9798,-1.9798,-1.9798,-1.9798,-1.9798,-1.9798,-1.9798,-1.9798,-1.9798,-1.9798,-1.9798,-1.951,-1.9133,-1.9033,-1.8757,-1.8593,-1.8907,-1.8769,-1.8493,-1.8392,-1.8355,-1.8342,-1.8229,-1.8531,-1.8721,-1.8287,-1.85,-1.8748,-1.8745,-1.9188,-1.9548,-1.9548,-1.9548,-1.9584,-1.969,-1.9603,-1.9584,-1.969,-1.9708,-1.9708,-1.9708,-1.9708,-1.9708,-1.9708,-1.9708,-1.9708,-1.9708,-1.9708,-1.9708,-1.9708,-1.9708,-1.9708,-1.9708,-1.9708,-1.9874,-2.021,-2.0649,-2.1039,-3.0654,-3.0178,-2.9827,-2.9066,-2.8597,-2.8219,-2.7702,0.0,-2.7253,-2.67,0.0,-2.7469,-2.7469,0.0,0.0,-2.8373,-2.9139,-2.9565,-2.8887,-2.9195,-2.8911,-2.7381,-2.7149,-2.7485,-2.8539,-2.9215,-2.9425,-2.8938,-2.8411,-2.7871,-2.7318,-2.6738,-2.616,-2.5611,-2.5034,-2.4494,-2.4004,-2.3396,-2.2556,-2.1493,-2.1983,-2.1368,-1.9823,-2.0365,-2.0314,-1.9798,-1.9798,-1.9773,-1.971,-1.971,-1.971,-1.9673,-1.9246,-1.9371,-1.9798,-1.9798,-1.9798,-1.9798,-1.9798,-1.9798,-1.9798,-1.9798,-1.9798,-1.9798,-1.9798,-1.9761,-1.9623,-1.9133,-1.9284,-1.9522,-1.9108,-1.9296,-1.951,-1.902,-1.8907,-1.877,-1.8304,-1.8251,-1.8273,-1.821,-1.8244,-1.8267,-1.8196,-1.8631,-1.8987,-1.8987,-1.8987,-1.9169,-1.9639,-1.9281,-1.9169,-1.9639,-1.9708,-1.9708,-1.9708,-1.9708,-1.9708,-1.9708,-1.9708,-1.9708,-1.9708,-1.9708,-1.9708,-1.9708,-1.9708,-1.9708,-1.9708,-1.9708,-1.9711,-1.9782,-2.0193,-2.0399,-3.1856,-3.1213,-3.0742,-3.037,-3.0053,-2.9598,-2.8676,-2.8239,-2.7855,-2.7312,0.0,0.0,0.0,0.0,0.0,0.0,-2.9264,-2.9704,-2.9465,-2.9641,-2.9615,-2.9184,-2.8846,-2.8867,-2.9331,-2.9632,-2.9691,-2.9453,-2.8612,-2.8009,-2.777,-2.6964,-2.6386,-2.6135,-2.5272,-2.4675,-2.4481,-2.3559,-2.2706,-2.197,-2.2196,-2.1606,-2.0339,-2.0578,-2.0377,-1.9798,-1.9798,-1.9798,-1.9798,-1.9798,-1.9798,-1.9773,-1.956,-1.961,-1.9798,-1.9798,-1.9798,-1.9798,-1.9798,-1.9798,-1.9798,-1.9798,-1.9798,-1.9798,-1.9798,-1.9798,-1.9761,-1.9535,-1.9635,-1.9748,-1.9509,-1.9635,-1.9748,-1.9522,-1.9447,-1.9384,-1.9183,-1.9133,-1.9045,-1.8719,-1.8418,-1.8187,-1.8152,-1.831,-1.8438,-1.8438,-1.9036,-1.9305,-1.8841,-1.9185,-1.9421,-1.925,-1.9244,-1.9369,-1.9672,-1.9708,-1.9708,-1.9708,-1.9708,-1.9708,-1.9708,-1.9708,-1.9708,-1.9708,-1.9708,-1.9708,-1.9708,-1.9708,-1.9708,-1.9693,-1.9874,-2.0072,-3.2361,-3.1703,-3.1267,-3.118,-3.1045,-3.0615,-2.9586,-2.9103,-2.8772,-2.8405,-2.8168,0.0,0.0,0.0,-2.9162,-2.8762,0.0,-2.9741,-2.9578,-2.9691,-2.9942,-3.0344,-3.0043,-2.9792,-2.9792,-2.9792,-2.9729,-2.9566,-2.8649,-2.8047,-2.7896,-2.7014,-2.6499,-2.6499,-2.5536,-2.4938,-2.4788,-2.3822,-2.2982,-2.2309,-2.2443,-2.1958,-2.0918,-2.1069,-2.0754,-2.0037,-2.0037,-1.9949,-1.9798,-1.9798,-1.9798,-1.9798,-1.9798,-1.9798,-1.9798,-1.9798,-1.9798,-1.9798,-1.9798,-1.9798,-1.9798,-1.9798,-1.9798,-1.9798,-1.9798,-1.9798,-1.9798,-1.9798,-1.9798,-1.9798,-1.9798,-1.9798,-1.9798,-1.9798,-1.9798,-1.9798,-1.9798,-1.9798,-1.9685,-1.9284,-1.8782,-1.843,-1.843,-1.8254,-1.8181,-1.831,-1.9086,-1.9341,-1.8423,-1.8979,-1.9236,-1.8741,-1.8817,-1.9062,-1.9442,-1.9621,-1.9708,-1.9708,-1.9708,-1.9708,-1.9708,-1.9708,-1.9708,-1.9708,-1.9708,-1.9708,-1.9708,-1.9708,-1.9708,-1.9708,-1.9708,-1.9856,-3.1565,-3.1305,-3.1426,-3.1185,-3.1094,-3.0936,-3.0382,-3.0013,-2.9802,-2.9905,-2.9919,-2.9816,-2.9494,-2.994,-2.9852,-2.8356,-2.9063,0.0,0.0,-2.944,-2.9804,-2.9817,-2.9804,-2.9792,-2.9792,-2.9792,-2.9566,-2.8963,-2.8423,-2.7871,-2.7344,-2.6801,-2.6499,-2.6499,-2.5921,-2.5335,-2.48,-2.4255,-2.3414,-2.2322,-2.2832,-2.2506,-2.1481,-2.202,-2.1669,-2.0666,-2.0666,-2.0352,-1.9798,-1.9798,-1.9798,-1.9798,-1.9798,-1.9798,-1.9798,-1.9798,-1.9798,-1.9798,-1.9798,-1.9798,-1.9798,-1.9798,-1.9798,-1.9798,-1.9798,-1.9798,-1.9798,-1.9798,-1.9798,-1.9798,-1.9798,-1.9798,-1.9798,-1.9798,-1.9798,-1.9798,-1.9798,-1.9798,-1.9798,-1.9773,-1.9334,-1.897,-1.897,-1.8541,-1.8381,-1.889,-1.8995,-1.8986,-1.8892,-1.8513,-1.8206,-1.8121,-1.8593,-1.8912,-1.893,-1.9406,-1.9708,-1.9708,-1.9708,-1.9708,-1.9708,-1.9708,-1.9708,-1.9708,-1.9708,-1.9708,-1.9708,-1.9708,-1.9708,-1.9708,-1.9708,-1.9708,-3.0793,-3.0845,-3.1401,-3.1729,-3.1942,-3.2121,-3.2358,-3.1536,-3.0867,-3.1372,-3.1021,-3.063,-3.0521,-3.0965,-3.0956,-2.981,-3.024,-3.0455,0.0,-2.9666,-2.9792,-2.9792,-2.9792,-2.9792,-2.9792,-2.9453,-2.9139,-2.8913,-2.8411,-2.7871,-2.7318,-2.714,-2.6876,-2.6499,-2.59,-2.5511,-2.5335,-2.4443,-2.3803,-2.3427,-2.3195,-2.2719,-2.202,-2.1845,-2.1556,-2.1194,-2.044,-2.0226,-2.0365,-1.9962,-1.9798,-1.9798,-1.9798,-1.9798,-1.9798,-1.9798,-1.9798,-1.9798,-1.9798,-1.9798,-1.9798,-1.9798,-1.9798,-1.9798,-1.9798,-1.9798,-1.9798,-1.9798,-1.9798,-1.9798,-1.9798,-1.9798,-1.9798,-1.9798,-1.9798,-1.9798,-1.9798,-1.9798,-1.9798,-1.9798,-1.9359,-1.9108,-1.9459,-1.9079,-1.8678,-1.8499,-1.9154,-1.9235,-1.8055,-1.8428,-1.8468,-1.7651,-1.7727,-1.7987,-1.8341,-1.8535,-1.8949,-1.9657,-1.9369,-1.9332,-1.969,-1.9708,-1.9708,-1.9708,-1.9708,-1.9708,-1.9708,-1.9708,-1.9708,-1.9708,-1.9708,-1.9708,-2.9833,-2.9947,-3.0569,-3.119,-3.1536,-3.1975,-3.293,-3.2373,-3.1917,-3.284,-3.2616,-3.2145,-3.1815,-3.1935,-3.1818,-3.0958,-3.075,-3.0482,0.0,-2.9792,-2.9792,-2.9792,-2.9792,-2.9792,-2.9792,-2.9453,-2.9026,-2.8662,-2.831,-2.777,-2.7065,-2.7027,-2.6864,-2.6499,-2.6135,-2.5799,-2.5598,-2.4908,-2.4381,-2.3991,-2.3615,-2.312,-2.2556,-2.2234,-2.1857,-2.1443,-2.0715,-2.0388,-2.0352,-1.9962,-1.9798,-1.9798,-1.9798,-1.9798,-1.9798,-1.9798,-1.9798,-1.9798,-1.9798,-1.9798,-1.9798,-1.9798,-1.9798,-1.9798,-1.9798,-1.9798,-1.9849,-2.0049,-1.9962,-1.9849,-2.0049,-1.9962,-1.9798,-1.9798,-1.9798,-1.9798,-1.9798,-1.9798,-1.9798,-1.9798,-1.9509,-1.9384,-1.9748,-1.9497,-1.9183,-1.8832,-1.9414,-1.9457,-1.8149,-1.8605,-1.8682,-1.7726,-1.7612,-1.7744,-1.806,-1.8106,-1.84,-1.9095,-1.8817,-1.8765,-1.9132,-1.9314,-1.9424,-1.9424,-1.9603,-1.9708,-1.9708,-1.9708,-1.9708,-1.9708,-1.9708,-1.9708]},{"header":{"parameterUnit":"m.s-1","parameterCategory":1,"la1":30.6,"la2":29.2853,"lo1":-89.7004,"lo2":-87.6739,"dy":0.0162,"dx":0.0183,"nx":112,"ny":82,"refTime":"2023-05-08T12:00:00:Z","depth":0,"parameterNumber":3,"parameterNumberName":"V-component_of_WINDS"},"data":[0.0,0.0,0.0,0.0,0.0,0.0,0.0,0.0,0.0,0.0,0.0,0.0,0.0,0.0,0.0,0.0,0.0,0.0,0.0,0.0,0.0,0.0,0.0,0.0,0.0,0.0,0.0,0.0,0.0,0.0,0.0,0.0,0.0,0.0,0.0,0.0,0.0,0.0,0.0,0.0,0.0,0.0,0.0,0.0,0.0,0.0,0.0,0.0,0.0,0.0,0.0,0.0,0.0,0.0,0.0,0.0,0.0,0.0,0.0,0.0,0.0,0.0,0.0,0.0,0.0,0.0,0.0,0.0,0.0,0.0,0.0,0.0,0.0,0.0,0.0,0.0,0.0,0.0,0.0,0.0,0.0,0.0,0.0,0.0,0.0,0.0,0.0,0.0,0.0,0.0,-0.7183,-0.7525,-0.8323,-0.946,-1.1011,-1.1126,-1.1346,-1.1919,0.0,0.0,0.0,0.0,0.0,0.0,0.0,0.0,0.0,0.0,0.0,0.0,0.0,0.0,0.0,0.0,0.0,0.0,0.0,0.0,0.0,0.0,0.0,0.0,0.0,0.0,0.0,0.0,0.0,0.0,0.0,0.0,0.0,0.0,0.0,0.0,0.0,0.0,0.0,0.0,0.0,0.0,0.0,0.0,0.0,0.0,0.0,0.0,0.0,0.0,0.0,0.0,0.0,0.0,0.0,0.0,0.0,0.0,0.0,0.0,0.0,0.0,0.0,0.0,0.0,0.0,0.0,0.0,0.0,0.0,0.0,0.0,0.0,0.0,0.0,0.0,0.0,0.0,0.0,0.0,0.0,0.0,0.0,0.0,0.0,0.0,0.0,0.0,0.0,0.0,0.0,0.0,0.0,0.0,0.0,0.0,0.0,0.0,0.0,0.0,0.0,0.0,0.0,0.0,-0.7119,-0.8084,-0.8384,-0.9079,-1.0407,-1.1419,-1.2083,-1.2309,0.0,0.0,0.0,0.0,0.0,0.0,0.0,0.0,0.0,0.0,0.0,0.0,0.0,0.0,0.0,0.0,0.0,0.0,0.0,0.0,0.0,0.0,0.0,0.0,0.0,0.0,0.0,0.0,0.0,0.0,0.0,0.0,0.0,0.0,0.0,0.0,0.0,0.0,0.0,0.0,0.0,0.0,0.0,0.0,0.0,0.0,0.0,0.0,0.0,0.0,0.0,0.0,0.0,0.0,0.0,0.0,0.0,0.0,0.0,0.0,0.0,0.0,0.0,0.0,0.0,0.0,0.0,0.0,0.0,0.0,0.0,0.0,0.0,0.0,0.0,0.0,0.0,0.0,0.0,0.0,0.0,0.0,0.0,0.0,0.0,0.0,0.0,0.0,0.0,0.0,0.0,0.0,0.0,0.0,0.0,0.0,0.0,0.0,0.0,0.0,0.0,0.0,0.0,-0.6768,-0.7282,-0.8224,-0.898,-1.0026,-1.1456,-1.2597,-1.3242,-1.3312,-1.302,0.0,0.0,0.0,0.0,0.0,0.0,0.0,0.0,0.0,0.0,0.0,0.0,0.0,0.0,0.0,0.0,0.0,0.0,0.0,0.0,0.0,0.0,0.0,0.0,0.0,0.0,0.0,0.0,0.0,0.0,0.0,0.0,0.0,0.0,0.0,0.0,0.0,0.0,0.0,0.0,0.0,0.0,0.0,0.0,0.0,0.0,0.0,0.0,0.0,0.0,0.0,0.0,0.0,0.0,0.0,0.0,0.0,0.0,0.0,0.0,0.0,0.0,0.0,0.0,0.0,0.0,0.0,0.0,0.0,0.0,0.0,0.0,0.0,0.0,0.0,0.0,0.0,0.0,0.0,0.0,0.0,0.0,0.0,0.0,0.0,0.0,0.0,0.0,0.0,0.0,0.0,0.0,0.0,0.0,0.0,0.0,0.0,0.0,0.0,0.0,0.0,0.0,-0.7115,-0.7588,-0.8593,-0.9559,-1.0906,-1.2729,-1.3484,-1.3906,-1.4077,-1.3748,0.0,0.0,0.0,0.0,0.0,0.0,0.0,0.0,0.0,0.0,0.0,0.0,0.0,0.0,0.0,0.0,0.0,0.0,0.0,0.0,0.0,0.0,0.0,0.0,0.0,0.0,0.0,0.0,0.0,0.0,0.0,0.0,0.0,0.0,0.0,0.0,0.0,0.0,0.0,0.0,0.0,0.0,0.0,0.0,0.0,0.0,0.0,0.0,0.0,0.0,0.0,0.0,0.0,0.0,0.0,0.0,0.0,0.0,0.0,0.0,0.0,0.0,0.0,0.0,0.0,0.0,0.0,0.0,0.0,0.0,0.0,0.0,0.0,0.0,0.0,0.0,0.0,0.0,0.0,0.0,0.0,0.0,0.0,0.0,0.0,0.0,0.0,0.0,0.0,0.0,0.0,0.0,0.0,0.0,0.0,0.0,0.0,0.0,0.0,0.0,0.0,0.0,-0.7221,-0.8164,-0.9731,-0.9969,-1.1042,-1.3588,-1.338,-1.3359,-1.4037,-1.3554,0.0,0.0,0.0,0.0,0.0,0.0,0.0,0.0,0.0,0.0,0.0,0.0,0.0,0.0,0.0,0.0,0.0,0.0,0.0,0.0,0.0,0.0,0.0,0.0,0.0,0.0,0.0,0.0,0.0,0.0,0.0,0.0,0.0,0.0,0.0,0.0,0.0,0.0,0.0,0.0,0.0,0.0,0.0,0.0,0.0,0.0,0.0,0.0,0.0,0.0,0.0,0.0,0.0,0.0,0.0,0.0,0.0,0.0,0.0,0.0,0.0,0.0,0.0,0.0,0.0,0.0,0.0,0.0,0.0,0.0,0.0,0.0,0.0,0.0,0.0,0.0,0.0,0.0,0.0,0.0,0.0,0.0,0.0,0.0,0.0,0.0,0.0,0.0,0.0,0.0,0.0,0.0,0.0,0.0,0.0,0.0,0.0,0.0,0.0,0.0,0.0,0.0,-0.7143,-0.8117,-0.98,-1.073,-1.194,-1.3728,-1.4417,-1.4585,-1.4148,0.0,0.0,0.0,0.0,0.0,0.0,0.0,0.0,0.0,0.0,0.0,0.0,0.0,0.0,0.0,0.0,0.0,0.0,0.0,0.0,0.0,0.0,0.0,0.0,0.0,0.0,0.0,0.0,0.0,0.0,0.0,0.0,0.0,0.0,0.0,0.0,0.0,0.0,0.0,0.0,0.0,0.0,0.0,0.0,0.0,0.0,0.0,0.0,0.0,0.0,0.0,0.0,0.0,0.0,0.0,0.0,0.0,0.0,0.0,0.0,0.0,0.0,0.0,0.0,0.0,0.0,0.0,0.0,0.0,0.0,0.0,0.0,0.0,0.0,0.0,0.0,0.0,0.0,0.0,0.0,0.0,0.0,0.0,0.0,0.0,0.0,0.0,0.0,0.0,0.0,0.0,0.0,0.0,0.0,0.0,0.0,0.0,0.0,0.0,0.0,0.0,0.0,-0.6583,-0.7105,-0.8271,-1.0343,-1.1371,-1.2624,-1.4364,-1.5044,-1.4945,-1.4008,0.0,0.0,0.0,0.0,0.0,0.0,0.0,0.0,0.0,0.0,0.0,0.0,0.0,0.0,0.0,0.0,0.0,0.0,0.0,0.0,0.0,0.0,0.0,0.0,0.0,0.0,0.0,0.0,0.0,0.0,0.0,0.0,0.0,0.0,0.0,0.0,0.0,0.0,0.0,0.0,0.0,0.0,0.0,0.0,0.0,0.0,0.0,0.0,0.0,0.0,0.0,0.0,0.0,0.0,0.0,0.0,0.0,0.0,0.0,0.0,0.0,0.0,0.0,0.0,0.0,0.0,0.0,0.0,0.0,0.0,0.0,0.0,0.0,0.0,0.0,0.0,0.0,0.0,0.0,0.0,0.0,0.0,0.0,0.0,0.0,0.0,0.0,0.0,0.0,0.0,0.0,0.0,0.0,0.0,0.0,0.0,0.0,0.0,0.0,0.0,0.0,0.0,-0.6494,-0.7129,-0.8628,-1.1392,-1.1809,-1.2963,-1.5581,-1.503,-1.4233,0.0,0.0,0.0,0.0,0.0,0.0,0.0,0.0,0.0,0.0,0.0,0.0,0.0,0.0,0.0,0.0,0.0,0.0,0.0,0.0,0.0,0.0,0.0,0.0,0.0,0.0,0.0,0.0,0.0,0.0,0.0,0.0,0.0,0.0,0.0,0.0,0.0,0.0,0.0,0.0,0.0,0.0,0.0,0.0,0.0,0.0,0.0,0.0,0.0,0.0,0.0,0.0,0.0,0.0,0.0,0.0,0.0,0.0,0.0,0.0,0.0,0.0,0.0,0.0,0.0,0.0,0.0,0.0,0.0,0.0,0.0,0.0,0.0,0.0,0.0,0.0,0.0,0.0,0.0,0.0,0.0,0.0,0.0,0.0,0.0,0.0,0.0,0.0,0.0,0.0,0.0,0.0,0.0,0.0,0.0,0.0,0.0,0.0,0.0,0.0,0.0,0.0,0.0,-0.648,-0.6943,-0.8318,-1.1108,-1.1623,-1.28,-1.5285,-1.5284,-1.4796,-1.4008,0.0,0.0,0.0,0.0,0.0,0.0,0.0,0.0,0.0,0.0,0.0,0.0,0.0,0.0,0.0,0.0,0.0,0.0,0.0,0.0,0.0,0.0,0.0,0.0,0.0,0.0,0.0,0.0,0.0,0.0,0.0,0.0,0.0,0.0,0.0,0.0,0.0,0.0,0.0,0.0,0.0,0.0,0.0,0.0,0.0,0.0,0.0,0.0,0.0,0.0,0.0,0.0,0.0,0.0,0.0,0.0,0.0,0.0,0.0,0.0,0.0,0.0,0.0,0.0,0.0,0.0,0.0,0.0,0.0,0.0,0.0,0.0,0.0,0.0,0.0,0.0,0.0,0.0,0.0,0.0,0.0,0.0,0.0,0.0,0.0,0.0,0.0,0.0,0.0,0.0,0.0,0.0,0.0,0.0,0.0,0.0,0.0,0.0,0.0,0.0,0.0,0.0,-0.6474,-0.7285,-0.869,-1.097,-1.193,-1.317,-1.5094,-1.5224,-1.4794,-1.3661,0.0,0.0,0.0,0.0,0.0,0.0,0.0,0.0,0.0,0.0,0.0,0.0,0.0,0.0,0.0,0.0,0.0,0.0,0.0,0.0,0.0,0.0,0.0,0.0,0.0,0.0,0.0,0.0,0.0,0.0,0.0,0.0,0.0,0.0,0.0,0.0,0.0,0.0,0.0,0.0,0.0,0.0,0.0,0.0,0.0,0.0,0.0,0.0,0.0,0.0,0.0,0.0,0.0,0.0,0.0,0.0,0.0,0.0,0.0,0.0,0.0,0.0,0.0,0.0,0.0,0.0,0.0,0.0,0.0,0.0,0.0,0.0,0.0,0.0,0.0,0.0,0.0,0.0,0.0,0.0,0.0,0.0,0.0,0.0,0.0,0.0,0.0,0.0,0.0,0.0,0.0,0.0,0.0,0.0,0.0,0.0,0.0,0.0,0.0,0.0,0.0,0.0,-0.6474,-0.7888,-0.9437,-1.0889,-1.2438,-1.3792,-1.4854,-1.4968,-1.4365,-1.2958,0.0,0.0,0.0,0.0,0.0,0.0,0.0,0.0,0.0,0.0,0.0,0.0,0.0,0.0,0.0,0.0,0.0,0.0,0.0,0.0,0.0,0.0,0.0,0.0,0.0,0.0,0.0,0.0,0.0,0.0,0.0,0.0,0.0,0.0,0.0,0.0,0.0,0.0,0.0,0.0,0.0,0.0,0.0,0.0,0.0,0.0,0.0,0.0,0.0,0.0,0.0,0.0,0.0,0.0,0.0,0.0,0.0,0.0,0.0,0.0,0.7023,0.5514,0.0,0.0,0.0,0.0,0.0,0.0,0.0,0.0,0.0,0.0,0.0,0.0,0.0,0.0,0.0,0.0,0.0,0.0,0.0,0.0,0.0,0.0,0.0,0.0,0.0,0.0,0.0,0.0,0.0,0.0,0.0,0.0,0.0,0.0,0.0,0.0,0.0,0.0,0.0,0.0,-0.6474,-0.7669,-0.907,-1.0554,-1.2026,-1.3401,-1.4528,-1.4616,-1.4282,-1.346,-1.2792,0.0,0.0,0.0,0.0,0.0,0.0,0.0,0.0,0.0,0.0,0.0,0.0,0.0,0.0,0.0,0.0,0.0,0.0,0.0,0.0,0.0,0.0,0.0,0.0,0.0,0.0,0.0,0.0,0.0,0.0,0.0,0.0,0.0,0.0,0.0,0.0,0.0,0.0,0.0,0.0,0.0,0.0,0.0,0.0,0.0,0.0,0.0,0.0,0.0,0.0,0.0,0.0,0.0,0.0,0.0,0.0,0.0,0.0,0.0,0.7255,0.6079,0.0,0.0,0.0,0.0,0.0,0.0,0.0,0.0,0.0,0.0,0.0,0.0,0.0,0.0,0.0,0.0,0.0,0.0,0.0,0.0,0.0,0.0,0.0,0.0,0.0,0.0,0.0,0.0,0.0,0.0,0.0,0.0,0.0,0.0,0.0,0.0,0.0,0.0,0.0,0.0,-0.7287,-0.8508,-0.9827,-1.1246,-1.2742,-1.3785,-1.4279,-1.4442,-1.4208,-1.344,-1.2859,0.0,0.0,0.0,0.0,0.0,0.0,0.0,0.0,0.0,0.0,0.0,0.0,0.0,0.0,0.0,0.0,0.0,0.0,0.0,0.0,0.0,0.0,0.0,0.0,0.0,0.0,0.0,0.0,0.0,0.0,0.0,0.0,0.0,0.0,0.0,0.0,0.0,0.0,0.0,0.0,0.0,0.0,0.0,0.0,0.0,0.0,0.0,0.0,0.0,0.0,0.0,0.0,0.0,0.852,0.8598,0.8604,0.873,0.8788,0.8703,0.7154,0.6443,0.6197,0.3641,0.0,0.0,0.0,0.0,0.0,0.0,0.0,0.0,0.0,0.0,0.0,0.0,0.0,0.0,0.0,0.0,0.0,0.0,0.0,0.0,0.0,0.0,-0.0224,-0.1097,-0.1478,-0.1856,-0.2701,0.0,0.0,0.0,0.0,0.0,0.0,0.0,0.0,0.0,0.0,0.0,-0.8211,-0.9392,-1.0678,-1.2078,-1.3468,-1.4215,-1.4028,-1.4229,-1.4055,-1.3333,-1.3038,-1.2623,0.0,0.0,0.0,0.0,0.0,0.0,0.0,0.0,0.0,0.0,0.0,0.0,0.0,0.0,0.0,0.0,0.0,0.0,0.0,0.0,0.0,0.0,0.0,0.0,0.0,0.0,0.0,0.0,0.0,0.0,0.0,0.0,1.9981,1.8622,0.0,0.0,0.0,0.0,0.0,0.0,0.0,0.0,0.0,0.0,0.0,0.0,0.0,0.9225,0.8231,0.8455,0.8611,0.8655,0.8989,0.9122,0.9122,0.9142,0.9149,0.9083,0.8711,0.0,0.654,0.4897,0.0,0.0,0.0,0.0,0.0,0.0,0.0,0.0,0.0,0.0,0.0,0.0,0.0,0.0,0.0,0.0,0.0,0.0,0.0,0.0,0.0,0.0,-0.0046,-0.018,-0.1031,-0.1793,-0.1956,-0.3485,-0.4879,-0.4864,-0.5747,-0.647,0.0,0.0,0.0,0.0,0.0,0.0,-0.8228,-0.9183,-1.0317,-1.1816,-1.2798,-1.3467,-1.3646,-1.37,-1.3666,-1.3553,-1.3313,-1.2993,-1.2683,-1.1857,0.0,0.0,0.0,0.0,0.0,0.0,0.0,0.0,0.0,0.0,0.0,0.0,0.0,0.0,0.0,0.0,0.0,0.0,0.0,0.0,0.0,0.0,0.0,0.0,0.0,0.0,0.0,0.0,0.0,2.1648,2.0967,1.87,1.8133,1.7262,0.0,0.0,0.0,0.0,0.0,0.0,0.0,0.0,0.0,1.2641,1.1328,1.0454,1.01,0.9329,0.9045,0.9215,0.9259,0.9327,0.9405,0.932,0.934,0.9333,0.9215,0.8736,0.7843,0.624,0.4704,0.3177,0.0,0.0,0.0,0.0,0.0,0.0,0.0,0.0,0.0,0.0,0.0,0.0,0.0,0.0,0.0,0.0,0.0,0.0,0.0,0.0,-0.0185,-0.0869,-0.1426,-0.194,-0.2507,-0.3887,-0.5,-0.5026,-0.5898,-0.6573,-0.6525,-0.6395,0.0,0.0,0.0,-0.6993,-0.8892,-0.9444,-1.0458,-1.2398,-1.2955,-1.326,-1.3353,-1.3507,-1.36,-1.36,-1.3487,-1.332,-1.3019,-1.2509,-1.2107,0.0,0.0,0.0,0.0,0.0,0.0,0.0,0.0,0.0,0.0,0.0,0.0,0.0,0.0,0.0,0.0,0.0,0.0,0.0,0.0,0.0,0.0,0.0,0.0,0.0,0.0,0.0,0.0,2.2706,2.22,1.9369,1.9468,1.8716,0.0,0.0,0.0,0.0,0.0,0.0,1.6152,1.5523,1.518,1.5084,1.3338,1.2124,1.1629,1.0494,0.9822,0.9608,0.9493,0.9479,0.9547,0.9435,0.9361,0.932,0.9283,0.912,0.8742,0.7182,0.5819,0.4554,0.2717,0.1386,0.0477,0.0143,0.0,0.0,0.0,0.0,0.0,0.0,0.0,0.0,0.0,0.0,0.0,0.0,0.0,0.0,0.0,-0.0226,-0.0637,-0.1545,-0.2198,-0.28,-0.3564,-0.4641,-0.5391,-0.5104,-0.5919,-0.6607,-0.6532,-0.6395,0.0,-0.63,-0.63,-0.7122,-0.9404,-0.9652,-1.0489,-1.2857,-1.3019,-1.3006,-1.3086,-1.332,-1.3527,-1.36,-1.3673,-1.3553,-1.3227,-1.2951,-1.2543,-1.2027,0.0,0.0,0.0,0.0,0.0,0.0,0.0,0.0,0.0,0.0,0.0,0.0,0.0,0.0,0.0,0.0,0.0,0.0,0.0,0.0,0.0,0.0,0.0,0.0,0.0,0.0,0.0,0.0,0.0,2.1794,2.139,0.0,0.0,0.0,0.0,1.664,1.664,1.6767,1.7119,1.7094,1.667,1.5897,1.5838,1.4613,1.2017,1.2022,1.1208,0.9608,0.9602,0.9527,0.9391,0.9384,0.9361,0.9214,0.9022,0.8869,0.8612,0.7229,0.6482,0.5919,0.3098,0.1981,0.1761,0.0477,0.0,0.0,0.0,0.0,0.0,0.0,0.0,0.0,0.0,0.0,0.0,0.0,0.0,0.0,0.0,-0.0751,-0.1522,-0.1608,-0.3208,-0.4764,-0.4801,-0.5662,-0.6131,-0.5099,-0.5758,-0.6521,-0.6515,0.0,-0.63,-0.63,-0.63,-0.7122,-0.9404,-0.9481,-1.0236,-1.2579,-1.2556,-1.2465,-1.2784,-1.3053,-1.3313,-1.3586,-1.3908,-1.3808,-1.3233,-1.2951,-1.2636,-1.2285,-1.173,0.0,0.0,0.0,0.0,0.0,0.0,0.0,0.0,0.0,0.0,0.0,0.0,0.0,0.0,0.0,0.0,0.0,0.0,0.0,0.0,0.0,0.0,0.0,0.0,0.0,0.0,0.0,0.0,2.3755,2.3494,0.0,1.9589,1.824,1.7562,1.7549,1.7562,1.7695,1.7996,1.819,1.8071,1.7588,1.6773,1.5388,1.3441,1.2283,1.1012,0.9608,0.9408,0.9344,0.9286,0.9039,0.892,0.8859,0.871,0.8564,0.8425,0.7952,0.7182,0.6174,0.501,0.3519,0.2023,0.2416,0.1476,0.0147,0.098,0.0729,0.0,0.0,0.0,0.0,0.0,0.0,0.0,0.0,0.0,0.0,0.0,-0.0778,-0.1781,-0.2501,-0.3832,-0.509,-0.5793,-0.6226,-0.6354,-0.5882,-0.6126,-0.6405,-0.6497,-0.6395,-0.63,-0.63,-0.63,-0.6813,-0.8297,-0.8966,-0.9852,-1.1339,-1.1981,-1.2345,-1.2489,-1.2777,-1.2998,-1.3099,-1.3353,-1.334,-1.2965,-1.2844,-1.2462,-1.1715,-1.1717,-1.1483,0.0,0.0,0.0,0.0,0.0,0.0,0.0,0.0,0.0,0.0,0.0,0.0,0.0,0.0,0.0,0.0,0.0,0.0,0.0,0.0,0.0,0.0,0.0,0.0,0.0,2.6602,2.7112,2.4986,2.5382,2.4549,2.1263,2.0123,1.9284,1.868,1.8631,1.8677,1.8784,1.8971,1.8938,1.8644,1.7774,1.6539,1.4834,1.3141,1.1574,1.0139,0.9422,0.9052,0.8994,0.8747,0.8632,0.8625,0.8476,0.8357,0.832,0.8214,0.7677,0.6791,0.6208,0.4922,0.3417,0.3815,0.2831,0.1321,0.1798,0.1101,0.0,0.0,0.0,0.0,0.0,0.0,0.0,0.0,0.0,0.0,0.0,-0.1061,-0.2278,-0.3063,-0.4321,-0.5534,-0.6195,-0.6322,-0.6278,-0.617,-0.6187,-0.6213,-0.6305,-0.6244,-0.6183,-0.6183,-0.6265,-0.6679,-0.7668,-0.8389,-0.9291,-1.0677,-1.1391,-1.1922,-1.2268,-1.2616,-1.2784,-1.2784,-1.3039,-1.3026,-1.265,-1.273,-1.2415,-1.159,-1.167,-1.1383,-1.074,0.0,0.0,0.0,0.0,0.0,0.0,0.0,0.0,0.0,0.0,0.0,0.0,0.0,0.0,0.0,0.0,0.0,0.0,0.0,0.0,0.0,0.0,0.0,2.581,2.7256,2.7583,2.5577,2.6956,2.6458,2.2397,2.244,2.1934,1.9991,1.9846,1.9659,1.9379,1.9424,1.9225,1.8918,1.8911,1.8012,1.613,1.4646,1.3069,1.1247,0.971,0.8852,0.8699,0.8547,0.8476,0.8469,0.8326,0.8313,0.8252,0.8102,0.7988,0.7889,0.6581,0.6029,0.5827,0.4566,0.4016,0.365,0.2342,0.1079,0.0046,0.0046,0.0046,0.0,0.0,0.0,0.0,0.0,0.0,0.0,0.0,-0.1509,-0.3071,-0.3068,-0.4723,-0.621,-0.602,-0.5986,-0.5942,-0.583,-0.5918,-0.5979,-0.5986,-0.5986,-0.5986,-0.5993,-0.6159,0.0,-0.7668,-0.7821,-0.8609,-1.0596,-1.082,-1.1236,-1.2224,-1.2603,-1.2764,-1.2757,-1.3006,-1.2899,-1.2298,-1.2596,-1.2489,-1.1913,-1.1557,-1.1269,-1.1075,0.0,0.0,0.0,0.0,0.0,0.0,0.0,0.0,0.0,0.0,0.0,0.0,0.0,0.0,0.0,0.0,0.0,0.0,0.0,0.0,0.0,2.6913,2.7327,2.7148,2.834,2.9128,2.8843,2.8522,2.7776,2.6409,2.4082,2.2394,2.1584,2.0282,1.9511,1.943,1.9424,1.9132,1.8624,1.8611,1.7723,1.5812,1.5287,1.3684,1.1177,1.0616,0.9697,0.854,0.8394,0.8381,0.8319,0.817,0.8102,0.8099,0.8008,0.7988,0.7939,0.7587,0.6833,0.6069,0.6573,0.6069,0.4904,0.3569,0.2311,0.1307,0.1286,0.0712,0.0,0.0,0.0,0.0,0.0,0.0,0.0,0.0,-0.1012,-0.2164,-0.2821,-0.4016,-0.5139,-0.5712,-0.5864,-0.585,-0.581,-0.5752,-0.5742,-0.5847,-0.5864,-0.5901,-0.5976,-0.6064,-0.6507,-0.7651,-0.8428,-0.9367,-1.0671,-1.1465,-1.1996,-1.2268,-1.2378,-1.2331,-1.2161,-1.2228,-1.2064,-1.1648,-1.1986,-1.2067,-1.1906,-1.1196,-1.1323,0.0,0.0,0.0,0.0,0.0,0.0,0.0,0.0,0.0,0.0,0.0,0.0,0.0,0.0,0.0,0.0,0.0,0.0,0.0,0.0,0.0,0.0,2.8297,2.8525,2.8701,2.9365,2.999,3.043,2.9859,2.9059,2.8002,2.5435,2.3402,2.2218,2.0543,1.9499,1.943,1.9424,1.9098,1.851,1.849,1.7831,1.6528,1.566,1.4406,1.2695,1.1864,1.0686,0.9198,0.9092,0.8722,0.817,0.8029,0.7988,0.7988,0.7988,0.7988,0.7988,0.0,0.0,0.0,0.0,0.6768,0.5469,0.4631,0.3508,0.2378,0.1958,0.1304,0.0565,0.0127,0.0,0.0,0.0,0.0,0.0,0.0,-0.0787,-0.1726,-0.2242,-0.3448,-0.4598,-0.5021,-0.5425,-0.5694,-0.563,-0.5586,0.0,-0.5518,-0.5627,-0.5742,-0.5833,-0.5895,-0.6184,-0.6868,-0.7801,-0.8827,-0.995,-1.0924,-1.1719,-1.2254,-1.2305,0.0,0.0,0.0,-1.1737,-1.1402,-1.1476,0.0,0.0,0.0,-1.1202,-1.2107,-1.192,0.0,0.0,-1.3274,-1.4057,0.0,0.0,0.0,0.0,0.0,0.0,0.0,0.0,0.0,0.0,0.0,0.0,0.0,0.0,0.0,0.0,2.9819,3.0056,3.048,3.0378,3.041,3.0771,3.081,3.0093,2.8171,2.6587,2.475,2.2682,2.0962,1.992,1.9662,1.9448,0.0,0.0,0.0,1.8116,1.7542,1.5971,1.508,1.489,1.3215,1.1699,1.0377,1.0119,0.941,0.8432,0.8137,0.8088,0.8237,0.8038,0.7978,0.7965,0.7965,0.7864,0.7729,0.7468,0.6706,0.5751,0.5599,0.0,0.0,0.2453,0.1913,0.1425,0.046,0.0084,0.0,0.0,0.0,0.0,0.0,-0.0689,-0.1458,-0.153,-0.2889,-0.4156,-0.4156,-0.4829,-0.5419,-0.5386,-0.5395,-0.5351,-0.5179,-0.5382,-0.5562,-0.5562,-0.5684,-0.5818,-0.594,-0.6651,-0.7682,-0.9119,-0.991,0.0,-1.2151,-1.2225,-1.2191,-1.2158,-1.1884,-1.1617,-1.139,-1.1096,-1.0962,-1.0995,-1.0962,-1.0942,-1.0942,-1.0942,-1.1096,-1.1417,-1.3506,-1.4691,0.0,0.0,0.0,0.0,0.0,0.0,0.0,0.0,0.0,0.0,0.0,0.0,0.0,0.0,0.0,3.3761,3.2745,3.2027,3.2483,3.1522,3.0644,3.0361,3.0332,3.0042,2.9323,2.7583,2.6305,2.5809,2.2961,2.1211,2.1202,1.9797,1.8851,1.8504,1.8016,1.7589,1.7286,1.6673,1.5746,1.4407,1.4054,0.0,1.1516,1.0502,1.0435,1.1019,0.892,0.8627,0.9509,0.8432,0.7917,0.7855,0.7855,0.7692,0.7448,0.7439,0.7083,0.666,0.6631,0.5712,0.4541,0.4376,0.3065,0.1541,0.1366,0.0685,0.0,0.0,0.0,0.0,0.0,-0.0147,-0.0474,-0.1205,-0.1653,-0.2303,-0.3734,-0.4182,-0.4515,-0.5266,-0.5395,-0.5385,-0.5354,-0.5399,-0.544,-0.544,-0.5569,-0.5983,-0.6876,-0.7141,-0.803,-1.0102,-1.0231,-1.0637,-1.1852,-1.1737,-1.1496,-1.1263,-1.1008,-1.0928,-1.1069,-1.0827,-1.0787,-1.0989,-1.0794,-1.0673,-1.0673,-1.0673,-1.0827,-1.1115,-1.258,-1.3636,0.0,0.0,0.0,0.0,0.0,0.0,0.0,0.0,0.0,0.0,0.0,3.4801,3.509,0.0,3.4966,3.5738,3.4103,3.2805,3.3046,3.1815,3.0801,3.0576,3.0342,3.0029,2.9665,2.7865,2.6633,2.6425,2.3931,2.2116,2.1451,2.0332,1.9188,1.8104,1.7742,1.7368,1.6934,1.6633,1.6111,1.5311,1.5118,1.4298,1.2866,1.2231,1.194,1.1843,1.0374,1.0136,1.0658,0.9228,0.8244,0.759,0.759,0.7502,0.7398,0.7204,0.7058,0.6876,0.6841,0.6335,0.563,0.5079,0.4127,0.2941,0.1932,0.1226,0.0674,0.0153,0.0,0.0,0.0,0.0,-0.0107,-0.0553,-0.0993,-0.1533,-0.245,-0.3347,-0.4132,-0.4534,-0.5042,-0.5347,-0.5165,-0.5296,-0.5395,-0.5395,-0.5362,-0.5577,-0.6272,-0.6732,-0.7486,-0.8709,-0.9467,-1.019,-1.0946,-1.1268,-1.1303,-1.1009,-1.0855,-1.0807,-1.0807,-1.0494,-1.0474,-1.0801,-1.0488,-1.0445,-1.0593,-1.0445,-1.0488,-1.0801,-1.1129,-1.2298,0.0,0.0,0.0,0.0,0.0,0.0,0.0,3.342,3.3621,3.5203,3.5617,3.5931,3.6757,3.6321,3.6189,3.7132,3.54,3.3845,3.3575,3.2264,3.1189,3.082,3.0351,2.9912,2.9482,2.7975,2.682,2.6462,2.4659,2.3097,2.1932,2.09,1.9594,1.8062,1.7565,1.7101,1.6627,1.6333,1.6186,1.6186,1.5945,1.5242,1.4268,1.4022,1.3445,1.2614,1.2078,1.1712,1.1328,0.987,0.8658,0.7727,0.7427,0.7309,0.7258,0.7017,0.6849,0.682,0.6698,0.6559,0.6311,0.5468,0.4962,0.4375,0.2699,0.1913,0.1434,0.057,0.015,0.0,0.0,0.0,0.0,0.0,-0.0538,-0.1106,-0.1274,-0.2433,-0.3495,-0.3572,-0.4393,-0.5013,-0.4776,-0.5039,-0.5317,-0.5344,-0.5237,-0.522,-0.5378,-0.6009,-0.6597,-0.7061,-0.8327,-0.9349,-0.9901,-1.0691,-1.1069,-1.0835,-1.0768,-1.0667,-1.0432,-1.016,-1.0147,-1.0419,-1.0154,-1.0154,-1.0419,-1.0147,-1.0154,-1.0405,-0.993,-1.1118,3.6237,3.4844,3.4281,3.5325,3.4643,3.4613,0.0,3.7701,3.696,3.8165,3.8793,3.9019,3.8655,3.893,3.924,3.9353,3.8036,3.6541,3.5233,3.38,3.2204,3.0484,2.9902,2.9473,2.9033,2.8441,2.797,2.7544,2.6028,2.4916,2.4421,2.1426,1.9606,1.9376,1.746,1.6386,1.6375,1.6025,1.5879,1.5879,1.5798,1.573,1.554,1.4411,1.4459,1.5276,1.3837,1.2423,1.1058,0.9667,0.9038,0.8779,0.7612,0.7045,0.6933,0.69,0.6756,0.6562,0.6545,0.6443,0.6285,0.6168,0.5485,0.4647,0.4414,0.3081,0.1592,0.1437,0.0733,0.0,0.0,0.0,0.0,0.0,-0.0067,-0.037,-0.114,-0.1447,-0.184,-0.2663,-0.3434,-0.3996,-0.4101,-0.4587,-0.5009,-0.5106,-0.5257,-0.5375,-0.5392,-0.5491,-0.5948,-0.6997,-0.7056,-0.7676,-0.9253,-0.9907,-1.0217,-1.0214,-0.9973,-0.9842,-0.9809,-0.9775,-0.9746,-0.9809,-0.9775,-0.9746,-0.9809,-0.9746,-0.9775,-0.9809,-0.9742,-1.0552,3.8987,3.7901,3.7083,3.6834,3.6867,3.7147,3.8048,3.7688,3.76,3.9057,3.9534,3.9722,3.981,3.9747,3.9798,4.0124,3.8672,3.7305,3.6649,3.5019,3.324,3.1692,3.0836,3.0021,2.899,2.8535,2.8115,2.7748,2.6873,2.5796,2.4591,2.2644,2.1147,2.0192,1.833,1.7603,1.8153,1.6583,1.615,1.6897,1.6157,1.5784,1.5778,1.5242,1.5115,1.5311,1.4411,1.3209,1.1756,1.1172,1.0567,0.9851,0.8533,0.7936,0.77,0.7042,0.6658,0.6501,0.6416,0.6351,0.63,0.63,0.5983,0.5512,0.4882,0.4031,0.3156,0.252,0.1583,0.0767,0.0755,0.0373,0.0,0.0,0.0,-0.0101,-0.0461,-0.0941,-0.1402,-0.1719,-0.2511,-0.33,-0.381,-0.4145,-0.4556,-0.5026,-0.5186,-0.5226,-0.5226,-0.5341,-0.5778,-0.6768,-0.6771,-0.7209,-0.8452,-0.9046,-0.9358,-0.9358,-0.9567,-0.9715,-0.9715,-0.9519,-0.9506,-0.9708,-0.9512,-0.9512,-0.9715,-0.9512,-0.9512,-0.9708,-0.9332,-0.9684,4.01,3.9776,3.9408,3.8822,3.9402,3.9821,3.8666,3.8426,3.8636,3.9536,3.9697,3.9823,4.0212,3.9961,3.9823,4.0224,3.9062,3.7967,3.7571,3.6089,3.432,3.2471,3.1493,3.0393,2.8859,2.8369,2.7939,2.7519,2.709,2.617,2.459,2.3499,2.2315,2.1018,1.9375,1.8793,1.9497,1.7708,1.7257,1.8187,1.6936,1.6339,1.6292,1.5886,1.5438,1.4995,1.4649,1.3862,1.276,1.2378,1.1708,1.0836,0.948,0.8698,0.8203,0.7364,0.6781,0.6433,0.6286,0.6265,0.6293,0.6248,0.6235,0.6078,0.5301,0.4766,0.4269,0.3459,0.2516,0.1686,0.1699,0.1013,0.037,0.0367,0.0166,0.0,0.0,-0.0507,-0.09,-0.083,-0.1574,-0.2434,-0.3,-0.3364,-0.3869,-0.4668,-0.481,-0.4861,-0.5014,-0.5169,-0.5496,-0.6125,-0.6406,-0.6917,-0.7743,-0.8304,-0.8711,-0.889,-0.924,-0.9446,-0.9446,-0.9211,-0.9191,-0.9439,-0.9204,-0.9198,-0.9446,-0.9198,-0.9204,-0.9432,-0.9005,-0.914,3.8461,3.9029,4.0026,4.1794,4.2449,4.2375,4.1625,4.1475,4.1104,3.9917,3.9697,3.9697,3.9722,3.9697,3.9697,3.9722,3.9645,3.9129,3.769,3.7013,3.5432,3.22,3.1304,3.0269,2.85,2.793,2.75,2.707,2.665,2.6025,2.5099,2.3522,2.2404,2.196,2.0354,1.9459,1.9497,1.9443,1.9397,1.9443,1.8234,1.7638,1.7584,1.6081,1.5244,1.4995,1.4649,1.4312,1.3928,1.2486,1.1875,1.1722,1.0249,0.898,0.8013,0.7974,0.7246,0.6282,0.6091,0.6135,0.6276,0.6084,0.6,0.6,0.5962,0.5138,0.4219,0.418,0.3424,0.2663,0.2664,0.1948,0.1265,0.1266,0.0613,0.0,0.0,-0.003,-0.003,-0.0029,-0.0631,-0.119,-0.1345,-0.2028,-0.2881,-0.3877,-0.4038,-0.4253,-0.4819,-0.4897,-0.4931,-0.4962,-0.5707,-0.6503,-0.725,-0.7868,-0.8499,-0.9154,-0.8964,-0.8831,-0.8831,-0.8824,-0.8824,-0.8831,-0.8824,-0.8824,-0.8831,-0.8824,-0.8824,-0.8831,-0.8818,-0.9173,3.9484,4.1192,4.286,4.3575,4.4126,4.4202,4.3129,4.2217,4.1455,4.1032,3.9407,3.814,3.8504,3.8278,3.8153,3.8517,3.9207,3.953,3.9025,3.8504,3.7248,3.4861,3.4085,3.2663,2.9911,2.8468,2.748,2.7051,2.6357,2.5693,2.5145,2.4006,2.3326,2.3193,2.1563,2.1078,2.1863,2.0314,1.9898,2.0666,1.9488,1.837,1.7325,1.6645,1.5718,1.4656,1.4355,1.4068,1.374,1.3216,1.2939,1.262,1.122,1.0477,1.0034,0.9188,0.8129,0.699,0.6268,0.6027,0.6098,0.601,0.5993,0.5993,0.5993,0.5666,0.5255,0.5144,0.4375,0.3553,0.3554,0.2828,0.2082,0.2095,0.1395,0.0744,0.0722,0.0356,0.0,0.0,-0.0198,-0.0566,-0.1197,-0.1524,-0.2164,-0.3542,-0.4241,-0.4693,-0.4991,-0.4891,-0.4806,-0.4877,-0.5157,-0.5423,-0.5691,-0.6256,-0.6909,-0.7616,-0.7919,-0.8295,-0.8785,-0.8804,-0.8804,-0.8804,-0.8804,-0.8804,-0.8804,-0.8804,-0.8804,-0.8804,-0.8804,-0.8936,4.1025,4.2851,4.4471,4.5258,4.577,4.5734,4.4456,4.3385,4.2378,4.1484,3.9293,3.7486,3.7446,3.7136,3.696,3.7098,3.8065,3.8868,3.9069,3.8454,3.7593,3.6413,3.5485,3.3769,3.0883,2.9105,2.786,2.7082,2.6171,2.5469,2.4863,2.417,2.3721,2.3564,2.2492,2.2306,2.3091,2.1543,2.0944,2.1293,2.0347,1.9175,1.7776,1.6917,1.6009,1.5038,1.4264,1.378,1.3586,1.3407,1.3213,1.2974,1.1973,1.1359,1.0942,1.0045,0.8968,0.7809,0.6801,0.6239,0.5902,0.5888,0.5874,0.5874,0.5874,0.5766,0.5627,0.5569,0.5026,0.4483,0.4483,0.3767,0.3016,0.2989,0.2276,0.152,0.1165,0.0722,0.0316,0.0056,0.0,-0.0169,-0.0748,-0.1097,-0.1634,-0.263,-0.3505,-0.4243,-0.4823,-0.4724,-0.4675,-0.4745,-0.4755,-0.4843,-0.51,-0.5457,-0.6005,-0.6733,-0.7127,-0.7509,-0.7996,-0.8268,-0.8401,-0.8401,-0.8672,-0.8804,-0.8804,-0.8804,-0.8804,-0.8804,-0.8804,-0.8804,4.2841,4.3873,4.493,4.683,4.7309,4.696,4.5735,4.4885,4.3738,4.1321,3.9296,3.7612,3.6472,3.6292,3.6144,3.5545,3.6521,3.75,3.8015,3.7211,3.6662,3.684,3.5499,3.3707,3.1496,3.0005,2.8636,2.7216,2.6201,2.5274,2.4463,2.4014,2.3584,2.311,2.3091,2.3091,2.3091,2.3091,2.2545,2.1382,2.0992,2.0132,1.891,1.7122,1.6252,1.608,1.4448,1.3709,1.3615,1.3103,1.2815,1.273,1.2398,1.1681,1.0828,1.0556,0.9766,0.8711,0.7757,0.6742,0.5837,0.5773,0.5693,0.5658,0.5658,0.5589,0.5468,0.5428,0.5395,0.5395,0.5395,0.4749,0.402,0.3895,0.319,0.2322,0.1416,0.1146,0.0895,0.0196,0.0028,0.0,0.0,-0.069,-0.126,-0.1291,-0.1933,-0.2921,-0.4265,-0.4439,-0.446,-0.4491,-0.4491,-0.4759,-0.5406,-0.546,-0.5764,-0.6507,-0.6534,-0.6561,-0.6588,-0.7262,-0.7643,-0.7643,-0.8374,-0.8752,-0.8752,-0.8785,-0.8804,-0.8804,-0.8804,-0.8804,4.3928,4.5274,4.6666,4.7174,4.7309,4.7073,4.6264,4.5186,4.3814,4.1676,3.8596,3.5845,3.4624,3.4818,3.5102,3.4906,3.7249,3.9094,3.9245,3.9032,3.8592,3.7791,3.732,3.6148,3.3769,3.2857,3.1267,2.8686,2.6463,2.5,2.4443,2.4014,2.3584,2.311,2.3091,2.3091,2.3091,2.3091,2.296,2.2633,2.2212,2.1276,1.9821,1.9077,1.8094,1.6958,1.6221,1.5377,1.4469,1.4037,1.3283,1.2385,1.2091,1.1959,1.1857,1.133,1.0545,0.97,0.9246,0.8001,0.6729,0.7334,0.7112,0.6565,0.6565,0.6537,0.6372,0.5622,0.5395,0.5395,0.5395,0.5111,0.4788,0.4651,0.3953,0.3226,0.2813,0.187,0.1034,0.0866,0.0364,0.0,0.0,-0.0172,-0.0515,-0.1054,-0.1323,-0.2019,-0.3639,-0.3708,-0.3846,-0.4436,-0.4491,-0.457,-0.4732,-0.4759,-0.5058,-0.5733,-0.5787,-0.6036,-0.6588,-0.6777,-0.6885,-0.6885,-0.7616,-0.799,-0.799,-0.8533,-0.8804,-0.8804,-0.8804,-0.8804,4.511,4.6232,4.7309,4.7309,4.7085,4.6621,4.5622,4.4448,4.2896,4.0625,3.781,3.5271,3.3608,3.4192,3.4736,3.4123,3.6584,3.868,3.8919,3.8743,3.8542,3.8404,3.7952,3.68,3.4615,3.3684,3.2191,2.9623,2.7216,2.5471,2.4434,2.3838,2.3344,2.3101,2.3091,2.3091,2.3091,2.3091,2.3003,2.2818,2.2441,2.1701,2.0623,1.9715,1.8874,1.7994,1.6921,1.6071,1.5357,1.4842,1.39,1.2748,1.2713,1.2356,1.1877,1.1509,1.1036,1.0476,1.0207,0.9145,0.7983,0.8082,0.7783,0.7383,0.7383,0.7116,0.6693,0.6135,0.5686,0.5395,0.5395,0.533,0.5179,0.4938,0.452,0.4019,0.3464,0.2704,0.1898,0.1229,0.0755,0.0366,0.0057,0.0,-0.0141,-0.0545,-0.0623,-0.1069,-0.2347,-0.2962,-0.3483,-0.3959,-0.4294,-0.4491,-0.4491,-0.4491,-0.4653,-0.503,-0.5054,-0.525,-0.566,-0.5955,-0.6118,-0.6118,-0.7149,-0.7696,-0.7696,-0.8427,-0.8804,-0.8804,-0.8804,-0.8804,4.6292,4.6875,4.7279,4.7189,4.6741,4.5876,4.4407,4.318,4.1647,3.8986,3.7125,3.5372,3.334,3.4109,3.4725,3.3665,3.5571,3.7425,3.814,3.7814,3.7826,3.8655,3.7889,3.6563,3.4739,3.3683,3.2311,3.0302,2.8351,2.6567,2.4965,2.3964,2.3325,2.3101,2.3091,2.3091,2.3091,2.3042,2.2857,2.2588,2.2051,2.1631,2.1259,1.9862,1.9195,1.911,1.7358,1.6531,1.6359,1.5668,1.4665,1.356,1.3624,1.2834,1.1661,1.1444,1.1236,1.1002,1.0707,1.011,0.9338,0.8581,0.8253,0.8156,0.8156,0.7632,0.7013,0.6915,0.6334,0.5716,0.5566,0.5526,0.5416,0.4989,0.486,0.4631,0.373,0.3456,0.2954,0.1535,0.1257,0.1006,0.028,0.014,0.0112,0.0028,0.0,-0.0224,-0.0867,-0.2147,-0.3093,-0.3372,-0.3959,-0.4405,-0.4491,-0.4491,-0.4491,-0.4491,-0.4491,-0.4491,-0.4491,-0.5054,-0.5378,-0.5378,-0.6713,-0.745,-0.7563,-0.8295,-0.8699,-0.8804,-0.8804,-0.8804,4.71,4.7219,4.7174,4.6636,4.6369,4.5678,4.3294,4.256,4.1481,3.8264,3.6731,3.5547,3.4065,3.3887,3.4352,3.5431,3.6501,3.7701,3.9195,3.932,3.8981,3.8241,3.799,3.719,3.5491,3.4769,3.344,3.1144,2.9957,2.8723,2.736,2.5844,2.4402,2.3144,2.3091,2.3091,2.3091,2.275,2.2754,2.2974,2.1843,2.1494,2.1748,2.0769,2.0323,2.0275,1.9229,1.8332,1.7555,1.6688,1.5756,1.4765,1.3776,1.3332,1.312,1.1634,1.1189,1.1276,1.0774,1.0498,1.0333,1.0199,0.9652,0.9075,0.9075,0.8979,0.8716,0.7962,0.767,0.7339,0.6444,0.6216,0.597,0.4977,0.4731,0.4651,0.4361,0.379,0.3065,0.2174,0.2009,0.1786,0.1034,0.0923,0.0699,0.0084,0.0,-0.0056,-0.0168,-0.095,-0.1952,-0.3176,-0.3483,-0.3846,-0.446,-0.4491,-0.4491,-0.4491,-0.4491,-0.4491,-0.4491,-0.4598,-0.468,-0.468,-0.5464,-0.6172,-0.6804,-0.7536,-0.8209,-0.8804,-0.8804,-0.8804,4.7309,4.7309,4.7145,4.6486,4.5798,4.4586,4.1953,4.0838,3.9595,3.6956,3.6052,3.5375,3.421,3.421,3.4513,3.4789,3.5647,3.681,3.8191,3.863,3.8617,3.8065,3.8002,3.7249,3.5257,3.4831,3.3856,3.1865,3.102,2.9714,2.7601,2.6537,2.537,2.4006,2.3963,2.3714,2.3101,2.2896,2.2715,2.248,2.1865,2.1445,2.1222,2.0801,2.0605,2.0556,1.9695,1.9022,1.8543,1.7703,1.6665,1.5635,1.5203,1.422,1.2945,1.2253,1.1574,1.0935,1.0687,1.0593,1.0593,1.0593,1.0333,0.9977,0.9977,0.9658,0.9204,0.878,0.8233,0.7638,0.7096,0.6591,0.6024,0.5407,0.4912,0.458,0.4505,0.4211,0.3707,0.2982,0.2815,0.2593,0.1814,0.1341,0.0978,0.0615,0.0252,0.0,0.0,-0.0308,-0.095,-0.2035,-0.2536,-0.3065,-0.3818,-0.3873,-0.4042,-0.446,-0.4491,-0.4491,-0.4491,-0.4491,-0.4491,-0.4491,-0.5164,-0.5678,-0.6036,-0.6772,-0.7503,-0.8235,-0.8235,-0.8427,4.7264,4.7309,4.7115,4.6307,4.52,4.3584,4.0816,3.926,3.7838,3.5908,3.5504,3.5246,3.4461,3.4632,3.4657,3.4086,3.4641,3.5557,3.6845,3.7475,3.7839,3.7839,3.7939,3.7136,3.4926,3.468,3.3978,3.234,3.1599,3.0082,2.7432,2.7005,2.6337,2.521,2.4914,2.4372,2.3464,2.3036,2.2588,2.2021,2.1738,2.1329,2.0742,2.0644,2.0605,2.0556,1.9695,1.9287,1.9219,1.8359,1.7412,1.6505,1.6578,1.5248,1.3303,1.3307,1.2347,1.1088,1.1019,1.083,1.0593,1.0593,1.0593,1.0593,1.0593,1.011,0.9594,0.9594,0.8854,0.802,0.7783,0.7094,0.6386,0.6041,0.5326,0.4708,0.4708,0.4598,0.4322,0.3735,0.3624,0.3372,0.2565,0.1952,0.1507,0.1369,0.0699,0.0224,0.0224,0.0084,-0.0224,-0.0811,-0.1535,-0.2258,-0.301,-0.3065,-0.34,-0.4184,-0.4236,-0.4322,-0.4491,-0.4491,-0.4491,-0.4491,-0.503,-0.5351,-0.5515,-0.6091,-0.6745,-0.745,-0.745,-0.7857,4.7145,4.7309,4.6995,4.5708,4.484,4.3464,4.0247,3.8931,3.7838,3.5908,3.5504,3.5472,3.5392,3.4655,3.4271,3.4887,3.4326,3.448,3.6256,3.6958,3.7262,3.7262,3.7701,3.7136,3.4926,3.468,3.3978,3.234,3.126,2.9878,2.8111,2.7959,2.7441,2.6389,2.5336,2.4745,2.4617,2.29,2.2158,2.2441,2.125,2.0859,2.1112,2.0752,2.0605,2.0556,1.9695,1.9287,1.9219,1.8359,1.792,1.7736,1.6913,1.6426,1.6085,1.495,1.3757,1.2646,1.234,1.1507,1.0593,1.0593,1.0593,1.0593,1.0593,1.053,1.0466,1.0466,1.0186,0.9654,0.8735,0.8247,0.774,0.6751,0.5968,0.5406,0.5406,0.4921,0.4491,0.4405,0.4405,0.4153,0.3345,0.3148,0.2871,0.2202,0.148,0.1006,0.1006,0.042,-0.0028,-0.0084,-0.0755,-0.1507,-0.2232,-0.2313,-0.2619,-0.3372,-0.34,-0.3732,-0.446,-0.4491,-0.4491,-0.4491,-0.457,-0.4893,-0.5515,-0.5569,-0.5982,-0.6696,-0.6696,-0.7101,4.6426,4.6995,4.698,4.5618,4.4212,4.2491,3.9978,3.8287,3.6911,3.5744,3.5504,3.5504,3.5504,3.4691,3.3913,3.3647,3.3075,3.297,3.3783,3.4349,3.5077,3.6081,3.6395,3.6135,3.5257,3.4868,3.3884,3.1863,3.1035,3.0159,2.9182,2.9106,2.8609,2.7481,2.7023,2.6149,2.483,2.4031,2.3158,2.2129,2.1611,2.1172,2.083,2.0683,2.0458,2.0137,1.9551,1.9141,1.8812,1.8252,1.8008,1.7974,1.7579,1.698,1.6256,1.5723,1.4612,1.3292,1.318,1.2649,1.2035,1.2035,1.1717,1.1226,1.0744,1.0593,1.0553,1.0372,1.0207,0.9917,0.9154,0.8438,0.7689,0.6798,0.6367,0.6172,0.6172,0.5601,0.5109,0.5109,0.4787,0.4405,0.407,0.3649,0.3262,0.2954,0.2259,0.1591,0.1146,0.0838,0.0504,0.0056,-0.0252,-0.0727,-0.148,-0.1535,-0.1842,-0.2591,-0.2649,-0.2982,-0.3735,-0.379,-0.4015,-0.4491,-0.4491,-0.4625,-0.4893,-0.4893,-0.5246,-0.5928,-0.5928,-0.6335,4.514,4.6067,4.6441,4.5289,4.3524,4.1647,3.9828,3.7898,3.6297,3.5639,3.5504,3.5504,3.5504,3.4905,3.4143,3.3171,3.2786,3.2551,3.2391,3.2902,3.3639,3.465,3.4919,3.5019,3.5019,3.4562,3.3445,3.1537,3.0909,3.0382,2.9829,2.9792,2.9443,2.8636,2.8267,2.7279,2.5568,2.5107,2.4082,2.2584,2.2141,2.163,2.1001,2.0574,2.0205,1.9883,1.9336,1.8926,1.8568,1.8184,1.8008,1.8008,1.8008,1.7465,1.6648,1.6537,1.5483,1.4124,1.4021,1.3554,1.3009,1.3009,1.2604,1.2035,1.1336,1.0888,1.0526,1.02,0.9963,0.971,0.9211,0.8548,0.7883,0.7369,0.7074,0.6912,0.6912,0.6335,0.576,0.5542,0.5109,0.4732,0.4543,0.407,0.3735,0.3735,0.3037,0.2343,0.1813,0.1563,0.1146,0.0392,0.0336,0.0028,-0.0699,-0.0783,-0.109,-0.184,-0.187,-0.2202,-0.2954,-0.2982,-0.3345,-0.4153,-0.4181,-0.4294,-0.4491,-0.4491,-0.4732,-0.5191,-0.5191,-0.5601,4.324,4.4347,4.5155,4.4481,4.2851,4.1055,3.9723,3.7898,3.6297,3.5639,3.5504,3.5504,3.5504,3.5504,3.5166,3.4143,3.3993,3.3713,3.2893,3.3317,3.3567,3.3159,3.3583,3.3922,3.3922,3.342,3.2616,3.1474,3.0909,3.0382,2.9829,2.9792,2.9792,2.9792,2.8688,2.7846,2.7284,2.576,2.473,2.4151,2.2686,2.2,2.1941,2.0552,1.9922,1.9863,1.8978,1.8607,1.8568,1.8184,1.8008,1.8008,1.8008,1.7974,1.7915,1.7529,1.6584,1.5419,1.5038,1.4048,1.3009,1.3009,1.2978,1.2912,1.2499,1.1563,1.0526,1.02,0.967,0.9158,0.8884,0.8785,0.8778,0.8785,0.8209,0.7696,0.7696,0.7101,0.6367,0.5651,0.5487,0.5273,0.4625,0.4491,0.4491,0.4491,0.379,0.3287,0.3287,0.2649,0.1898,0.1174,0.109,0.0783,0.0056,0.0,-0.0336,-0.1062,-0.1118,-0.1452,-0.2174,-0.2202,-0.2593,-0.34,-0.34,-0.3763,-0.4491,-0.4491,-0.4519,-0.4519,-0.4519,-0.4869,4.104,4.1968,4.2462,4.1803,4.0472,3.911,3.8242,3.6881,3.5759,3.5549,3.5504,3.5504,3.5504,3.5504,3.5166,3.4177,3.3993,3.3695,3.2791,3.2899,3.3328,3.3991,3.4971,3.529,3.4537,3.396,3.3018,3.1499,3.0909,3.0382,2.9829,2.9792,2.9792,2.9792,2.9456,2.8641,2.7311,2.6835,2.5781,2.4189,2.3731,2.3141,2.2469,2.2027,2.1106,1.9884,1.9598,1.9002,1.8159,1.8066,1.7842,1.7578,1.7578,1.7578,1.7568,1.7432,1.6938,1.631,1.6176,1.5468,1.4628,1.4628,1.4273,1.3746,1.3339,1.2215,1.0895,1.0071,0.9399,0.8944,0.9044,0.8931,0.8804,0.8804,0.8619,0.8454,0.8454,0.7883,0.7289,0.7042,0.6605,0.6036,0.53,0.5191,0.503,0.457,0.4294,0.3929,0.337,0.3093,0.2676,0.1924,0.1396,0.0811,0.0056,0.0,-0.0112,-0.0336,-0.0336,-0.0671,-0.1424,-0.1452,-0.1814,-0.2565,-0.2593,-0.2954,-0.3735,-0.3735,-0.4015,-0.4491,-0.4491,-0.4625,3.8916,3.9933,4.0546,4.0127,3.902,3.7913,3.7509,3.6417,3.5504,3.5504,3.5504,3.5504,3.5504,3.5504,3.5279,3.4658,3.4576,3.4419,3.3945,3.3956,3.418,3.4559,3.5699,3.5825,3.4255,3.3796,3.298,3.1499,3.0721,3.0156,2.9817,2.9792,2.9792,2.9792,2.9792,2.9183,2.7926,2.772,2.6836,2.5349,2.4793,2.4093,2.3245,2.2701,2.1689,2.0357,1.9893,1.9132,0.0,1.8065,1.7666,1.7148,1.7314,1.7285,1.7119,1.6975,1.6709,1.6455,1.6258,1.5839,1.541,1.541,1.484,1.407,1.3567,1.2405,1.1174,1.0504,0.9752,0.9201,0.9388,0.9118,0.8804,0.8804,0.8804,0.8804,0.8804,0.8427,0.8023,0.775,0.7316,0.6772,0.6036,0.5923,0.5683,0.4976,0.4869,0.4618,0.3846,0.3763,0.3483,0.2732,0.2232,0.1647,0.0895,0.0308,0.0,0.0,0.0,-0.0196,-0.0671,-0.0671,-0.1034,-0.1758,-0.1786,-0.2174,-0.2954,-0.2954,-0.3317,-0.4042,-0.4042,-0.4208,0.0,3.8182,3.9104,3.9104,3.8197,3.727,3.727,3.6357,0.0,3.5504,3.5504,3.5504,3.5504,3.5504,3.5504,3.5504,3.5504,3.5611,3.5981,3.6108,3.5882,3.5129,3.6013,3.5781,3.3427,3.3159,3.2638,3.1474,3.0394,2.9792,2.9792,2.9792,2.9792,2.9792,2.9754,2.9478,2.89,2.8348,2.7795,2.7281,2.5801,2.4789,2.4194,2.2811,2.1857,2.1196,1.9932,1.9135,1.8638,1.8245,1.7553,1.6782,1.7226,1.7073,1.6599,1.6251,1.6095,1.6036,1.5596,1.5439,1.541,1.5381,1.4777,1.3987,1.3331,1.2297,1.1325,1.1272,1.059,0.9865,0.9865,0.9387,0.8883,0.8883,0.8831,0.8804,0.8804,0.8804,0.8593,0.791,0.7777,0.753,0.6804,0.6669,0.6421,0.5678,0.5538,0.5273,0.4653,0.4515,0.4236,0.3541,0.3428,0.3095,0.2343,0.0923,0.0084,0.0084,0.0028,0.0,0.0,0.0,-0.0336,-0.1006,-0.1062,-0.1424,-0.212,-0.2174,-0.2565,-0.3231,-0.3231,-0.3622,3.5878,0.0,3.6432,3.6432,3.6193,3.5953,0.0,3.5714,3.5504,3.5504,3.5504,3.5504,3.5504,3.5504,3.5504,3.5504,3.5504,3.5723,3.6297,3.7317,3.7792,3.725,3.7863,3.725,3.4418,3.3858,3.3013,3.1518,3.0394,2.9792,2.9792,2.9792,2.9792,2.9792,2.9365,2.9026,2.8888,2.7959,2.7406,2.7268,2.6507,2.5633,2.4637,2.4292,2.326,2.1706,2.0919,2.0158,1.9403,1.8904,1.8056,1.7091,1.7204,1.6819,1.6242,1.6134,1.6095,1.6075,1.5977,1.5693,1.5361,1.5039,1.457,1.4019,1.3542,1.26,1.1572,1.1073,1.0752,1.0568,1.0568,1.0064,0.9562,0.9562,0.9185,0.8804,0.8804,0.8804,0.8752,0.856,0.8533,0.8315,0.7563,0.745,0.7182,0.6448,0.5869,0.5433,0.5296,0.4814,0.4436,0.4267,0.368,0.3262,0.3065,0.1703,0.0838,0.0838,0.0308,0.0,0.0,0.0,-0.0084,-0.0252,-0.0811,-0.1174,-0.1369,-0.1925,-0.2286,-0.2454,-0.2454,-0.2565,3.5504,3.5729,3.5953,3.5953,3.5953,3.5953,3.5953,3.5729,3.5504,3.5504,3.5504,3.5504,3.5504,3.5744,3.5863,3.5549,3.5998,3.6611,3.727,3.8279,3.8793,3.8281,3.8525,3.7963,3.5871,3.4539,3.3342,3.2207,3.0696,2.9792,2.9792,2.9792,2.9792,2.9792,2.8988,2.8637,2.8888,2.7833,2.7281,2.7268,2.6487,2.5636,2.4775,2.4556,2.3704,2.239,2.1428,2.0627,1.9964,1.9201,1.8295,1.7388,1.7615,1.7135,1.6285,1.6285,1.6088,1.5762,1.5762,1.5478,1.5049,1.4629,1.4172,1.3773,1.3574,1.2943,1.2236,1.1866,1.1534,1.1266,1.1266,1.0762,1.0261,1.0261,0.9736,0.9263,0.9263,0.9008,0.8804,0.8804,0.8804,0.8672,0.8262,0.8209,0.7963,0.7208,0.6767,0.6384,0.6036,0.5687,0.5332,0.5003,0.4524,0.4079,0.3734,0.2672,0.1895,0.1618,0.1229,0.1006,0.1006,0.0671,0.0336,0.0,-0.0392,-0.0588,-0.0588,-0.1006,-0.1369,-0.1703,-0.1703,-0.2063,3.5504,3.6133,3.6716,3.6417,3.6417,3.6462,3.6357,3.5908,3.5504,3.5504,3.5504,3.5534,3.5639,3.6028,3.6193,3.5729,3.6731,3.7853,3.8721,3.9349,3.9513,3.8924,3.889,3.8349,3.7044,3.5233,3.3779,3.2921,3.11,2.9934,2.9792,2.9792,2.9792,2.9792,2.8699,2.8335,2.8762,2.7708,2.7241,2.7304,2.6138,2.5322,2.4775,2.4255,2.364,2.2915,2.1649,2.084,2.0389,1.9437,1.8544,1.7804,1.8216,1.7676,1.668,1.668,1.6197,1.5555,1.5439,1.5213,1.4873,1.4294,1.3821,1.3496,1.3437,1.3164,1.2905,1.2905,1.2452,1.1972,1.1972,1.1466,1.0939,1.0939,1.044,0.9961,0.9961,0.9517,0.9087,0.8982,0.8956,0.891,0.8804,0.8804,0.8593,0.7969,0.7777,0.7465,0.6785,0.6619,0.6277,0.5618,0.5453,0.5083,0.4365,0.3736,0.3115,0.252,0.2301,0.2202,0.2202,0.1584,0.089,0.0168,0.0139,0.0084,0.0,0.0,-0.0308,-0.0923,-0.0923,-0.1619,3.5504,3.6776,3.7704,3.6058,3.6073,3.6342,3.5789,3.5579,3.5504,3.5504,3.5504,3.5669,3.6237,3.5968,3.5804,3.6267,3.7404,3.8871,4.0681,4.101,4.0868,4.0204,4.0107,3.9054,3.6349,3.5831,3.4701,3.2324,3.1412,3.062,2.9818,2.9792,2.9792,2.9792,2.8699,2.8147,2.8235,2.7165,2.6851,2.7304,2.6138,2.5322,2.4775,2.4255,2.3427,2.238,2.1702,2.1126,2.0605,1.9947,1.9216,1.8528,1.861,1.8127,1.744,1.744,1.695,1.6226,1.5613,1.5544,1.5546,1.4456,1.3821,1.3437,1.3111,1.2954,1.2905,1.2905,1.2822,1.2715,1.2715,1.2187,1.1641,1.1641,1.1141,1.0644,1.0644,1.0568,1.0346,0.9762,0.964,0.9465,0.891,0.8804,0.8752,0.8646,0.8103,0.7567,0.7244,0.6638,0.612,0.5784,0.574,0.548,0.4849,0.4699,0.4357,0.3752,0.2754,0.2202,0.2202,0.1984,0.1574,0.095,0.0817,0.0517,0.0,0.0,-0.0056,-0.0168,-0.0168,-0.0308,3.5504,3.6417,3.7225,3.6671,3.7584,3.8422,3.7778,3.733,3.6866,3.6178,3.6028,3.6133,3.6432,3.6806,3.7509,3.8901,3.902,3.9394,4.0666,4.0232,3.9798,3.9858,3.9544,3.8752,3.739,3.6488,3.5339,3.3729,3.2577,3.1756,3.1341,3.0833,3.0558,3.0558,2.8971,2.8109,2.8109,2.7052,2.6612,2.6851,2.5711,2.5059,2.4763,2.3898,2.3221,2.2681,2.1857,2.1343,2.1069,2.0162,1.9618,1.9281,1.9281,1.8847,1.814,1.7743,1.7385,1.7019,1.6467,1.6369,1.6255,1.4837,1.4474,1.4363,1.3243,1.3128,1.3324,1.2992,1.2905,1.2905,1.2905,1.2642,1.2393,1.2393,1.1857,1.1341,1.1341,1.1065,1.072,1.0389,1.0338,1.0141,0.9465,0.9335,0.9211,0.8857,0.8507,0.8194,0.7917,0.7589,0.7124,0.6423,0.6287,0.5958,0.5277,0.523,0.4871,0.4065,0.3471,0.298,0.2586,0.2521,0.2202,0.1603,0.1527,0.1406,0.1202,0.0783,0.0588,0.0588,0.0196,-0.0224,3.5504,3.6088,3.6821,3.7285,3.8452,3.9514,3.9619,3.8871,3.8018,3.7509,3.715,3.6926,3.6926,3.7734,3.8886,4.0442,4.0232,4.0053,4.0561,3.9738,3.923,3.9604,3.8901,3.8332,3.8167,3.6934,3.572,3.4825,3.3614,3.282,3.2593,3.1924,3.1372,3.1032,2.9333,2.8239,2.7921,2.6977,2.6424,2.6285,2.5285,2.4725,2.4562,2.3434,2.2844,2.2669,2.1719,2.1217,2.1029,2.0162,1.9798,1.9798,1.9798,1.9449,1.8874,1.814,1.7977,1.8012,1.7368,1.7123,1.6868,1.5585,1.5222,1.5094,1.3872,1.3645,1.3708,1.3238,1.3017,1.2905,1.2905,1.2905,1.2905,1.2905,1.2476,1.2055,1.2055,1.1649,1.125,1.1065,1.104,1.0813,1.0141,0.9917,0.9614,0.9106,0.891,0.8677,0.8317,0.8355,0.8,0.6954,0.682,0.6508,0.5729,0.5543,0.513,0.4358,0.4249,0.3891,0.3188,0.3136,0.2837,0.2281,0.2239,0.2195,0.2202,0.1647,0.1369,0.134,0.0588,-0.0056,3.5504,3.6402,3.736,3.7404,3.709,3.7389,3.9783,3.8856,3.7988,3.9753,3.9125,3.8242,3.8242,3.8332,3.8437,3.8586,4.0083,4.125,4.1309,4.122,4.095,4.0397,3.9185,3.8153,3.7539,3.6877,3.5788,3.4176,3.3973,3.3518,3.2629,3.2522,3.186,3.05,2.9759,2.8724,2.7379,2.6788,2.6223,2.5649,2.5096,2.4556,2.4017,2.2887,2.2096,2.1568,2.1006,2.0453,1.9924,1.9836,1.9798,1.9798,1.9798,1.9773,1.9631,1.8874,1.9032,1.9437,1.8051,1.743,1.7226,1.694,1.5874,1.4832,1.521,1.4607,1.3802,1.3755,1.3324,1.2905,1.2905,1.2905,1.2905,1.2905,1.2847,1.2822,1.2822,1.2774,1.2535,1.1873,1.174,1.1516,1.0838,1.021,0.9788,0.9736,0.9211,0.8604,0.8012,0.8203,0.8043,0.7088,0.7249,0.709,0.6226,0.5636,0.5295,0.5222,0.4972,0.4561,0.3944,0.3811,0.3501,0.3021,0.2901,0.2635,0.2202,0.2147,0.212,0.2093,0.1369,0.1006,3.5504,3.6163,3.6926,3.7315,3.6941,3.7165,3.9798,3.9813,3.9245,3.917,3.9409,3.9514,3.911,3.9364,3.9634,3.9634,4.0621,4.1422,4.1422,4.0681,4.0068,3.9828,3.8601,3.7524,3.6896,3.6626,3.606,3.4997,3.4953,3.4773,3.4409,3.3822,3.3212,3.2674,3.0597,2.9219,2.8659,2.724,2.6047,2.5109,2.4888,2.4531,2.3966,2.3188,2.2493,2.197,2.1446,2.088,2.0339,1.9949,1.9798,1.9798,1.9798,1.9798,1.9773,1.9475,1.9553,1.9721,1.9176,1.8908,1.8719,1.7938,1.7536,1.7147,1.5885,1.5458,1.5266,1.4545,1.392,1.3372,1.2992,1.2905,1.2905,1.2905,1.2905,1.2905,1.2905,1.2905,1.2822,1.2535,1.2476,1.227,1.1541,1.1216,1.0889,1.0491,1.0218,0.9793,0.9104,0.8829,0.8486,0.7881,0.7616,0.7282,0.673,0.6486,0.6209,0.5873,0.5063,0.449,0.426,0.3888,0.3638,0.3538,0.3574,0.3527,0.3433,0.3062,0.2899,0.2926,0.2148,0.1786,3.5504,3.5833,3.6327,3.6956,3.7011,3.7558,4.0222,4.0698,4.0576,4.0698,4.0565,4.0245,3.9535,3.982,4.0064,3.9805,4.0502,4.092,4.0502,3.9664,3.902,3.8811,3.7793,3.6941,3.6537,3.6297,3.5983,3.5534,3.5504,3.5504,3.5504,3.4839,3.4138,3.3437,3.143,2.9888,2.8945,2.7403,2.6011,2.4788,2.4612,2.4268,2.3703,2.3108,2.2543,2.202,2.1468,2.093,2.039,1.9962,1.9798,1.9798,1.9798,1.9798,1.9798,1.9798,1.9798,1.9798,1.9798,1.9698,1.9421,1.8632,1.8425,1.8187,1.6598,1.6126,1.5971,1.5199,1.4549,1.3944,1.3334,1.3041,1.2905,1.2905,1.2905,1.2905,1.2905,1.2905,1.2905,1.2905,1.2905,1.2749,1.2236,1.1947,1.1641,1.1191,1.0939,1.0598,0.9988,0.9572,0.9059,0.8379,0.7895,0.7465,0.7041,0.7,0.6831,0.6477,0.5518,0.4891,0.4696,0.4334,0.4111,0.4089,0.4182,0.4196,0.4123,0.3711,0.3558,0.3624,0.2854,0.2512,3.5504,3.5504,3.5669,3.636,3.714,3.843,4.1196,4.1293,4.1709,4.4991,4.2989,4.0359,3.9589,3.9527,3.9361,3.8552,3.955,3.9918,3.8586,3.8377,3.8138,3.7479,3.6851,3.6477,3.6477,3.5893,3.5504,3.5504,3.5504,3.5504,3.5504,3.5504,3.4507,3.2295,3.2219,3.0755,2.7749,2.7201,2.6219,2.482,2.4268,2.3703,2.3083,2.2543,2.202,2.1496,2.0943,2.0377,1.9811,1.9798,1.9798,1.9798,1.9798,1.9798,1.9798,1.9798,1.9798,1.9798,1.9798,1.9434,1.9008,1.9008,1.8292,1.7423,1.741,1.6571,1.561,1.561,1.5163,1.456,1.398,1.3372,1.2929,1.2905,1.2905,1.2905,1.2905,1.2905,1.2905,1.2905,1.2905,1.2905,1.2905,1.2295,1.1814,1.1814,1.1241,1.0714,1.0447,1.0285,0.973,0.8446,0.8072,0.7663,0.7063,0.7,0.7,0.7,0.6498,0.5937,0.5324,0.5303,0.5122,0.4713,0.4694,0.4483,0.4019,0.4019,0.4075,0.4194,0.3453,0.3216,3.6134,3.6228,3.6537,3.7857,3.8701,3.9988,4.3024,4.2238,4.156,4.3978,4.34,4.2338,4.207,4.2031,4.1458,3.9603,4.0017,4.01,3.8602,3.7988,3.7464,3.6836,3.6193,3.5804,3.5804,3.5624,3.5504,3.5504,3.5504,3.5504,3.5504,3.5504,3.4989,3.3858,3.2786,3.1532,3.0186,2.8998,2.748,2.5709,2.554,2.4648,2.3095,2.2932,2.2556,2.2033,2.1509,2.0955,2.0402,1.9974,1.9798,1.9798,1.9798,1.9798,1.9798,1.9798,1.9798,1.9798,1.9798,1.9698,1.951,1.9121,1.8782,1.8368,1.7614,1.716,1.6779,1.6349,1.5798,1.5298,1.5107,1.4618,1.4071,1.3624,1.3214,1.3017,1.3443,1.32,1.2905,1.2905,1.2905,1.2905,1.2905,1.2725,1.2559,1.2559,1.2403,1.1999,1.1196,1.0739,1.0094,0.9109,0.8843,0.845,0.7698,0.7642,0.7447,0.7021,0.6852,0.6513,0.5959,0.5524,0.5251,0.5117,0.522,0.5004,0.4499,0.469,0.458,0.4197,0.4133,0.4115,3.6384,3.6766,3.7347,3.891,4.0271,4.1818,4.4036,4.4037,4.3929,4.5175,4.4707,4.3962,4.3586,4.3315,4.2607,4.089,4.0744,4.0273,3.8735,3.7931,3.7162,3.6229,3.5744,3.5504,3.5504,3.5504,3.5504,3.5504,3.5504,3.5504,3.5504,3.5504,3.507,3.4113,3.3197,3.1999,3.0472,2.9343,2.7726,2.5695,2.5788,2.4863,2.3108,2.3108,2.2681,2.1958,2.1433,2.0867,2.0339,2.0214,2.0012,1.9798,1.9798,1.9798,1.9798,1.9798,1.9798,1.9798,1.9798,1.9798,1.971,1.9171,1.8857,1.8506,1.7652,1.7234,1.6974,1.6588,1.6238,1.5908,1.5654,1.532,1.4926,1.4306,1.3884,1.3705,1.4073,1.3671,1.3262,1.3262,1.3055,1.2905,1.2905,1.2905,1.2905,1.2905,1.2905,1.2551,1.1591,1.1187,1.0575,0.9489,0.9312,0.8977,0.8278,0.8214,0.7966,0.7384,0.7363,0.7112,0.6541,0.6167,0.5867,0.5653,0.5732,0.551,0.4947,0.5089,0.4944,0.4492,0.461,0.459,3.6585,3.725,3.8122,3.979,4.1961,4.3926,4.4811,4.6433,4.7671,4.7473,4.6516,4.542,4.4509,4.3955,4.3286,4.2269,4.1563,4.0577,3.9028,3.823,3.7248,3.5791,3.5587,3.5554,3.5504,3.5504,3.5504,3.5504,3.5504,3.5474,3.5415,3.5415,3.4801,3.344,3.341,3.2123,2.9435,2.8871,2.7483,2.5316,2.5489,2.4793,2.3305,2.3245,2.2581,2.1455,2.093,2.0365,1.9849,2.0402,2.0302,1.9798,1.9798,1.9798,1.9798,1.9798,1.9773,1.9736,1.9736,1.9698,1.9572,1.902,1.8519,1.8028,1.7463,1.6936,1.65,1.65,1.65,1.638,1.582,1.5676,1.5543,1.4994,1.4766,1.4732,1.4766,1.4306,1.3886,1.3886,1.3443,1.3041,1.2992,1.2968,1.2968,1.2905,1.2905,1.2602,1.1751,1.1636,1.1091,0.9775,0.9596,0.9359,0.8817,0.8777,0.8541,0.7995,0.7974,0.7725,0.7189,0.7063,0.6774,0.6285,0.6264,0.598,0.5394,0.5393,0.5266,0.5005,0.5022,0.4857,3.7881,3.8056,3.8496,4.1827,4.4363,4.6422,4.7753,4.8405,4.82,4.6468,4.7241,4.7816,4.6458,4.6126,4.5373,4.335,4.2395,4.139,3.9859,3.9022,3.8021,3.6523,3.6353,3.6149,3.5554,3.5504,3.5504,3.5504,3.5504,3.5265,3.4726,3.4728,3.4098,3.2766,3.2721,3.1915,3.0254,3.0119,2.9007,2.6989,2.7028,2.6301,2.4894,2.4308,2.3119,2.1455,2.093,2.0365,1.9811,1.9936,1.9911,1.9798,1.9798,1.9798,1.9798,1.9798,1.9547,1.9171,1.9171,1.8882,1.8455,1.7915,1.7674,1.7451,1.6873,1.6588,1.65,1.65,1.65,1.6466,1.6337,1.6315,1.6259,1.6129,1.5377,1.4835,1.5298,1.4937,1.4514,1.4514,1.441,1.4154,1.3695,1.3624,1.3443,1.2968,1.2905,1.2686,1.2135,1.18,1.1336,1.0666,1.032,0.9922,0.9379,0.9319,0.9099,0.8561,0.8521,0.848,0.8349,0.7474,0.6937,0.6831,0.6831,0.6556,0.6007,0.6102,0.6026,0.5761,0.5871,0.5693,3.7278,3.8273,3.9711,4.3545,4.5399,4.6464,4.7242,4.7699,4.7513,4.6024,4.7192,4.8139,4.7005,4.6498,4.5773,4.419,4.3285,4.2244,4.0717,3.9901,3.8853,3.7342,3.6813,3.6446,3.6054,3.5701,3.5504,3.5504,3.519,3.4861,3.4533,3.4219,3.341,3.2049,3.2019,3.1227,2.9609,2.9594,2.8722,2.7027,2.7375,2.6814,2.54,2.4422,2.3063,2.1483,2.1241,2.0628,1.9823,2.01,2.0049,1.9798,1.9798,1.9798,1.9798,1.9798,1.9623,1.9334,1.9096,1.882,1.8481,1.7953,1.7624,1.7348,1.7024,1.6735,1.65,1.65,1.65,1.65,1.65,1.65,1.65,1.65,1.602,1.5656,1.5964,1.5555,1.5118,1.5118,1.4903,1.4606,1.4283,1.398,1.3684,1.3372,1.3089,1.267,1.1992,1.1731,1.1361,1.0674,1.0596,1.0476,1.0185,1.0174,1.0045,0.9733,0.9319,0.9055,0.8985,0.8222,0.7807,0.7807,0.7565,0.7301,0.7006,0.6963,0.6747,0.6388,0.6625,0.6472,3.6261,3.8382,4.0998,4.4453,4.5382,4.5546,4.5843,4.6363,4.6616,4.6024,4.687,4.7496,4.6752,4.6109,4.5466,4.4733,4.3809,4.2762,4.1571,4.0658,3.9589,3.8157,3.7293,3.6752,3.66,3.5911,3.5504,3.5504,3.4861,3.4459,3.4339,3.3679,3.2721,3.1376,3.1331,3.0434,2.8622,2.8607,2.7961,2.6695,2.7187,2.6756,2.5462,2.4292,2.3011,2.1677,2.1538,2.0823,1.9877,2.0354,2.0151,1.9547,1.9723,1.9748,1.9673,1.9773,1.9748,1.9597,1.9045,1.8795,1.8619,1.8091,1.7601,1.7237,1.7237,1.6898,1.65,1.65,1.65,1.65,1.65,1.65,1.65,1.65,1.65,1.65,1.65,1.6117,1.5754,1.5754,1.5265,1.4858,1.4858,1.4352,1.3956,1.3956,1.3443,1.2768,1.1967,1.1758,1.1398,1.0606,1.0811,1.0996,1.0918,1.0908,1.0876,1.0819,1.0091,0.9666,0.9697,0.923,0.9004,0.9072,0.8389,0.8036,0.8036,0.773,0.7419,0.7122,0.7314,0.7172,3.6368,3.8792,4.1332,4.3221,4.4128,4.4926,4.6334,4.6718,4.6752,4.6667,4.6802,4.6718,4.5991,4.5771,4.5466,4.4733,4.3369,4.2378,4.2179,4.0981,3.9754,3.887,3.8076,3.7368,3.6676,3.5911,3.5504,3.5504,3.4861,3.4264,3.3649,3.3006,3.2033,3.0687,3.0642,2.9983,2.8607,2.8607,2.8196,2.7458,2.6966,2.6302,2.5488,2.4778,2.3727,2.2396,2.1366,2.056,1.9976,1.994,1.9321,1.8505,1.9447,1.9522,1.9158,1.9635,1.9522,1.9033,1.8481,1.8003,1.7513,1.6914,1.6676,1.6613,1.6613,1.655,1.65,1.65,1.65,1.65,1.65,1.65,1.65,1.65,1.65,1.65,1.65,1.6445,1.638,1.638,1.5886,1.5477,1.5477,1.4994,1.4583,1.4583,1.4084,1.3497,1.2965,1.2428,1.1953,1.1489,1.1479,1.134,1.0937,1.0908,1.0896,1.0882,1.0447,1.0514,1.1262,1.0521,1.0251,1.0606,0.9284,0.8594,0.8594,0.8095,0.8048,0.8438,0.8004,0.7722,3.6167,3.7714,3.9211,4.157,4.2703,4.3509,4.4636,4.5229,4.5579,4.5579,4.5579,4.5585,4.5686,4.4993,4.4316,4.3978,4.2675,4.1677,4.1677,4.0764,3.9969,3.961,3.8897,3.8133,3.7368,3.6569,3.5943,3.5537,3.4517,3.3799,3.3514,3.2497,3.1496,3.0537,3.0163,2.9549,2.8607,2.8244,2.7899,2.7585,2.6926,2.6232,2.5541,2.4885,2.3856,2.2545,2.1679,2.0974,2.0404,1.9987,1.9342,1.8711,1.9498,1.969,1.9573,1.975,1.9877,1.9832,1.8613,1.8053,1.7702,1.6789,1.65,1.65,1.65,1.65,1.65,1.65,1.65,1.65,1.65,1.65,1.65,1.65,1.65,1.65,1.65,1.65,1.65,1.65,1.6281,1.6095,1.6095,1.5599,1.5208,1.5208,1.4687,1.4165,1.3729,1.3086,1.254,1.2156,1.1999,1.1855,1.1648,1.1628,1.1736,1.2002,1.1398,1.1301,1.1914,1.1359,1.1105,1.1291,1.0106,0.9494,0.9494,0.9363,0.9221,0.9095,0.9018,0.8741,3.5585,3.6461,3.7297,3.9702,4.085,4.1655,4.2613,4.3457,4.4069,4.4254,4.4479,4.4784,4.5314,4.4316,4.3392,4.3392,4.2168,4.1204,4.1204,4.0561,4.0096,4.0096,3.9385,3.869,3.8149,3.7174,3.6353,3.5799,3.4358,3.3499,3.3499,3.2049,3.1017,3.0522,2.9744,2.9101,2.8607,2.7944,2.751,2.7345,2.6686,2.5989,2.5307,2.4649,2.3808,2.2818,2.2226,2.1516,2.0785,2.0279,1.9646,1.9075,1.9605,1.9877,1.9964,1.985,2.0043,2.0132,1.8706,1.8107,1.7827,1.6814,1.65,1.65,1.65,1.65,1.65,1.65,1.65,1.65,1.65,1.65,1.65,1.65,1.65,1.65,1.65,1.65,1.65,1.65,1.65,1.65,1.65,1.6129,1.582,1.582,1.5332,1.4812,1.4513,1.3905,1.3386,1.3087,1.2783,1.2566,1.2447,1.2296,1.234,1.2695,1.2015,1.1829,1.235,1.1878,1.1655,1.1751,1.1007,1.0576,1.0474,1.0477,1.0265,0.9866,0.9926,0.9713,3.4416,3.5557,3.6748,3.7653,3.8387,3.933,4.0934,4.1886,4.2617,4.3333,4.4062,4.4615,4.4649,4.3978,4.3392,4.3392,4.2168,4.1204,4.1204,4.0561,4.0096,4.0096,3.9385,3.8881,3.8854,3.7467,3.6569,3.6554,3.4652,3.3499,3.3499,3.1629,3.0537,3.0507,2.9295,2.8637,2.8607,2.7944,2.7285,2.6632,2.5974,2.5292,2.4634,2.3969,2.3596,2.3509,2.2905,2.1974,2.0888,2.0779,2.0086,1.9135,1.962,1.9839,1.9891,1.9828,1.9499,1.9025,1.8407,1.7871,1.7348,1.6722,1.65,1.65,1.65,1.65,1.65,1.65,1.65,1.65,1.65,1.65,1.65,1.65,1.65,1.65,1.65,1.65,1.65,1.65,1.65,1.65,1.65,1.6466,1.6445,1.6445,1.5942,1.5554,1.553,1.4993,1.4607,1.4585,1.4066,1.3535,1.3095,1.2518,1.2213,1.2233,1.1848,1.1988,1.2837,1.2044,1.178,1.2164,1.2122,1.1908,1.1523,1.1025,1.0899,1.1087,1.059,1.0499,3.326,3.4188,3.5399,3.6153,3.7204,3.8341,3.9452,4.068,4.1786,4.2553,4.33,4.3995,4.4513,4.3555,4.2692,4.2692,4.1457,4.0476,4.0476,4.0282,4.0096,4.0096,3.985,3.9463,3.8935,3.7975,3.6971,3.6025,3.444,3.3305,3.2886,3.175,3.0928,3.0507,2.9669,2.8843,2.7974,2.772,2.748,2.7225,2.6123,2.5457,2.5187,2.4103,2.3595,2.3595,2.3377,2.2802,2.1981,2.1097,2.0295,1.9612,1.9702,1.9807,1.9885,1.9826,1.9907,1.9961,1.8971,1.8326,1.7935,1.8102,1.7405,1.6636,1.742,1.7119,1.65,1.65,1.65,1.65,1.65,1.65,1.65,1.65,1.65,1.65,1.65,1.65,1.65,1.65,1.65,1.65,1.65,1.65,1.65,1.65,1.6315,1.6194,1.6194,1.5644,1.5276,1.5276,1.4744,1.431,1.4146,1.3573,1.3222,1.3222,1.3081,1.299,1.2886,1.2973,1.2895,1.2637,1.2646,1.2432,1.1992,1.2103,1.1963,1.1582,1.1387,1.1112,3.2632,3.3305,3.4344,3.5065,3.5937,3.6909,3.7894,3.9111,4.0245,4.0998,4.1962,4.2808,4.3356,4.2827,4.2286,4.2286,4.1077,4.0096,4.0096,4.0096,4.0096,4.0096,4.0096,3.9901,3.9342,3.8624,3.7655,3.644,3.4847,3.3593,3.2871,3.157,3.0462,2.9549,2.934,2.8738,2.76,2.76,2.748,2.7255,2.6138,2.5472,2.5217,2.4118,2.3595,2.3595,2.3385,2.3077,2.2628,2.1739,2.1035,2.0469,2.0162,2.022,2.0444,1.9951,2.0193,2.0602,1.9339,1.8728,1.8542,1.8707,1.8131,1.7473,1.8045,1.7705,1.7089,1.7044,1.6774,1.6531,1.671,1.6637,1.65,1.65,1.65,1.65,1.65,1.65,1.65,1.65,1.65,1.65,1.65,1.65,1.65,1.65,1.65,1.65,1.65,1.6139,1.5908,1.5908,1.5354,1.4994,1.4994,1.4434,1.4097,1.4097,1.4097,1.392,1.3525,1.3684,1.3624,1.3214,1.2992,1.2744,1.2451,1.2744,1.2642,1.2163,1.2163,1.1798,0.0,0.0,0.0,3.4294,3.4459,3.4844,3.623,3.7095,3.7857,3.8711,4.0085,4.1127,4.116,4.1749,4.2226,4.226,4.1068,4.013,4.013,4.0113,4.0096,4.0096,4.0096,4.0096,4.0096,3.9368,3.8608,3.7847,3.5873,3.434,3.3516,3.1029,2.8992,2.766,2.8233,2.8248,2.76,2.76,2.727,2.6572,2.5929,2.5247,2.459,2.3924,2.3595,2.3565,2.2987,2.2718,2.2718,2.2688,2.2298,2.1665,2.0991,2.1141,2.1545,2.0247,2.0258,2.0732,1.9421,1.9066,1.9058,1.8428,1.8642,1.9003,1.8394,1.8255,1.8307,1.8173,1.738,1.6659,1.7167,1.6909,1.6522,1.6522,1.6522,1.65,1.6522,1.6522,1.65,1.65,1.65,1.65,1.65,1.65,1.65,1.65,1.65,1.65,1.65,1.65,1.65,1.65,1.5986,1.5632,1.5632,1.5073,1.4721,1.4721,1.4721,1.4732,1.4698,1.4143,1.3839,1.3815,1.3238,1.2954,1.2954,1.2929,1.2905,1.2905,1.2905,1.2535,3.1976,0.0,0.0,0.0,0.0,0.0,3.4876,3.5661,3.652,3.7793,3.884,3.9709,4.0224,4.0541,4.0884,4.1416,4.1157,4.0899,4.0899,4.0451,4.0096,4.0096,4.0096,4.0096,4.0096,3.9368,3.8379,3.7183,3.5618,3.414,3.2841,3.0746,2.9217,2.8338,2.8034,2.7794,2.76,2.76,2.727,2.6572,2.5929,2.5247,2.459,2.3924,2.3595,2.3595,2.3415,2.334,2.3266,2.2373,2.2164,2.2358,2.168,2.1545,2.165,2.1276,2.1287,2.1421,2.105,2.0702,2.0509,2.1205,2.0702,1.995,2.0635,1.9922,1.8871,1.8844,1.8263,1.7605,1.7374,1.7188,1.7076,1.7076,1.6774,1.6616,1.6993,1.6774,1.65,1.65,1.65,1.65,1.65,1.65,1.65,1.65,1.65,1.65,1.65,1.65,1.65,1.65,1.6358,1.6238,1.6238,1.571,1.5343,1.5343,1.5343,1.5175,1.4732,1.496,1.4892,1.4468,1.4294,1.4201,1.4201,1.3344,1.2905,1.2905,1.2905,1.2798,3.1174,3.2109,3.3125,3.2647,0.0,0.0,3.3918,3.4652,3.537,3.6196,3.7203,3.8063,3.8489,3.9146,3.9748,4.0172,4.0236,4.0556,4.1531,4.1018,4.0544,4.0544,4.0544,4.0426,4.013,3.9368,3.8428,3.7299,3.5637,3.3802,3.1763,3.0342,2.9307,2.8622,2.7959,2.76,2.76,2.76,2.727,2.6572,2.5929,2.5247,2.459,2.3924,2.3595,2.3595,2.3325,2.3206,2.3152,2.2113,2.2104,2.2658,2.2283,2.2119,2.2069,2.1799,2.2039,2.2413,2.1874,2.1678,2.1715,2.2152,2.1789,2.1247,2.1693,2.0913,1.9837,1.9768,1.9117,1.8378,1.8126,1.7841,1.7626,1.7626,1.7394,1.725,1.7565,1.7209,1.6774,1.6531,1.65,1.65,1.65,1.65,1.65,1.65,1.65,1.65,1.65,1.65,1.65,1.65,1.65,1.65,1.65,1.6194,1.5986,1.5986,1.5986,1.582,1.5478,1.5555,1.5432,1.5073,1.4835,1.4698,1.4698,1.4001,1.3515,1.3262,1.3017,1.2905,3.0267,3.0866,3.1618,3.2243,3.2378,0.0,3.3245,3.3844,3.4309,3.4384,3.5429,3.6384,3.6384,3.7614,3.869,3.8754,3.8766,3.956,4.1738,4.1488,4.1109,4.1204,4.1204,4.0907,4.018,3.9365,3.8553,3.7719,3.5743,3.3378,3.064,2.9983,2.9355,2.8622,2.8034,2.7675,2.76,2.76,2.7225,2.6482,2.5884,2.5202,2.447,2.3879,2.3595,2.3565,2.3032,2.2808,2.2748,2.2164,2.2224,2.2703,2.2703,2.2748,2.2733,2.2113,2.2622,2.343,2.2293,2.2313,2.2703,2.2099,2.2293,2.2688,2.2084,2.1527,2.1041,2.0782,1.999,1.9213,1.9193,1.88,1.8385,1.8329,1.8262,1.8208,1.8198,1.7767,1.725,1.6774,1.6573,1.65,1.65,1.65,1.65,1.65,1.65,1.65,1.65,1.65,1.65,1.65,1.65,1.65,1.65,1.65,1.65,1.65,1.65,1.65,1.65,1.5974,1.5698,1.5698,1.5163,1.4915,1.4915,1.4766,1.4422,1.3886,1.3286,1.2992,3.019,3.0765,3.1314,3.1633,3.1705,0.0,3.2557,3.2811,3.3036,3.3574,3.4359,3.492,3.492,3.6091,3.7248,3.7857,3.7997,3.8601,4.0282,4.042,4.0527,4.1126,4.1204,4.091,4.0176,3.9379,3.8342,3.6934,3.4927,3.2795,3.0612,3.0387,2.9789,2.8637,2.8472,2.8154,2.76,2.76,2.7001,2.5794,2.5674,2.4971,2.3789,2.3655,2.3595,2.3595,2.3475,2.3415,2.3415,2.3281,2.3011,2.2703,2.2703,2.3002,2.34,2.3281,2.3385,2.3565,2.331,2.331,2.34,2.3266,2.331,2.3385,2.3266,2.2814,2.2131,2.1013,2.092,2.0932,2.0002,2.0059,2.0216,1.9681,1.9218,1.8882,1.8764,1.8322,1.7907,1.7807,1.7097,1.65,1.65,1.65,1.65,1.65,1.65,1.65,1.65,1.65,1.65,1.65,1.65,1.65,1.65,1.65,1.65,1.65,1.65,1.65,1.65,1.638,1.6315,1.6315,1.6207,1.6151,1.6163,1.5175,1.4629,1.4514,1.392,1.3613,2.8981,2.9854,3.0794,3.088,3.1456,0.0,0.0,3.2527,3.3006,3.3006,3.3784,3.4503,3.4503,3.5345,3.6161,3.6543,3.6645,3.706,3.8195,3.903,3.9777,4.0466,4.027,3.99,3.9503,3.8422,3.7135,3.5645,3.4271,3.2916,3.1584,3.0866,3.0208,2.9564,2.8936,2.8427,2.8109,2.7764,2.6941,2.5615,2.5615,2.4896,2.3595,2.3595,2.3595,2.3595,2.3595,2.343,2.3152,2.3152,2.2972,2.2733,2.3032,2.3325,2.3595,2.3595,2.3595,2.3595,2.3595,2.3595,2.3595,2.3595,2.3595,2.3595,2.3595,2.3176,2.2568,2.1874,2.1702,2.1639,2.1371,2.1304,2.1215,2.0872,2.0589,2.0387,2.0318,1.9877,1.9403,1.9052,1.8358,1.7613,1.7002,1.668,1.65,1.65,1.65,1.65,1.65,1.65,1.65,1.65,1.65,1.65,1.65,1.65,1.65,1.65,1.65,1.65,1.65,1.65,1.65,1.65,1.65,1.65,1.65,1.5876,1.5444,1.5118,1.4537,1.4097,2.7782,2.8716,2.9858,3.0011,3.1155,3.208,0.0,0.0,0.0,3.2437,3.3275,3.4098,3.4098,3.4756,3.5265,3.5145,3.534,3.5655,3.6122,3.7371,3.8594,3.9598,3.9241,3.8816,3.8623,3.7264,3.5843,3.4595,3.3858,3.3215,3.2557,3.136,3.0642,3.0507,2.9385,2.8727,2.8607,2.7944,2.6941,2.5615,2.5734,2.5016,2.3595,2.3729,2.3729,2.3595,2.3595,2.331,2.2868,2.2868,2.2868,2.2912,2.3266,2.349,2.3595,2.3595,2.3595,2.3595,2.3595,2.3595,2.3595,2.3595,2.3595,2.3595,2.3595,2.3251,2.2853,2.2733,2.2403,2.2158,2.2583,2.2368,2.2039,2.1919,2.1874,2.1859,2.1724,2.1364,2.0884,2.0355,1.9709,1.8872,1.7672,1.7013,1.6659,1.6659,1.6659,1.6616,1.6522,1.6595,1.6616,1.6522,1.65,1.65,1.65,1.65,1.65,1.65,1.65,1.65,1.65,1.65,1.65,1.65,1.65,1.65,1.65,1.65,1.6238,1.5754,1.5141,1.4595,2.7661,2.7835,2.8182,2.8939,3.0267,3.1203,3.0564,0.0,3.2407,3.175,0.0,3.2736,3.2736,0.0,0.0,3.3814,3.4726,3.5312,3.481,3.5416,3.6674,3.8743,3.8953,3.8621,3.7873,3.6482,3.5302,3.4563,3.3858,3.3215,3.2557,3.1795,3.1107,3.0522,2.9834,2.919,2.8607,2.7944,2.6941,2.5615,2.6198,2.5465,2.3625,2.4216,2.4156,2.3595,2.3595,2.3565,2.349,2.349,2.349,2.3445,2.2987,2.3137,2.3595,2.3595,2.3595,2.3595,2.3595,2.3595,2.3595,2.3595,2.3595,2.3595,2.3595,2.355,2.3385,2.2853,2.3032,2.3266,2.2823,2.3047,2.3251,2.2718,2.2583,2.2418,2.1814,2.1655,2.1585,2.1511,2.0576,1.9418,1.8236,1.7565,1.7209,1.7209,1.7209,1.7034,1.6552,1.6909,1.7034,1.6552,1.65,1.65,1.65,1.65,1.65,1.65,1.65,1.65,1.65,1.65,1.65,1.65,1.65,1.65,1.65,1.65,1.6466,1.638,1.5776,1.5477,2.7509,2.7798,2.8231,2.8631,2.9857,3.0717,2.976,3.0682,3.1554,3.0939,0.0,0.0,0.0,0.0,0.0,0.0,3.4876,3.54,3.5115,3.5325,3.6006,3.7353,3.7171,3.6783,3.6464,3.5866,3.5385,3.51,3.4098,3.338,3.3095,3.2064,3.1376,3.1077,3.0118,2.9472,2.9175,2.8139,2.7121,2.6183,2.6452,2.5749,2.4186,2.447,2.4231,2.3595,2.3595,2.3595,2.3595,2.3595,2.3595,2.3565,2.331,2.337,2.3595,2.3595,2.3595,2.3595,2.3595,2.3595,2.3595,2.3595,2.3595,2.3595,2.3595,2.3595,2.355,2.3281,2.34,2.3535,2.3302,2.34,2.3535,2.3266,2.3227,2.3152,2.2862,2.2802,2.2697,2.2358,2.1565,2.0784,2.0293,1.8837,1.7767,1.7767,1.779,1.7729,1.7455,1.7657,1.7602,1.7031,1.6951,1.6837,1.6543,1.65,1.65,1.65,1.65,1.65,1.65,1.65,1.65,1.65,1.65,1.65,1.65,1.65,1.65,1.6488,1.6238,1.593,2.7761,2.7803,2.803,2.8447,2.9396,2.9955,2.8884,2.9809,3.072,3.0261,3.1011,0.0,0.0,0.0,3.4144,3.4201,0.0,3.5444,3.525,3.5385,3.5684,3.6163,3.5804,3.5504,3.5504,3.5504,3.5429,3.5235,3.4143,3.3425,3.3245,3.2123,3.1511,3.1511,3.0432,2.9786,2.9606,2.8453,2.745,2.6587,2.6806,2.6168,2.4874,2.5053,2.4679,2.3879,2.3879,2.3774,2.3595,2.3595,2.3595,2.3595,2.3595,2.3595,2.3595,2.3595,2.3595,2.3595,2.3595,2.3595,2.3595,2.3595,2.3595,2.3595,2.3595,2.3595,2.3595,2.3595,2.3595,2.3595,2.3595,2.3595,2.3595,2.3595,2.3595,2.3595,2.3595,2.3595,2.346,2.3032,2.2433,2.1964,2.1964,2.0096,1.8663,1.8837,1.892,1.88,1.8423,1.8528,1.8374,1.7591,1.7394,1.7126,1.6752,1.6573,1.65,1.65,1.65,1.65,1.65,1.65,1.65,1.65,1.65,1.65,1.65,1.65,1.65,1.65,1.65,1.6259,2.8546,2.7635,2.69,2.8326,2.8743,2.8597,2.7901,2.892,2.9998,2.984,2.9854,3.0341,3.1836,3.2673,3.3227,3.3496,3.4637,0.0,0.0,3.5085,3.5519,3.5534,3.5519,3.5504,3.5504,3.5504,3.5235,3.4593,3.3873,3.3215,3.2587,3.1869,3.1511,3.1511,3.0823,3.0193,2.9621,2.8906,2.7904,2.6602,2.727,2.6881,2.56,2.6243,2.5824,2.4575,2.4575,2.4201,2.3595,2.3595,2.3595,2.3595,2.3595,2.3595,2.3595,2.3595,2.3595,2.3595,2.3595,2.3595,2.3595,2.3595,2.3595,2.3595,2.3595,2.3595,2.3595,2.3595,2.3595,2.3595,2.3595,2.3595,2.3595,2.3595,2.3595,2.3595,2.3595,2.3595,2.3595,2.3565,2.3092,2.2658,2.2658,2.1096,2.0059,2.0705,2.0821,2.0404,1.9224,1.9509,1.9396,1.8201,1.7605,1.7291,1.7271,1.6795,1.65,1.65,1.65,1.65,1.65,1.65,1.65,1.65,1.65,1.65,1.65,1.65,1.65,1.65,1.65,1.65,2.9349,2.8638,2.8027,2.8947,2.8447,2.78,2.7943,2.852,2.91,2.9447,2.9957,3.0496,3.099,3.1648,3.2337,3.3108,3.3955,3.4651,0.0,3.5355,3.5504,3.5504,3.5504,3.5504,3.5504,3.51,3.4726,3.4533,3.3858,3.3215,3.2557,3.2273,3.1959,3.1511,3.0866,3.0402,3.0193,2.9131,2.8368,2.7919,2.7705,2.7136,2.6243,2.6033,2.5689,2.5202,2.4306,2.4051,2.4216,2.3789,2.3595,2.3595,2.3595,2.3595,2.3595,2.3595,2.3595,2.3595,2.3595,2.3595,2.3595,2.3595,2.3595,2.3595,2.3595,2.3595,2.3595,2.3595,2.3595,2.3595,2.3595,2.3595,2.3595,2.3595,2.3595,2.3595,2.3595,2.3595,2.3595,2.3595,2.3122,2.2823,2.3242,2.2438,2.1676,2.1469,2.1414,2.113,2.0274,2.0333,1.9979,1.8764,1.8477,1.8224,1.7867,1.7666,1.725,1.6531,1.6837,1.6879,1.6522,1.65,1.65,1.65,1.65,1.65,1.65,1.65,1.65,1.65,1.65,1.65,3.016,2.9493,2.8819,2.9469,2.852,2.7491,2.7754,2.7956,2.83,2.9054,2.9626,3.0107,3.0456,3.1314,3.2097,3.2551,3.3705,3.4758,0.0,3.5504,3.5504,3.5504,3.5504,3.5504,3.5504,3.51,3.4668,3.4158,3.3739,3.3095,3.2183,3.2138,3.1944,3.1511,3.1077,3.0746,3.0507,2.9684,2.9056,2.8592,2.8143,2.7615,2.6941,2.6497,2.6048,2.5555,2.4687,2.4298,2.4201,2.3789,2.3595,2.3595,2.3595,2.3595,2.3595,2.3595,2.3595,2.3595,2.3595,2.3595,2.3595,2.3595,2.3595,2.3595,2.3595,2.3595,2.3655,2.3894,2.3789,2.3655,2.3894,2.3789,2.3595,2.3595,2.3595,2.3595,2.3595,2.3595,2.3595,2.3595,2.3302,2.3152,2.3535,2.3287,2.2862,2.2443,2.2382,2.2137,2.1486,2.1403,2.1024,1.9992,1.9517,1.8945,1.8179,1.8106,1.7807,1.7118,1.7394,1.7422,1.7076,1.69,1.6774,1.6774,1.6595,1.65,1.65,1.65,1.65,1.65,1.65,1.65]}]]